[[{"header":{"parameterUnit":"m.s-1","parameterCategory":1,"la1":30.6,"la2":29.2853,"lo1":-89.7004,"lo2":-87.6739,"dy":0.0162,"dx":0.0183,"nx":112,"ny":82,"refTime":"2023-08-12T12:00:00:Z","depth":0,"parameterNumber":2,"parameterNumberName":"U-component_of_WINDS"},"data":[0.0,0.0,0.0,0.0,0.0,0.0,0.0,0.0,0.0,0.0,0.0,0.0,0.0,0.0,0.0,0.0,0.0,0.0,0.0,0.0,0.0,0.0,0.0,0.0,0.0,0.0,0.0,0.0,0.0,0.0,0.0,0.0,0.0,0.0,0.0,0.0,0.0,0.0,0.0,0.0,0.0,0.0,0.0,0.0,0.0,0.0,0.0,0.0,0.0,0.0,0.0,0.0,0.0,0.0,0.0,0.0,0.0,0.0,0.0,0.0,0.0,0.0,0.0,0.0,0.0,0.0,0.0,0.0,0.0,0.0,0.0,0.0,0.0,0.0,0.0,0.0,0.0,0.0,0.0,0.0,0.0,0.0,0.0,0.0,0.0,0.0,0.0,0.0,0.0,0.0,0.5768,0.5857,0.6658,0.7048,0.6934,0.719,0.6959,0.6149,0.0,0.0,0.0,0.0,0.0,0.0,0.0,0.0,0.0,0.0,0.0,0.0,0.0,0.0,0.0,0.0,0.0,0.0,0.0,0.0,0.0,0.0,0.0,0.0,0.0,0.0,0.0,0.0,0.0,0.0,0.0,0.0,0.0,0.0,0.0,0.0,0.0,0.0,0.0,0.0,0.0,0.0,0.0,0.0,0.0,0.0,0.0,0.0,0.0,0.0,0.0,0.0,0.0,0.0,0.0,0.0,0.0,0.0,0.0,0.0,0.0,0.0,0.0,0.0,0.0,0.0,0.0,0.0,0.0,0.0,0.0,0.0,0.0,0.0,0.0,0.0,0.0,0.0,0.0,0.0,0.0,0.0,0.0,0.0,0.0,0.0,0.0,0.0,0.0,0.0,0.0,0.0,0.0,0.0,0.0,0.0,0.0,0.0,0.0,0.0,0.0,0.0,0.0,0.0,0.5881,0.6162,0.6895,0.735,0.7309,0.7115,0.6827,0.643,0.0,0.0,0.0,0.0,0.0,0.0,0.0,0.0,0.0,0.0,0.0,0.0,0.0,0.0,0.0,0.0,0.0,0.0,0.0,0.0,0.0,0.0,0.0,0.0,0.0,0.0,0.0,0.0,0.0,0.0,0.0,0.0,0.0,0.0,0.0,0.0,0.0,0.0,0.0,0.0,0.0,0.0,0.0,0.0,0.0,0.0,0.0,0.0,0.0,0.0,0.0,0.0,0.0,0.0,0.0,0.0,0.0,0.0,0.0,0.0,0.0,0.0,0.0,0.0,0.0,0.0,0.0,0.0,0.0,0.0,0.0,0.0,0.0,0.0,0.0,0.0,0.0,0.0,0.0,0.0,0.0,0.0,0.0,0.0,0.0,0.0,0.0,0.0,0.0,0.0,0.0,0.0,0.0,0.0,0.0,0.0,0.0,0.0,0.0,0.0,0.0,0.0,0.0,0.5966,0.6166,0.6468,0.7031,0.735,0.7255,0.7051,0.68,0.6491,0.6261,0.0,0.0,0.0,0.0,0.0,0.0,0.0,0.0,0.0,0.0,0.0,0.0,0.0,0.0,0.0,0.0,0.0,0.0,0.0,0.0,0.0,0.0,0.0,0.0,0.0,0.0,0.0,0.0,0.0,0.0,0.0,0.0,0.0,0.0,0.0,0.0,0.0,0.0,0.0,0.0,0.0,0.0,0.0,0.0,0.0,0.0,0.0,0.0,0.0,0.0,0.0,0.0,0.0,0.0,0.0,0.0,0.0,0.0,0.0,0.0,0.0,0.0,0.0,0.0,0.0,0.0,0.0,0.0,0.0,0.0,0.0,0.0,0.0,0.0,0.0,0.0,0.0,0.0,0.0,0.0,0.0,0.0,0.0,0.0,0.0,0.0,0.0,0.0,0.0,0.0,0.0,0.0,0.0,0.0,0.0,0.0,0.0,0.0,0.0,0.0,0.0,0.0,0.6196,0.6295,0.6661,0.7071,0.7268,0.7149,0.6912,0.6685,0.6485,0.6129,0.0,0.0,0.0,0.0,0.0,0.0,0.0,0.0,0.0,0.0,0.0,0.0,0.0,0.0,0.0,0.0,0.0,0.0,0.0,0.0,0.0,0.0,0.0,0.0,0.0,0.0,0.0,0.0,0.0,0.0,0.0,0.0,0.0,0.0,0.0,0.0,0.0,0.0,0.0,0.0,0.0,0.0,0.0,0.0,0.0,0.0,0.0,0.0,0.0,0.0,0.0,0.0,0.0,0.0,0.0,0.0,0.0,0.0,0.0,0.0,0.0,0.0,0.0,0.0,0.0,0.0,0.0,0.0,0.0,0.0,0.0,0.0,0.0,0.0,0.0,0.0,0.0,0.0,0.0,0.0,0.0,0.0,0.0,0.0,0.0,0.0,0.0,0.0,0.0,0.0,0.0,0.0,0.0,0.0,0.0,0.0,0.0,0.0,0.0,0.0,0.0,0.0,0.601,0.6057,0.6637,0.6973,0.7153,0.7143,0.6627,0.6352,0.6464,0.5935,0.0,0.0,0.0,0.0,0.0,0.0,0.0,0.0,0.0,0.0,0.0,0.0,0.0,0.0,0.0,0.0,0.0,0.0,0.0,0.0,0.0,0.0,0.0,0.0,0.0,0.0,0.0,0.0,0.0,0.0,0.0,0.0,0.0,0.0,0.0,0.0,0.0,0.0,0.0,0.0,0.0,0.0,0.0,0.0,0.0,0.0,0.0,0.0,0.0,0.0,0.0,0.0,0.0,0.0,0.0,0.0,0.0,0.0,0.0,0.0,0.0,0.0,0.0,0.0,0.0,0.0,0.0,0.0,0.0,0.0,0.0,0.0,0.0,0.0,0.0,0.0,0.0,0.0,0.0,0.0,0.0,0.0,0.0,0.0,0.0,0.0,0.0,0.0,0.0,0.0,0.0,0.0,0.0,0.0,0.0,0.0,0.0,0.0,0.0,0.0,0.0,0.0,0.6074,0.6139,0.6644,0.6885,0.7007,0.7007,0.663,0.6731,0.7414,0.0,0.0,0.0,0.0,0.0,0.0,0.0,0.0,0.0,0.0,0.0,0.0,0.0,0.0,0.0,0.0,0.0,0.0,0.0,0.0,0.0,0.0,0.0,0.0,0.0,0.0,0.0,0.0,0.0,0.0,0.0,0.0,0.0,0.0,0.0,0.0,0.0,0.0,0.0,0.0,0.0,0.0,0.0,0.0,0.0,0.0,0.0,0.0,0.0,0.0,0.0,0.0,0.0,0.0,0.0,0.0,0.0,0.0,0.0,0.0,0.0,0.0,0.0,0.0,0.0,0.0,0.0,0.0,0.0,0.0,0.0,0.0,0.0,0.0,0.0,0.0,0.0,0.0,0.0,0.0,0.0,0.0,0.0,0.0,0.0,0.0,0.0,0.0,0.0,0.0,0.0,0.0,0.0,0.0,0.0,0.0,0.0,0.0,0.0,0.0,0.0,0.0,0.6196,0.6044,0.6081,0.6576,0.6766,0.6858,0.6858,0.6488,0.6627,0.7486,0.0,0.0,0.0,0.0,0.0,0.0,0.0,0.0,0.0,0.0,0.0,0.0,0.0,0.0,0.0,0.0,0.0,0.0,0.0,0.0,0.0,0.0,0.0,0.0,0.0,0.0,0.0,0.0,0.0,0.0,0.0,0.0,0.0,0.0,0.0,0.0,0.0,0.0,0.0,0.0,0.0,0.0,0.0,0.0,0.0,0.0,0.0,0.0,0.0,0.0,0.0,0.0,0.0,0.0,0.0,0.0,0.0,0.0,0.0,0.0,0.0,0.0,0.0,0.0,0.0,0.0,0.0,0.0,0.0,0.0,0.0,0.0,0.0,0.0,0.0,0.0,0.0,0.0,0.0,0.0,0.0,0.0,0.0,0.0,0.0,0.0,0.0,0.0,0.0,0.0,0.0,0.0,0.0,0.0,0.0,0.0,0.0,0.0,0.0,0.0,0.0,0.0,0.6259,0.5867,0.5813,0.641,0.6607,0.6698,0.6698,0.6146,0.5993,0.0,0.0,0.0,0.0,0.0,0.0,0.0,0.0,0.0,0.0,0.0,0.0,0.0,0.0,0.0,0.0,0.0,0.0,0.0,0.0,0.0,0.0,0.0,0.0,0.0,0.0,0.0,0.0,0.0,0.0,0.0,0.0,0.0,0.0,0.0,0.0,0.0,0.0,0.0,0.0,0.0,0.0,0.0,0.0,0.0,0.0,0.0,0.0,0.0,0.0,0.0,0.0,0.0,0.0,0.0,0.0,0.0,0.0,0.0,0.0,0.0,0.0,0.0,0.0,0.0,0.0,0.0,0.0,0.0,0.0,0.0,0.0,0.0,0.0,0.0,0.0,0.0,0.0,0.0,0.0,0.0,0.0,0.0,0.0,0.0,0.0,0.0,0.0,0.0,0.0,0.0,0.0,0.0,0.0,0.0,0.0,0.0,0.0,0.0,0.0,0.0,0.0,0.0,0.6259,0.5772,0.5698,0.6396,0.6512,0.6539,0.6539,0.6084,0.6239,0.7374,0.0,0.0,0.0,0.0,0.0,0.0,0.0,0.0,0.0,0.0,0.0,0.0,0.0,0.0,0.0,0.0,0.0,0.0,0.0,0.0,0.0,0.0,0.0,0.0,0.0,0.0,0.0,0.0,0.0,0.0,0.0,0.0,0.0,0.0,0.0,0.0,0.0,0.0,0.0,0.0,0.0,0.0,0.0,0.0,0.0,0.0,0.0,0.0,0.0,0.0,0.0,0.0,0.0,0.0,0.0,0.0,0.0,0.0,0.0,0.0,0.0,0.0,0.0,0.0,0.0,0.0,0.0,0.0,0.0,0.0,0.0,0.0,0.0,0.0,0.0,0.0,0.0,0.0,0.0,0.0,0.0,0.0,0.0,0.0,0.0,0.0,0.0,0.0,0.0,0.0,0.0,0.0,0.0,0.0,0.0,0.0,0.0,0.0,0.0,0.0,0.0,0.0,0.6266,0.5789,0.5691,0.6322,0.6386,0.6386,0.6386,0.6027,0.6168,0.6951,0.0,0.0,0.0,0.0,0.0,0.0,0.0,0.0,0.0,0.0,0.0,0.0,0.0,0.0,0.0,0.0,0.0,0.0,0.0,0.0,0.0,0.0,0.0,0.0,0.0,0.0,0.0,0.0,0.0,0.0,0.0,0.0,0.0,0.0,0.0,0.0,0.0,0.0,0.0,0.0,0.0,0.0,0.0,0.0,0.0,0.0,0.0,0.0,0.0,0.0,0.0,0.0,0.0,0.0,0.0,0.0,0.0,0.0,0.0,0.0,0.0,0.0,0.0,0.0,0.0,0.0,0.0,0.0,0.0,0.0,0.0,0.0,0.0,0.0,0.0,0.0,0.0,0.0,0.0,0.0,0.0,0.0,0.0,0.0,0.0,0.0,0.0,0.0,0.0,0.0,0.0,0.0,0.0,0.0,0.0,0.0,0.0,0.0,0.0,0.0,0.0,0.0,0.6203,0.5867,0.5762,0.6213,0.6338,0.6338,0.6338,0.604,0.5933,0.596,0.0,0.0,0.0,0.0,0.0,0.0,0.0,0.0,0.0,0.0,0.0,0.0,0.0,0.0,0.0,0.0,0.0,0.0,0.0,0.0,0.0,0.0,0.0,0.0,0.0,0.0,0.0,0.0,0.0,0.0,0.0,0.0,0.0,0.0,0.0,0.0,0.0,0.0,0.0,0.0,0.0,0.0,0.0,0.0,0.0,0.0,0.0,0.0,0.0,0.0,0.0,0.0,0.0,0.0,0.0,0.0,0.0,0.0,0.0,0.0,0.582,0.5942,0.0,0.0,0.0,0.0,0.0,0.0,0.0,0.0,0.0,0.0,0.0,0.0,0.0,0.0,0.0,0.0,0.0,0.0,0.0,0.0,0.0,0.0,0.0,0.0,0.0,0.0,0.0,0.0,0.0,0.0,0.0,0.0,0.0,0.0,0.0,0.0,0.0,0.0,0.0,0.0,0.6203,0.5867,0.5762,0.6213,0.6338,0.6338,0.6338,0.6516,0.6772,0.6972,0.825,0.0,0.0,0.0,0.0,0.0,0.0,0.0,0.0,0.0,0.0,0.0,0.0,0.0,0.0,0.0,0.0,0.0,0.0,0.0,0.0,0.0,0.0,0.0,0.0,0.0,0.0,0.0,0.0,0.0,0.0,0.0,0.0,0.0,0.0,0.0,0.0,0.0,0.0,0.0,0.0,0.0,0.0,0.0,0.0,0.0,0.0,0.0,0.0,0.0,0.0,0.0,0.0,0.0,0.0,0.0,0.0,0.0,0.0,0.0,0.6173,0.6074,0.0,0.0,0.0,0.0,0.0,0.0,0.0,0.0,0.0,0.0,0.0,0.0,0.0,0.0,0.0,0.0,0.0,0.0,0.0,0.0,0.0,0.0,0.0,0.0,0.0,0.0,0.0,0.0,0.0,0.0,0.0,0.0,0.0,0.0,0.0,0.0,0.0,0.0,0.0,0.0,0.621,0.5928,0.5837,0.622,0.6338,0.623,0.6156,0.6799,0.717,0.7019,0.8283,0.0,0.0,0.0,0.0,0.0,0.0,0.0,0.0,0.0,0.0,0.0,0.0,0.0,0.0,0.0,0.0,0.0,0.0,0.0,0.0,0.0,0.0,0.0,0.0,0.0,0.0,0.0,0.0,0.0,0.0,0.0,0.0,0.0,0.0,0.0,0.0,0.0,0.0,0.0,0.0,0.0,0.0,0.0,0.0,0.0,0.0,0.0,0.0,0.0,0.0,0.0,0.0,0.0,0.661,0.6807,0.6932,0.7051,0.6983,0.677,0.6671,0.6359,0.5949,0.6318,0.0,0.0,0.0,0.0,0.0,0.0,0.0,0.0,0.0,0.0,0.0,0.0,0.0,0.0,0.0,0.0,0.0,0.0,0.0,0.0,0.0,0.0,0.8859,1.014,1.0533,1.0025,0.7601,0.0,0.0,0.0,0.0,0.0,0.0,0.0,0.0,0.0,0.0,0.0,0.6263,0.6,0.5949,0.623,0.6237,0.6252,0.63,0.7192,0.7602,0.7309,0.8381,0.9225,0.0,0.0,0.0,0.0,0.0,0.0,0.0,0.0,0.0,0.0,0.0,0.0,0.0,0.0,0.0,0.0,0.0,0.0,0.0,0.0,0.0,0.0,0.0,0.0,0.0,0.0,0.0,0.0,0.0,0.0,0.0,0.0,0.4948,0.4948,0.0,0.0,0.0,0.0,0.0,0.0,0.0,0.0,0.0,0.0,0.0,0.0,0.0,0.621,0.6352,0.6637,0.6732,0.6644,0.6817,0.6909,0.6929,0.6949,0.7004,0.7088,0.7204,0.0,0.639,0.6447,0.0,0.0,0.0,0.0,0.0,0.0,0.0,0.0,0.0,0.0,0.0,0.0,0.0,0.0,0.0,0.0,0.0,0.0,0.0,0.0,0.0,0.0,1.0156,1.0345,1.0705,1.0802,1.0459,1.002,0.9409,0.8171,0.7791,0.7618,0.0,0.0,0.0,0.0,0.0,0.0,0.6129,0.6023,0.6067,0.624,0.6139,0.6479,0.7507,0.8098,0.8769,0.9433,1.0251,1.0744,1.0804,1.014,0.0,0.0,0.0,0.0,0.0,0.0,0.0,0.0,0.0,0.0,0.0,0.0,0.0,0.0,0.0,0.0,0.0,0.0,0.0,0.0,0.0,0.0,0.0,0.0,0.0,0.0,0.0,0.0,0.0,0.5152,0.5169,0.5169,0.5298,0.542,0.0,0.0,0.0,0.0,0.0,0.0,0.0,0.0,0.0,0.6173,0.6393,0.658,0.6725,0.6861,0.7024,0.7207,0.7275,0.7394,0.7556,0.7645,0.7668,0.7655,0.7811,0.7628,0.721,0.7044,0.6926,0.6841,0.0,0.0,0.0,0.0,0.6793,0.6861,0.6949,0.6976,0.6987,0.7034,0.0,0.0,0.0,0.0,0.0,0.0,0.0,0.972,1.1403,1.1834,1.2049,1.2777,1.3254,1.3446,1.3446,1.3148,1.2237,1.0075,0.9523,0.9341,0.9304,0.8916,0.0,0.0,0.0,0.7385,0.7044,0.6453,0.6088,0.6244,0.6729,0.7199,0.7622,0.8849,0.9755,0.9968,1.0606,1.1062,1.1229,1.094,1.114,0.0,0.0,0.0,0.0,0.0,0.0,0.0,0.0,0.0,0.0,0.0,0.0,0.0,0.0,0.0,0.0,0.0,0.0,0.0,0.0,0.0,0.0,0.0,0.0,0.0,0.0,0.0,0.0,0.523,0.5304,0.5304,0.5504,0.5671,0.0,0.0,0.0,0.0,0.0,0.0,0.6186,0.6349,0.6495,0.6641,0.6865,0.7058,0.721,0.7288,0.7492,0.7824,0.7824,0.7919,0.8102,0.8218,0.8184,0.8048,0.8204,0.814,0.7902,0.757,0.7363,0.7255,0.7214,0.7224,0.7258,0.7258,0.7282,0.7322,0.7404,0.7431,0.7509,0.7695,0.7998,0.8178,0.8014,0.0,0.0,0.0,0.0,1.1388,1.2996,1.3458,1.3799,1.4817,1.5297,1.5504,1.5504,1.5337,1.443,1.1843,1.1251,1.1054,1.0899,1.0354,0.0,1.0167,0.9185,0.8416,0.8223,0.7434,0.6878,0.7088,0.7622,0.8044,0.8231,0.9421,1.0271,1.0361,1.0775,1.1056,1.1196,1.1349,1.153,1.175,0.0,0.0,0.0,0.0,0.0,0.0,0.0,0.0,0.0,0.0,0.0,0.0,0.0,0.0,0.0,0.0,0.0,0.0,0.0,0.0,0.0,0.0,0.0,0.0,0.0,0.0,0.0,0.0,0.0,0.5142,0.5525,0.0,0.0,0.0,0.0,0.6237,0.6356,0.6498,0.6658,0.6814,0.6959,0.7102,0.7529,0.7828,0.798,0.8262,0.8414,0.8438,0.8438,0.8374,0.8258,0.8269,0.8184,0.8048,0.8204,0.8262,0.8214,0.777,0.7584,0.7563,0.7417,0.7448,0.7577,0.7577,0.7662,0.776,0.7631,0.7587,0.7795,0.9246,1.0389,1.1324,1.1298,1.1091,0.0,0.0,1.1707,1.2558,1.2982,1.3983,1.501,1.5304,1.5591,1.5805,1.5805,1.5798,1.5145,1.3218,1.2689,1.2439,1.2088,0.0,1.1822,1.1498,1.1171,1.0605,0.9539,0.9281,0.9135,0.9145,0.8767,0.9019,1.0168,0.9961,1.0086,1.0883,1.1002,1.0875,1.0678,1.1136,1.143,1.145,1.1997,0.0,0.0,0.0,0.0,0.0,0.0,0.0,0.0,0.0,0.0,0.0,0.0,0.0,0.0,0.0,0.0,0.0,0.0,0.0,0.0,0.0,0.0,0.0,0.0,0.0,0.0,0.0,0.0,0.5823,0.6166,0.0,0.6576,0.6651,0.677,0.6959,0.6929,0.7051,0.7397,0.756,0.7712,0.7862,0.8113,0.8269,0.8323,0.8428,0.853,0.8625,0.8435,0.8367,0.8404,0.8313,0.8241,0.8197,0.8343,0.8408,0.8394,0.8235,0.8167,0.8163,0.8109,0.8119,0.8167,0.8167,0.8201,0.8235,0.8184,0.8167,0.8341,0.9563,1.0631,1.1548,1.1548,1.1434,1.1484,1.221,1.2878,1.3483,1.4314,1.5015,1.5545,1.5651,1.5752,1.5832,1.5832,1.5832,1.5637,1.4948,1.4424,1.4018,1.3728,1.3297,1.299,1.2866,1.2117,1.1406,1.0998,1.014,0.9586,0.9586,0.983,1.0183,1.0642,1.0914,1.1351,1.1824,1.1303,1.1116,1.139,1.1236,1.1323,1.1703,1.1917,1.2064,0.0,0.0,0.0,0.0,0.0,0.0,0.0,0.0,0.0,0.0,0.0,0.0,0.0,0.0,0.0,0.0,0.0,0.0,0.0,0.0,0.0,0.0,0.0,0.0,0.0,0.5728,0.6037,0.6437,0.6746,0.7004,0.72,0.7224,0.7329,0.758,0.755,0.7672,0.8018,0.8133,0.8235,0.834,0.8482,0.856,0.856,0.8611,0.8686,0.8784,0.8587,0.852,0.8557,0.8462,0.8391,0.835,0.8496,0.856,0.8564,0.8615,0.8635,0.8632,0.8577,0.8591,0.8742,0.9161,0.9371,0.9466,0.9824,1.0285,1.0707,1.1358,1.2349,1.3242,1.3242,1.3185,1.331,1.4074,1.4328,1.459,1.5351,1.5685,1.5832,1.5832,1.5832,1.5832,1.5832,1.5832,1.5832,1.5832,1.5518,1.5164,1.487,1.4496,1.4202,1.4108,1.3163,1.2506,1.2506,1.1541,1.0847,1.0847,1.1153,1.1316,1.1316,1.1663,1.1911,1.1997,1.1463,1.1309,1.1703,1.1343,1.1369,1.1857,1.1964,1.2058,1.2151,0.0,0.0,0.0,0.0,0.0,0.0,0.0,0.0,0.0,0.0,0.0,0.0,0.0,0.0,0.0,0.0,0.0,0.0,0.0,0.0,0.0,0.0,0.0,0.5817,0.6203,0.66,0.6905,0.7204,0.739,0.7397,0.7658,0.7889,0.8048,0.8201,0.8347,0.8489,0.8496,0.8496,0.8496,0.8638,0.8716,0.8716,0.8866,0.894,0.894,0.894,0.8859,0.871,0.871,0.8628,0.8499,0.8652,0.872,0.8737,0.8889,0.8954,0.8937,0.8777,0.8808,0.9047,1.0457,1.1105,1.1293,1.2481,1.3724,1.4862,1.4862,1.5683,1.6707,1.6707,1.6513,1.6286,1.6286,1.6079,1.5852,1.5852,1.5852,1.5845,1.5845,1.5838,1.5825,1.573,1.5737,1.5737,1.573,1.573,1.5644,1.5444,1.5398,1.5297,1.501,1.4476,0.0,1.4115,1.3607,1.3253,1.3253,1.2719,1.2351,1.2331,1.2071,1.1777,1.147,1.1443,1.1443,1.1443,1.143,1.1563,1.1864,1.2151,1.2171,1.1897,0.0,0.0,0.0,0.0,0.0,0.0,0.0,0.0,0.0,0.0,0.0,0.0,0.0,0.0,0.0,0.0,0.0,0.0,0.0,0.0,0.0,0.6051,0.6251,0.6149,0.6522,0.6912,0.7214,0.7509,0.7777,0.8004,0.8096,0.8252,0.8506,0.8567,0.8655,0.8804,0.8815,0.8815,0.8815,0.8855,0.8876,0.8876,0.8916,0.894,0.894,0.894,0.8859,0.871,0.871,0.8686,0.8655,0.8808,0.8933,0.9042,0.9195,0.9259,0.9235,0.8977,0.8903,0.8937,0.9375,1.0131,1.1097,1.1476,1.3133,1.493,1.493,1.5738,1.6707,1.6707,1.6653,1.6587,1.6587,1.6526,1.6466,1.6466,1.6313,1.6152,1.6152,1.5985,1.554,1.4657,1.5146,1.5248,1.3301,1.3782,1.4665,1.5259,1.5398,1.5297,1.501,1.4823,1.4723,1.4723,1.4396,1.4162,1.4162,1.3821,1.3427,1.2999,1.2886,1.2619,1.2091,1.1864,1.175,1.175,1.1543,1.1563,1.1864,1.2151,1.2371,0.0,0.0,0.0,0.0,0.0,0.0,0.0,0.0,0.0,0.0,0.0,0.0,0.0,0.0,0.0,0.0,0.0,0.0,0.0,0.0,0.0,0.0,0.6692,0.6959,0.7,0.7173,0.7431,0.7794,0.7987,0.8187,0.8431,0.8455,0.8554,0.8788,0.8862,0.8933,0.9025,0.9089,0.9123,0.9123,0.9062,0.9059,0.9123,0.9062,0.9062,0.9123,0.9123,0.9076,0.8991,0.8991,0.8991,0.8998,0.9086,0.9171,0.9256,0.9344,0.9381,0.9364,0.0,0.0,0.0,0.0,1.0781,1.1969,1.1969,1.2969,1.4351,1.4983,1.5621,1.6125,1.6125,1.6043,1.5852,1.5228,1.494,1.4856,1.4856,1.476,1.4568,1.4568,1.437,1.398,1.3204,1.359,1.3692,1.2237,1.2528,0.0,1.3785,1.4427,1.4946,1.5259,1.5224,1.5144,1.5144,1.489,1.4703,1.4703,1.4335,1.3948,1.3607,1.3353,0.0,0.0,0.0,1.1997,1.187,1.1817,0.0,0.0,0.0,1.2452,1.2822,1.2572,0.0,0.0,1.1243,1.0346,0.0,0.0,0.0,0.0,0.0,0.0,0.0,0.0,0.0,0.0,0.0,0.0,0.0,0.0,0.0,0.0,0.7465,0.7784,0.8099,0.8038,0.8092,0.8442,0.8499,0.856,0.8696,0.874,0.8815,0.8954,0.9096,0.9178,0.9178,0.9306,0.0,0.0,0.0,0.9245,0.9381,0.9245,0.9245,0.9381,0.9398,0.9398,0.9381,0.9398,0.9398,0.9384,0.9398,0.9408,0.9408,0.9422,0.9432,0.9429,0.9395,0.9289,0.9363,1.0453,1.1796,1.3053,1.3078,0.0,0.0,1.477,1.5204,1.5204,1.5204,1.5047,1.4554,1.3177,1.2725,1.2471,1.2471,1.2409,1.2234,1.2209,1.2043,1.1878,1.176,1.1755,1.1848,1.1556,1.1556,1.1658,1.1658,1.2813,1.4076,1.5146,1.513,1.4974,1.4974,1.4754,1.4689,1.4689,1.4145,0.0,1.3704,1.332,1.3035,1.2659,1.2437,1.2251,1.2031,1.2238,1.2351,1.2351,1.2385,1.2532,1.2876,1.2909,1.314,1.3585,1.1778,1.0441,0.0,0.0,0.0,0.0,0.0,0.0,0.0,0.0,0.0,0.0,0.0,0.0,0.0,0.0,0.0,0.7448,0.7865,0.8289,0.8706,0.8838,0.8791,0.8516,0.8591,0.8676,0.8706,0.8927,0.9079,0.911,0.9252,0.9337,0.9337,0.9364,0.9381,0.9381,0.9354,0.9351,0.9381,0.9351,0.9351,0.9384,0.9507,0.0,0.9384,0.951,0.9496,0.9388,0.951,0.9564,0.9574,0.969,0.9737,0.9713,0.9476,0.9289,0.9277,0.9599,1.0475,1.1559,1.1598,1.2426,1.3372,1.3588,1.3696,1.3696,1.3696,1.3665,0.0,1.3311,1.3173,1.3138,1.3138,1.2866,1.2655,1.2577,1.2365,1.186,1.0618,1.1165,1.1263,0.9114,0.9608,1.0386,1.0386,1.1458,1.2334,1.2624,1.2587,1.256,1.256,1.2518,1.2491,1.2491,1.2411,1.2128,1.1462,1.2214,1.2469,1.1774,1.235,1.2746,1.2939,1.2766,1.2735,1.2735,1.2906,1.306,1.312,1.3353,1.3654,1.3981,1.2265,1.1541,0.0,0.0,0.0,0.0,0.0,0.0,0.0,0.0,0.0,0.0,0.0,0.6312,0.6427,0.0,0.757,0.811,0.857,0.8818,0.9117,0.9222,0.9184,0.8957,0.9001,0.9045,0.9045,0.9181,0.9266,0.9266,0.9408,0.9496,0.9496,0.9561,0.9602,0.9602,0.9534,0.953,0.9602,0.953,0.953,0.9602,0.968,0.9676,0.9605,0.968,0.9673,0.9605,0.9683,0.9717,0.972,0.9791,0.9822,0.9805,0.9659,0.951,0.9381,0.9381,0.9738,1.0273,1.0265,1.0651,1.1334,1.2005,1.2186,1.2186,1.2186,1.2186,1.2077,1.1324,1.1105,1.1105,1.1105,1.0966,1.0695,1.0704,1.0543,1.0178,0.9388,0.9702,0.977,0.8449,0.8639,0.905,0.9137,0.9569,1.0386,1.1653,1.1945,1.1945,1.1945,1.2522,1.2909,1.2909,1.3385,1.3538,1.315,1.3209,1.3093,1.2544,1.2818,1.3053,1.32,1.306,1.2979,1.2979,1.3133,1.328,1.3427,1.3492,1.3794,1.4082,1.3271,1.2636,0.0,0.0,0.0,0.0,0.0,0.0,0.0,0.5183,0.5944,0.611,0.5761,0.5543,0.5933,0.6579,0.739,0.8697,0.9036,0.9327,0.9418,0.9456,0.9469,0.9466,0.9442,0.9415,0.9384,0.9432,0.9456,0.9429,0.9564,0.9649,0.9649,0.9758,0.9822,0.9822,0.971,0.9703,0.9819,0.9707,0.9707,0.9822,0.9822,0.9822,0.9822,0.9822,0.9822,0.9822,0.9822,0.9822,0.9822,0.9822,0.9822,0.9822,0.9822,0.9751,0.9635,0.951,0.9432,0.9367,0.9273,0.9201,0.9356,1.0441,1.07,1.068,1.0712,1.0724,1.0508,0.9307,0.8981,0.8974,0.8947,0.8849,0.8747,0.8716,0.8615,0.852,0.8489,0.8391,0.8343,0.8459,0.8289,0.8167,0.8289,0.8184,0.8763,1.0783,1.1165,1.1165,1.1165,1.2328,1.3097,1.3097,1.4081,1.4788,1.5021,1.433,1.3894,1.3831,1.3574,1.3407,1.346,1.3353,1.3293,1.3293,1.3353,1.3467,1.3559,1.3701,1.3854,1.4088,1.4088,1.3529,-0.0,-0.0,0.0083,0.0262,0.0345,0.0349,0.0,0.1937,0.3365,0.4131,0.4208,0.4087,0.3557,0.4017,0.5426,0.8356,0.9158,0.9402,0.9509,0.9603,0.9795,0.9774,0.9659,0.953,0.9395,0.9618,0.972,0.9595,0.9717,0.9798,0.9798,0.9812,0.9822,0.9822,0.9805,0.9805,0.9822,0.9805,0.9805,0.9822,0.9822,0.9822,0.9822,0.9822,0.9822,0.9822,0.9822,0.9822,0.9822,0.9822,0.9822,0.9822,0.9822,0.9812,0.9795,0.9778,0.9605,0.9398,0.9517,0.9381,0.9264,0.9356,0.9262,0.9182,0.9311,0.9465,0.9352,0.924,0.913,0.91,0.8974,0.8927,0.8879,0.8743,0.8699,0.8648,0.8513,0.8469,0.8462,0.8479,0.8455,0.8438,0.8455,0.834,0.8299,0.8453,0.8432,0.8432,0.8432,0.9604,1.0485,1.0485,1.1536,1.2693,1.3514,1.3397,1.3752,1.4816,1.4295,1.4102,1.4362,1.3874,1.3594,1.3594,1.3854,1.3874,1.3559,1.3908,1.4055,1.4088,1.4088,1.3984,-0.0,-0.0,-0.0,-0.0,-0.0,-0.0,-0.0,0.0546,0.1226,0.1628,0.1669,0.1574,0.1339,0.1482,0.2119,0.3471,0.5384,0.6807,0.6758,0.8502,0.9685,0.9493,0.9613,0.972,0.9646,0.9747,0.9795,0.9737,0.9788,0.9859,0.9947,0.9954,0.9954,0.9954,1.0042,1.0046,0.9954,1.0042,1.0042,0.9954,0.9954,0.9907,0.9822,0.9822,0.9822,0.9822,0.9822,0.9822,0.9822,0.9822,0.9822,0.9822,0.9822,0.9822,0.9822,0.9822,0.9744,0.9635,0.9615,0.9527,0.9405,0.9313,0.9245,0.9208,0.9266,0.9286,0.9286,0.9286,0.9286,0.9252,0.9103,0.9062,0.9025,0.8879,0.8845,0.8825,0.876,0.8676,0.8642,0.873,0.8604,0.8509,0.8601,0.8492,0.837,0.8306,0.815,0.8233,0.9019,1.0293,1.1653,1.3199,1.3884,1.4327,1.4785,1.4619,1.4656,1.5217,1.483,1.4649,1.477,1.4543,1.4416,1.4416,1.4536,1.4536,1.4409,1.4362,1.4429,1.4589,1.4249,1.4175,-0.0,-0.0,-0.0,-0.0,-0.0,-0.0,-0.0,-0.0,-0.0,-0.0,-0.0,-0.0,-0.0,-0.0,-0.0,-0.0,0.1939,0.3608,0.3577,0.7207,0.9458,0.857,0.9045,0.9553,0.9696,0.9774,0.9822,0.9822,0.9859,0.993,1.0042,1.009,1.0114,1.0114,1.0222,1.0226,1.0114,1.0222,1.0202,1.0049,1.0049,0.9968,0.9822,0.9822,0.9822,0.9822,0.9822,0.9822,0.9822,0.9822,0.9822,0.9822,0.9822,0.9822,0.9822,0.9822,0.9822,0.9805,0.9703,0.9642,0.9591,0.9479,0.9415,0.9388,0.9432,0.9445,0.9445,0.9445,0.9445,0.9408,0.9256,0.9215,0.9188,0.9086,0.9062,0.9049,0.9008,0.8913,0.8852,0.8923,0.876,0.8645,0.8754,0.8648,0.8547,0.8547,0.8326,0.8445,0.9394,1.0909,1.2818,1.5051,1.5635,1.5832,1.5832,1.5638,1.5518,1.5518,1.5244,1.5084,1.5084,1.4727,1.4591,1.4963,1.4681,1.4591,1.4963,1.475,1.475,1.495,1.4167,1.3857,-0.0,-0.0,-0.0,-0.0,-0.0,-0.0,-0.0,-0.0,-0.0,-0.0,-0.0,-0.0,-0.0,-0.0,-0.0,-0.0,0.0132,0.013,0.0127,0.5737,0.8995,0.6612,0.7718,0.8784,0.9381,0.9652,0.9822,0.9822,0.9958,1.0042,1.0049,1.0192,1.0273,1.0273,1.028,1.028,1.0273,1.028,1.0202,1.0049,1.0049,0.9968,0.9822,0.9822,0.9822,0.9822,0.9822,0.9822,0.9822,0.9822,0.9822,0.9822,0.9822,0.9822,0.9822,0.9822,0.9822,0.9822,0.9815,0.9724,0.9608,0.9605,0.9503,0.9408,0.9557,0.9602,0.9602,0.9602,0.9602,0.9568,0.9415,0.9374,0.9371,0.9367,0.9367,0.9327,0.9178,0.9144,0.91,0.8964,0.893,0.8927,0.893,0.8804,0.8703,0.8703,0.857,0.8418,0.8385,1.041,1.2431,1.3782,1.5045,1.5832,1.5832,1.5818,1.5812,1.5812,1.5545,1.5384,1.5384,1.3896,1.3664,1.4963,1.3755,1.3664,1.4963,1.4957,1.4957,1.4963,1.3646,1.295,-0.0,-0.0,-0.0,-0.0,-0.0,-0.0,-0.0,-0.0,-0.0,-0.0,-0.0,-0.0,-0.0,-0.0,-0.0,-0.0,-0.0,-0.0,-0.0,0.1913,0.4001,0.6081,0.783,0.881,0.8671,0.9245,0.9571,0.9673,0.991,1.0093,1.0198,1.0341,1.0422,1.0422,1.0521,1.0524,1.0422,1.0422,1.0395,1.0341,1.0144,0.9968,0.9822,0.9822,0.9822,0.9822,0.9822,0.9822,0.9822,0.9822,0.9822,0.9822,0.9822,0.9822,0.9822,0.9822,0.9822,0.9822,0.9822,0.9788,0.9751,0.9751,0.9717,0.9683,0.9734,0.9751,0.9751,0.9751,0.9751,0.9717,0.9571,0.9534,0.9507,0.9405,0.9381,0.9367,0.9317,0.9303,0.9259,0.911,0.9083,0.9052,0.8954,0.8896,0.8862,0.8862,0.9382,0.97,0.9749,1.1798,1.3543,1.3941,1.5063,1.5832,1.5832,1.5045,1.4555,1.4555,1.3611,1.3087,1.3087,1.2527,1.2484,1.2964,1.2484,1.2484,1.2964,1.2791,1.2797,1.2953,1.2156,1.1768,-0.0,-0.0,-0.0,-0.0,-0.0,-0.0,-0.0,-0.0,-0.0,-0.0,-0.0,-0.0,-0.0,-0.0,-0.0,-0.0,-0.0,-0.0,-0.0,-0.0,0.099,0.3721,0.6064,0.7746,0.8467,0.905,0.9445,0.9598,0.9883,1.0117,1.0273,1.0415,1.0517,1.0571,1.067,1.0673,1.0575,1.0571,1.0521,1.0412,1.0164,0.9968,0.9822,0.9822,0.9849,0.99,0.99,0.99,0.99,0.99,0.9869,0.9822,0.9822,0.9822,0.9822,0.9822,0.9822,0.9822,0.9822,0.9822,0.9822,0.9822,0.9822,0.9822,0.9822,0.9822,0.9822,0.9822,0.9822,0.9798,0.9707,0.9686,0.9659,0.9561,0.9537,0.9523,0.9473,0.9462,0.9418,0.9262,0.9191,0.9123,0.9032,0.8974,0.894,0.894,0.941,0.9887,0.982,1.1541,1.2867,1.3369,1.4425,1.5146,1.5146,1.4364,1.368,1.3204,1.2334,1.1945,1.1945,1.1463,1.1458,1.1848,1.1463,1.1463,1.1945,1.1697,1.1702,1.1843,1.1077,1.0792,-0.0,-0.0,-0.0,-0.0,-0.0,-0.0,-0.0,-0.0,-0.0,-0.0,-0.0,-0.0,-0.0,-0.0,-0.0,-0.0,-0.0,-0.0,-0.0,-0.0,-0.0,-0.0,0.2956,0.6025,0.8737,0.9195,0.9355,0.9622,0.9897,1.0131,1.0283,1.0426,1.0571,1.0714,1.0721,1.0721,1.0721,1.0721,1.0571,1.028,1.0131,0.9985,0.9842,0.9836,0.9917,1.0063,1.0063,1.0063,1.0059,1.0053,0.9964,0.9832,0.9825,0.9822,0.9822,0.9822,0.9822,0.9822,0.9822,0.9822,0.9822,0.9822,0.9822,0.9822,0.9822,0.9822,0.9822,0.9822,0.9822,0.9822,0.9822,0.9822,0.9822,0.9822,0.9822,0.9785,0.9649,0.9618,0.9574,0.9422,0.9262,0.915,0.9144,0.9028,0.894,0.894,0.894,0.8886,0.874,0.9588,1.0676,1.1983,1.3155,1.3776,1.3776,1.3782,1.3199,1.1848,1.175,1.1653,1.1653,1.0583,1.0489,1.1653,1.0485,1.0485,1.1653,1.1653,1.1653,1.1653,1.0485,0.9803,-0.0,-0.0,-0.0,-0.0,-0.0,-0.0,-0.0,-0.0,-0.0,-0.0,-0.0,-0.0,-0.0,-0.0,-0.0,-0.0,-0.0,-0.0,-0.0,-0.0,-0.0,-0.0,0.2957,0.627,0.9674,0.8358,0.8027,0.9808,1.0114,1.0287,1.0429,1.0578,1.068,1.0717,1.0721,1.0721,1.0721,1.0721,1.0571,1.028,1.0239,1.0202,1.0161,1.0042,1.0073,1.0222,1.0222,1.0222,1.0212,1.0097,1.0025,0.9978,0.9866,0.9822,0.9822,0.9822,0.9822,0.9822,0.9822,0.9822,0.9822,0.9822,0.9822,0.9822,0.9822,0.9822,0.9822,0.9822,0.9822,0.9822,0.9822,0.9822,0.9822,0.9822,0.9822,0.9812,0.9774,0.9768,0.9724,0.9581,0.9337,0.912,0.9011,0.8964,0.894,0.894,0.894,0.8923,0.8886,0.9765,1.0471,1.078,1.1776,1.2431,1.2431,1.1556,1.0872,1.0489,0.9509,0.9019,0.9019,0.8726,0.8627,0.9019,0.8627,0.8627,0.9019,0.9019,0.9019,0.9019,0.8627,0.8506,-0.0,-0.0,-0.0,-0.0,-0.0,-0.0,-0.0,-0.0,-0.0,-0.0,-0.0,-0.0,-0.0,-0.0,-0.0,-0.0,-0.0,-0.0,-0.0,-0.0,-0.0,-0.0,0.1637,0.4787,0.9992,0.9126,0.8781,1.0253,1.0273,1.0341,1.0483,1.0571,1.0649,1.0717,1.0721,1.0721,1.0721,1.0721,1.0605,1.0375,1.0375,1.0341,1.0276,1.0188,1.0232,1.0375,1.0375,1.0375,1.0361,1.0212,1.011,1.0032,0.988,0.9822,0.9822,0.9822,0.9822,0.9822,0.9822,0.9822,0.9822,0.9822,0.9822,0.9822,0.9822,0.9822,0.9822,0.9822,0.9822,0.9822,0.9822,0.9822,0.9822,0.9822,0.9822,0.9822,0.9822,0.9822,0.9758,0.9551,0.9371,0.9184,0.8974,0.894,0.894,0.894,0.894,0.894,0.894,0.9304,0.9823,1.0339,1.0815,1.1072,1.1072,1.0386,0.9702,0.9118,0.8432,0.8038,0.8038,0.8038,0.8038,0.8038,0.8038,0.8038,0.8038,0.8038,0.8045,0.7955,0.7955,0.7955,-0.0,-0.0,-0.0,-0.0,-0.0,-0.0,-0.0,-0.0,-0.0,-0.0,-0.0,-0.0,-0.0,-0.0,-0.0,-0.0,0.0,-0.0,-0.0,-0.0,-0.0,-0.0,-0.0,0.2674,0.934,1.026,1.0558,1.0678,1.0422,1.0392,1.0517,1.0521,1.0582,1.0717,1.0721,1.0721,1.0721,1.0721,1.0653,1.0521,1.0504,1.0439,1.0337,1.0297,1.0368,1.0521,1.05,1.0504,1.051,1.0348,1.0202,1.0063,0.989,0.9822,0.9822,0.9822,0.9822,0.9822,0.9822,0.9822,0.9822,0.9822,0.9822,0.9822,0.9822,0.9822,0.9822,0.9822,0.9822,0.9822,0.9822,0.9822,0.9822,0.9822,0.9822,0.9822,0.9822,0.9822,0.9734,0.9439,0.9381,0.9286,0.8991,0.894,0.894,0.894,0.894,0.894,0.894,0.8689,0.892,1.0032,0.994,0.9731,0.9706,0.9706,0.9217,0.8038,0.8038,0.8038,0.8038,0.8038,0.8038,0.8038,0.8038,0.8038,0.8038,0.8038,0.7952,0.7972,0.7972,0.7775,-0.0,-0.0,-0.0,-0.0,-0.0,-0.0,-0.0,-0.0,0.0,-0.0,-0.0,-0.0,-0.0,-0.0,-0.0,-0.0,-0.0,-0.0,-0.0,-0.0,-0.0,0.0,-0.0,0.1699,0.5893,0.8896,1.0711,1.069,1.066,1.0656,1.068,1.068,1.0694,1.0721,1.0721,1.0721,1.0721,1.0721,1.0707,1.068,1.0551,1.0544,1.0636,1.0392,1.0426,1.0673,1.0548,1.0565,1.066,1.0392,1.0263,1.0212,0.993,0.9822,0.9822,0.9822,0.9822,0.9822,0.9822,0.9822,0.9822,0.9822,0.9822,0.9822,0.9822,0.9822,0.9822,0.9822,0.9822,0.9822,0.9822,0.9822,0.9822,0.9822,0.9822,0.9822,0.9822,0.9822,0.9734,0.9439,0.9381,0.9286,0.8991,0.894,0.894,0.894,0.894,0.894,0.894,0.8781,0.8728,0.8808,0.8738,0.8477,0.8343,0.8333,0.8237,0.8041,0.8038,0.8038,0.8038,0.8038,0.8038,0.8038,0.8038,0.8038,0.8038,0.8038,0.7952,0.7972,0.7972,0.6851,-0.0,-0.0,-0.0,-0.0,-0.0,-0.0,-0.0,0.0,0.0,-0.0,-0.0,-0.0,-0.0,-0.0,0.0,-0.0,-0.0,-0.0,-0.0,-0.0,-0.0,-0.0,0.2955,0.52,0.5431,0.8456,1.0464,1.0711,1.0646,1.0636,1.0717,1.0721,1.0721,1.0721,1.0721,1.0721,1.0721,1.0721,1.0721,1.0717,1.0646,1.0649,1.0714,1.0575,1.0585,1.0717,1.0643,1.0653,1.0697,1.0402,1.028,1.0249,0.9941,0.9822,0.9822,0.9822,0.9822,0.9822,0.9822,0.9822,0.9822,0.9822,0.9822,0.9822,0.9822,0.9822,0.9822,0.9822,0.9822,0.9822,0.9822,0.9822,0.9822,0.9822,0.9822,0.9822,0.9822,0.9822,0.9758,0.954,0.95,0.9405,0.9103,0.9049,0.9025,0.895,0.894,0.894,0.894,0.8804,0.8652,0.8499,0.8357,0.8208,0.8052,0.8038,0.8038,0.8038,0.8038,0.8038,0.8038,0.8038,0.8038,0.8038,0.8038,0.8038,0.8038,0.8038,0.7955,0.7982,0.6545,0.4524,-0.0,-0.0,-0.0,-0.0,-0.0,-0.0,-0.0,-0.0,0.0,-0.0,-0.0,-0.0,-0.0,-0.0,-0.0,0.0,-0.0,-0.0,-0.0,-0.0,0.0572,0.1888,0.6604,0.8872,0.6626,0.861,1.028,1.0653,1.0561,1.0558,1.0711,1.0721,1.0721,1.0721,1.0721,1.0721,1.0721,1.0721,1.0721,1.0721,1.0687,1.0687,1.0717,1.0619,1.0629,1.0714,1.0619,1.0612,1.0649,1.0351,1.0232,1.0205,0.9927,0.9822,0.9822,0.9822,0.9822,0.9822,0.9822,0.9822,0.9822,0.9822,0.9822,0.9822,0.9822,0.9822,0.9822,0.9822,0.9822,0.9822,0.9822,0.9822,0.9822,0.9822,0.9822,0.9822,0.9822,0.9822,0.9771,0.9595,0.9561,0.9462,0.9161,0.9106,0.9069,0.8957,0.894,0.894,0.894,0.8832,0.8686,0.8503,0.8357,0.8208,0.8052,0.8038,0.8038,0.8038,0.8038,0.8038,0.8038,0.8038,0.8038,0.8038,0.8038,0.8038,0.8038,0.8038,0.7955,0.7985,0.5432,0.3015,-0.0,-0.0,-0.0,-0.0,-0.0,-0.0,-0.0,0.0,-0.0,-0.0,-0.0,-0.0,-0.0,-0.0,-0.0,-0.0,0.0,-0.0,-0.0,-0.0,0.2171,0.8239,0.0,0.9833,0.9954,1.0068,1.0236,1.05,1.05,1.0558,1.0711,1.0721,1.0721,1.0721,1.0721,1.0721,1.0721,1.0721,1.0721,1.0717,1.0578,1.0585,1.0707,1.0297,1.0334,1.0697,1.029,1.0266,1.049,1.0192,1.007,1.0053,0.9886,0.9822,0.9822,0.9822,0.9822,0.9822,0.9822,0.9822,0.9822,0.9822,0.9822,0.9822,0.9822,0.9822,0.9822,0.9822,0.9822,0.9822,0.9822,0.9822,0.9822,0.9822,0.9822,0.9822,0.9822,0.9822,0.9737,0.9456,0.9401,0.931,0.9008,0.8957,0.8954,0.894,0.894,0.894,0.894,0.8927,0.8804,0.8513,0.8357,0.8208,0.8052,0.8038,0.8038,0.8038,0.8038,0.8038,0.8038,0.8038,0.8038,0.8038,0.8038,0.8038,0.8038,0.8038,0.7952,0.7975,0.6132,0.4718,-0.0,-0.0,-0.0,-0.0,-0.0,-0.0,-0.0,0.0,-0.0,-0.0,-0.0,-0.0,-0.0,-0.0,-0.0,0.0,0.0,0.0,-0.0,-0.0,0.249,0.8971,0.9836,0.9916,1.0139,1.0009,0.9948,1.0215,1.0392,1.0517,1.0578,1.067,1.0677,1.0585,1.0582,1.0582,1.0582,1.0497,1.0497,1.0582,1.0521,1.048,1.0453,1.0358,1.0365,1.0446,1.0266,1.0256,1.0348,1.0137,1.0049,1.0032,0.988,0.9822,0.9822,0.9822,0.9822,0.9822,0.9822,0.9822,0.9822,0.9822,0.9822,0.9822,0.9822,0.9822,0.9822,0.9822,0.9822,0.9822,0.9822,0.9822,0.9822,0.9822,0.9822,0.9822,0.9822,0.9822,0.9761,0.9557,0.9517,0.9422,0.912,0.9066,0.9039,0.895,0.894,0.894,0.894,0.8777,0.8652,0.8621,0.8486,0.8299,0.8062,0.8038,0.8038,0.8038,0.8038,0.8038,0.8038,0.8038,0.8038,0.8038,0.8038,0.8038,0.8038,0.8038,0.7952,0.7972,0.7253,0.6748,-0.0,-0.0,-0.0,-0.0,-0.0,-0.0,0.0,0.0,-0.0,-0.0,-0.0,-0.0,-0.0,-0.0,-0.0,0.0,0.0,-0.0,-0.0,-0.0,0.2343,0.8788,0.9582,0.9701,0.9988,0.9951,0.9914,0.9978,1.0219,1.0382,1.0426,1.0571,1.0602,1.0493,1.0453,1.0429,1.0429,1.0331,1.0351,1.049,1.0449,1.0399,1.0344,1.0354,1.0331,1.0276,1.0185,1.0171,1.0202,1.0046,0.9981,0.9971,0.9863,0.9822,0.9822,0.9822,0.9822,0.9822,0.9822,0.9822,0.9822,0.9822,0.9822,0.9822,0.9822,0.9822,0.9822,0.9822,0.9822,0.9822,0.9822,0.9822,0.9822,0.9822,0.9822,0.9822,0.9822,0.9788,0.9717,0.9571,0.9507,0.9395,0.9133,0.9089,0.9055,0.8954,0.894,0.894,0.894,0.871,0.8574,0.8635,0.8509,0.8336,0.8126,0.8065,0.8038,0.8038,0.8038,0.8038,0.8038,0.8038,0.8038,0.8038,0.8038,0.8038,0.8038,0.8038,0.8048,0.7962,0.7962,0.7969,-0.0,-0.0,-0.0,-0.0,-0.0,-0.0,0.0,0.0,-0.0,-0.0,-0.0,-0.0,-0.0,-0.0,-0.0,-0.0,0.0,0.0,-0.0,-0.0,0.2189,0.8227,0.8945,0.9182,0.9743,0.993,0.9985,0.9836,0.9968,1.012,1.0276,1.0419,1.0493,1.049,1.0354,1.0283,1.0283,1.028,1.0351,1.049,1.0348,1.0354,1.048,1.0188,1.0137,1.0263,0.9958,0.9914,1.0039,0.9886,0.9822,0.9822,0.9822,0.9822,0.9822,0.9822,0.9822,0.9822,0.9822,0.9822,0.9822,0.9822,0.9822,0.9822,0.9822,0.9822,0.9822,0.9822,0.9822,0.9822,0.9822,0.9822,0.9822,0.9822,0.9822,0.9822,0.9822,0.971,0.9564,0.9412,0.9262,0.9113,0.8964,0.894,0.894,0.894,0.894,0.894,0.894,0.8804,0.8652,0.8499,0.8357,0.8272,0.8269,0.813,0.8038,0.8038,0.8038,0.8038,0.8038,0.8038,0.8038,0.8038,0.8038,0.8038,0.8038,0.8038,0.8038,0.8038,0.8038,0.8038,-0.0,-0.0,-0.0,-0.0,-0.0,-0.0,-0.0,0.0,-0.0,-0.0,-0.0,-0.0,-0.0,-0.0,-0.0,-0.0,-0.0,0.0,0.0,0.0,0.0,0.9086,0.9222,0.9318,0.9803,0.9815,0.9873,0.9825,0.9964,1.007,1.012,1.0266,1.0392,1.0487,1.0354,1.028,1.028,1.0073,1.0042,1.0188,1.0144,1.009,1.0036,1.0046,1.0019,0.9961,0.9863,0.9849,0.989,0.9839,0.9822,0.9822,0.9822,0.9822,0.9822,0.9822,0.9822,0.9822,0.9822,0.9822,0.9822,0.9822,0.9822,0.9822,0.9822,0.9822,1.0061,1.114,1.1499,1.1499,1.1499,1.1499,1.1137,1.0058,0.9822,0.9822,0.9822,0.971,0.9564,0.9412,0.9259,0.9106,0.8964,0.894,0.894,0.894,0.894,0.894,0.894,0.8804,0.8693,0.8645,0.8418,0.8228,0.8123,0.8069,0.8038,0.8038,0.8038,0.8038,0.8038,0.8038,0.8038,0.8038,0.8038,0.8038,0.8038,0.8038,0.8038,0.8038,0.8038,0.8038,0.0,-0.0,-0.0,-0.0,-0.0,0.0,0.0,-0.0,-0.0,-0.0,-0.0,-0.0,-0.0,0.1317,0.1884,0.0245,-0.0,0.2098,0.8044,0.8897,0.8983,0.9238,0.9412,0.9493,0.9652,0.9754,0.9822,0.9822,0.991,0.9988,1.0046,1.0141,1.0259,1.0409,1.027,1.0164,1.0107,0.9917,0.9897,1.0049,1.0049,0.9998,0.991,1.0005,0.9964,0.9822,0.9822,0.9822,0.0,0.9822,0.9822,0.9822,0.9822,0.9822,0.9822,0.9822,0.9822,0.9822,0.9822,0.9822,0.9822,0.9822,0.9822,0.9822,0.9822,0.9822,1.0061,1.102,1.1257,1.1257,1.1257,1.1257,1.102,1.0061,0.9822,0.9822,0.9822,0.9663,0.9496,0.9401,0.9215,0.9045,0.8954,0.894,0.894,0.894,0.894,0.894,0.894,0.8754,0.8648,0.8703,0.8394,0.8167,0.813,0.8072,0.8038,0.8038,0.8038,0.8038,0.8038,0.8038,0.8038,0.8038,0.8038,0.8038,0.8038,0.8038,0.8038,0.8038,0.8038,0.8038,0.0,-0.0,-0.0,-0.0,-0.0,0.0,0.0,0.0,0.0,-0.0,-0.0,-0.0,-0.0,0.3417,0.4991,0.11,0.049,0.2541,0.8016,0.889,0.8962,0.8916,0.9411,0.9745,0.9374,0.9649,0.9822,0.9822,0.9822,0.9883,1.0025,1.0042,1.011,1.0243,1.0117,0.9981,0.9839,0.9825,0.9893,1.0032,1.0032,1.0032,1.0032,1.0032,0.9958,0.9822,0.9822,0.9822,0.9822,0.9822,0.9822,0.9822,0.9822,0.9822,0.9822,0.9822,0.9822,0.9819,0.9808,0.9812,0.9822,0.9822,0.9822,0.9822,0.9822,0.9822,0.9819,0.994,0.994,0.994,0.994,0.9933,0.9926,0.9819,0.9815,0.9805,0.9805,0.9581,0.9381,0.9381,0.9144,0.8944,0.8954,0.8947,0.894,0.894,0.894,0.894,0.894,0.8693,0.8567,0.8696,0.833,0.8126,0.8258,0.813,0.8038,0.8038,0.8038,0.8038,0.8038,0.8038,0.8038,0.8038,0.8038,0.8038,0.8038,0.8038,0.8038,0.8038,0.8038,0.8038,-0.0,0.0,-0.0,-0.0,-0.0,-0.0,0.0,0.0,0.0,0.0,0.0,0.0,-0.0,0.3455,0.5992,0.4953,0.5541,0.6606,0.8059,0.8871,0.9151,0.8927,0.9466,0.9737,0.9401,0.9649,0.9822,0.9822,0.9822,0.9836,0.9873,0.9985,1.0012,0.993,1.0008,1.0032,0.9995,0.988,0.9839,0.9876,0.9876,0.9876,0.9876,0.9876,0.9852,0.9822,0.9822,0.9822,0.9822,0.9822,0.9822,0.9822,0.9822,0.9822,0.9822,0.9822,0.9822,0.9805,0.9696,0.973,0.9822,0.9822,0.9822,0.9822,0.9822,0.9822,1.0061,1.1257,1.1615,1.1615,1.1615,1.1515,1.1209,1.003,0.9737,0.9659,0.9659,0.9513,0.9381,0.9381,0.9144,0.8974,0.9083,0.9011,0.894,0.894,0.894,0.894,0.894,0.8889,0.8821,0.872,0.8526,0.837,0.8279,0.813,0.8038,0.8038,0.8038,0.8038,0.8038,0.8038,0.8038,0.8038,0.8038,0.8038,0.8038,0.8038,0.8038,0.8038,0.8038,0.8038,-0.0,-0.0,-0.0,-0.0,-0.0,-0.0,0.0,0.0,0.0,0.0,0.0,0.0,0.0,0.0,0.0,0.6267,0.6515,0.694,0.8027,0.8638,0.9085,0.9008,0.9391,0.9622,0.9588,0.9727,0.9822,0.9822,0.9822,0.9822,0.9822,0.99,0.9907,0.9822,0.99,0.9944,0.9944,0.9863,0.9822,0.9822,0.9822,0.9822,0.9822,0.9822,0.9822,0.9822,0.9822,0.9822,0.9822,0.9822,0.9822,0.9822,0.9822,0.9822,0.9822,0.9822,0.9781,0.9713,0.9635,0.9659,0.9724,0.9724,0.9768,0.9822,0.9822,0.9774,0.9854,1.088,1.114,1.114,1.114,1.1013,1.0695,1.0027,0.9713,0.9608,0.9608,0.9544,0.9466,0.9395,0.9195,0.9062,0.914,0.9032,0.894,0.894,0.894,0.8944,0.8954,0.8793,0.8275,0.6867,0.7787,0.8381,0.8286,0.8133,0.8038,0.8038,0.8038,0.8038,0.8038,0.8038,0.8038,0.8038,0.8038,0.8038,0.8038,0.8038,0.8038,0.8038,0.8038,0.8038,-0.0,-0.0,0.0134,0.0579,0.0703,0.0645,0.0,0.0,0.0,0.0,0.0,0.0,0.0,0.4638,0.0,0.0,0.5996,0.6037,0.8179,0.8539,0.8848,0.9079,0.9313,0.952,0.97,0.9781,0.9822,0.9822,0.9822,0.9822,0.9822,0.9822,0.9822,0.9822,0.9822,0.9822,0.9822,0.9822,0.9822,0.9822,0.9822,0.9822,0.9822,0.9822,0.9822,0.9822,0.9822,0.9822,0.9819,0.9798,0.9788,0.9788,0.9788,0.9788,0.9791,0.9812,0.973,0.9605,0.9585,0.9574,0.9578,0.9602,0.9703,0.9822,0.9822,0.9737,0.9666,0.9788,0.9805,0.9785,0.9758,0.9663,0.9612,0.9754,0.9659,0.9554,0.9598,0.9591,0.9537,0.9405,0.9259,0.9154,0.9154,0.9032,0.894,0.894,0.894,0.8947,0.8853,0.85,0.7425,0.5356,0.6995,0.8316,0.835,0.816,0.8052,0.8072,0.8052,0.8038,0.8038,0.8038,0.8038,0.8038,0.8038,0.8038,0.8038,0.8038,0.8038,0.8038,0.8038,0.8038,-0.0,-0.0,0.0614,0.3202,0.3793,0.353,0.0,0.0,0.0,0.0,0.0,0.0,0.0,0.4971,0.6284,0.0,0.7454,0.8031,0.8991,0.9106,0.9035,0.8977,0.9435,0.9622,0.9289,0.9598,0.9822,0.9822,0.9822,0.9822,0.9822,0.9822,0.9822,0.9822,0.9822,0.9822,0.9822,0.9822,0.9822,0.9822,0.9822,0.9822,0.9822,0.9822,0.9822,0.9822,0.9822,0.9822,0.9812,0.9693,0.9642,0.9642,0.9642,0.9642,0.9656,0.9778,0.973,0.9591,0.9462,0.9415,0.9439,0.9568,0.9703,0.9822,0.9822,0.9805,0.9791,0.9815,0.9734,0.9612,0.9483,0.9432,0.9456,0.9605,0.9429,0.9293,0.9554,0.9507,0.9408,0.9388,0.9259,0.9154,0.9154,0.9032,0.894,0.894,0.894,0.894,0.8944,0.7261,0.6673,0.8109,0.8114,0.8183,0.8625,0.8272,0.8096,0.8225,0.8113,0.8038,0.8038,0.8038,0.8038,0.8038,0.8038,0.8038,0.8038,0.8038,0.8038,0.8038,0.8038,0.8038,0.1995,0.1242,0.0762,0.4033,0.5155,0.5209,0.4381,0.0,0.0,0.0,0.0,0.0,0.0,0.0,0.6873,0.741,0.7894,0.8411,0.8772,0.8896,0.892,0.8937,0.932,0.9503,0.9296,0.9605,0.9754,0.9595,0.9659,0.9707,0.9707,0.9707,0.9741,0.9819,0.9822,0.9822,0.9822,0.9822,0.9822,0.9822,0.9822,0.9822,0.9822,0.9822,0.9778,0.971,0.9788,0.973,0.9585,0.9602,0.9561,0.9486,0.9486,0.9486,0.9486,0.9466,0.9418,0.9344,0.9195,0.9191,0.9269,0.934,0.9462,0.9585,0.9585,0.9585,0.9564,0.9483,0.9534,0.9612,0.9615,0.95,0.9439,0.9669,0.9557,0.9439,0.9581,0.9554,0.9479,0.9398,0.9259,0.9154,0.9154,0.9032,0.894,0.894,0.894,0.8944,0.8846,0.8002,0.774,0.863,0.8448,0.8451,0.8604,0.8404,0.8241,0.815,0.8079,0.8038,0.8038,0.8038,0.8038,0.8038,0.8038,0.8038,0.8038,0.8038,0.8038,0.8038,0.8038,0.8038,0.3421,0.256,0.1687,0.4381,0.0,0.5908,0.5631,0.0,0.0,0.0,0.0,0.0,0.0,0.6803,0.7132,0.7736,0.8119,0.8394,0.8608,0.874,0.8855,0.8974,0.9222,0.9381,0.9381,0.9585,0.9639,0.9449,0.951,0.9557,0.9557,0.9557,0.9605,0.9717,0.9717,0.9717,0.9717,0.9717,0.9751,0.9822,0.9788,0.9771,0.9771,0.9734,0.9659,0.9561,0.9673,0.9591,0.9388,0.9469,0.9435,0.9327,0.9327,0.9351,0.9361,0.9208,0.9154,0.913,0.8988,0.9032,0.9154,0.9154,0.9256,0.9381,0.9381,0.9381,0.9357,0.9239,0.9351,0.952,0.9595,0.9473,0.9384,0.9608,0.9557,0.9473,0.954,0.953,0.9466,0.9351,0.9235,0.9144,0.911,0.9011,0.894,0.894,0.894,0.8947,0.8853,0.8823,0.8776,0.86,0.8625,0.8528,0.8625,0.8526,0.8408,0.8113,0.8092,0.8075,0.8041,0.8038,0.8038,0.8038,0.8038,0.8038,0.8038,0.8038,0.8038,0.8038,0.8038,0.8038,0.2702,0.3252,0.431,0.4733,0.0,0.0,0.582,0.5789,0.0,0.6495,0.0,0.0,0.0,0.7021,0.7465,0.7943,0.8272,0.8615,0.9045,0.9113,0.9123,0.9137,0.9279,0.9381,0.9381,0.9401,0.9462,0.9585,0.9473,0.9398,0.9398,0.9398,0.9401,0.9412,0.9412,0.9412,0.9412,0.9412,0.9551,0.9819,0.9686,0.9625,0.9618,0.9479,0.9408,0.9398,0.9408,0.9401,0.9371,0.9239,0.9178,0.9167,0.9167,0.9256,0.9361,0.9208,0.9154,0.913,0.8988,0.9032,0.9154,0.9154,0.9256,0.9381,0.9381,0.9381,0.9381,0.9367,0.9276,0.9157,0.9035,0.9086,0.9174,0.9195,0.9093,0.9062,0.9337,0.9286,0.9184,0.9171,0.9161,0.911,0.8977,0.8947,0.894,0.894,0.894,0.894,0.894,0.8818,0.8781,0.8913,0.8672,0.8496,0.8486,0.8615,0.8567,0.8272,0.8255,0.8187,0.8045,0.8038,0.8038,0.8038,0.8038,0.8038,0.8038,0.8038,0.8038,0.8038,0.8038,0.8038,0.3764,0.4314,0.5009,0.4874,0.0,0.0,0.0,0.0,0.6166,0.6725,0.6959,0.0,0.0,0.7485,0.7841,0.8011,0.8367,0.8682,0.8855,0.9035,0.912,0.9028,0.9232,0.931,0.9123,0.9273,0.9327,0.9201,0.9137,0.9144,0.9235,0.9154,0.9191,0.9374,0.9381,0.9381,0.9381,0.9381,0.9391,0.9405,0.9449,0.9466,0.9466,0.9408,0.933,0.9245,0.934,0.9276,0.911,0.914,0.91,0.9018,0.9018,0.9055,0.91,0.9042,0.9018,0.9011,0.8957,0.8974,0.9018,0.9018,0.9059,0.9106,0.9106,0.9167,0.9222,0.913,0.913,0.9161,0.9201,0.9184,0.9178,0.9273,0.9256,0.9245,0.9357,0.9262,0.9154,0.9154,0.9083,0.9001,0.8947,0.894,0.894,0.894,0.894,0.894,0.894,0.8889,0.8872,0.893,0.8835,0.8767,0.8767,0.8818,0.8723,0.8421,0.8319,0.8201,0.8045,0.8038,0.8038,0.8038,0.8038,0.8038,0.8038,0.8038,0.8038,0.8038,0.8038,0.8038,0.4477,0.4808,0.5054,0.0,0.0,0.0,0.0,0.0,0.6495,0.7085,0.7248,0.7346,0.7546,0.7756,0.7929,0.8024,0.8377,0.8655,0.8703,0.8886,0.8977,0.8879,0.9045,0.911,0.8954,0.9123,0.9178,0.9018,0.892,0.893,0.9079,0.8899,0.891,0.9161,0.9171,0.9147,0.9096,0.9144,0.9093,0.8944,0.9045,0.9147,0.9242,0.9242,0.9157,0.9018,0.9123,0.9025,0.8801,0.8899,0.8882,0.8794,0.8794,0.8794,0.8794,0.8794,0.8825,0.8866,0.8866,0.8899,0.894,0.894,0.894,0.894,0.894,0.9008,0.9066,0.8964,0.9011,0.911,0.9215,0.9164,0.911,0.9218,0.9242,0.9242,0.9242,0.9157,0.9086,0.9086,0.9008,0.894,0.894,0.894,0.894,0.894,0.894,0.894,0.894,0.894,0.894,0.894,0.894,0.894,0.894,0.894,0.8808,0.8503,0.8391,0.8248,0.8048,0.8038,0.8038,0.8038,0.8038,0.8038,0.8038,0.8038,0.8038,0.8038,0.8038,0.8038,0.4522,0.4519,0.456,0.0,0.0,0.0,0.0,0.0,0.6725,0.7624,0.7699,0.7692,0.7984,0.7801,0.7699,0.7991,0.8286,0.8533,0.8682,0.8706,0.871,0.871,0.871,0.8767,0.892,0.8933,0.8994,0.9137,0.8872,0.8774,0.8927,0.8648,0.855,0.8703,0.871,0.8635,0.8482,0.8632,0.8632,0.8479,0.8482,0.8638,0.8933,0.8933,0.8852,0.871,0.871,0.8621,0.8482,0.8482,0.8482,0.8482,0.8482,0.8482,0.8482,0.8482,0.8577,0.871,0.871,0.8808,0.8933,0.8933,0.8933,0.8933,0.8933,0.8933,0.8933,0.8937,0.8937,0.8937,0.894,0.894,0.894,0.894,0.894,0.894,0.894,0.894,0.894,0.894,0.894,0.894,0.894,0.894,0.894,0.894,0.894,0.894,0.894,0.894,0.894,0.894,0.894,0.894,0.894,0.894,0.8808,0.8503,0.8482,0.835,0.8052,0.8038,0.8038,0.8038,0.8038,0.8038,0.8038,0.8038,0.8038,0.8038,0.8038,0.8038,0.4519,0.4619,0.0,0.0,0.0,0.0,0.0,0.0,0.0,0.0,0.7709,0.7777,0.7862,0.7896,0.7902,0.7882,0.8133,0.835,0.8394,0.8486,0.855,0.855,0.855,0.8567,0.8615,0.8618,0.8679,0.8832,0.8567,0.8513,0.8764,0.8496,0.8397,0.8547,0.855,0.8526,0.8482,0.8526,0.8476,0.8333,0.8435,0.853,0.8618,0.8618,0.8594,0.855,0.855,0.8523,0.8482,0.8482,0.8482,0.8482,0.8482,0.8482,0.8482,0.8482,0.8509,0.855,0.855,0.8577,0.8618,0.8618,0.8618,0.8618,0.8618,0.8618,0.8638,0.8747,0.8777,0.8808,0.893,0.8853,0.885,0.8944,0.895,0.8846,0.8944,0.894,0.894,0.894,0.894,0.894,0.894,0.894,0.894,0.894,0.894,0.894,0.894,0.894,0.894,0.894,0.894,0.894,0.894,0.894,0.8855,0.8655,0.854,0.835,0.8052,0.8038,0.8038,0.8038,0.8038,0.8038,0.8038,0.8038,0.8038,0.8038,0.8038,0.8038,0.4591,0.0,0.0,0.0,0.0,0.623,0.6644,0.0,0.0,0.0,0.7834,0.7848,0.797,0.797,0.7936,0.7909,0.8109,0.8272,0.8272,0.8343,0.8397,0.8397,0.8397,0.8397,0.8397,0.8448,0.852,0.8611,0.8401,0.8374,0.8608,0.834,0.8245,0.8394,0.8397,0.837,0.8306,0.8367,0.833,0.8194,0.8269,0.8313,0.833,0.8435,0.8452,0.8394,0.8333,0.8306,0.8306,0.8306,0.8306,0.8306,0.8306,0.8306,0.8306,0.8306,0.8347,0.8397,0.8397,0.8435,0.8482,0.8482,0.8482,0.8482,0.8482,0.8482,0.8513,0.8665,0.8716,0.8652,0.8819,0.8873,0.8759,0.7934,0.8393,0.8856,0.8944,0.894,0.894,0.894,0.894,0.894,0.894,0.894,0.894,0.894,0.894,0.894,0.894,0.894,0.894,0.894,0.894,0.894,0.894,0.894,0.8849,0.8632,0.8533,0.835,0.8052,0.8038,0.8038,0.8038,0.8038,0.8038,0.8038,0.8038,0.8038,0.8038,0.8038,0.8038,0.465,0.0,0.0,0.0,0.0,0.0,0.7054,0.7499,0.7872,0.8153,0.8007,0.7916,0.8197,0.8021,0.7879,0.8018,0.8157,0.8248,0.8248,0.8248,0.8248,0.8248,0.8248,0.8248,0.8248,0.8367,0.8448,0.8462,0.833,0.8313,0.8455,0.8194,0.8102,0.8245,0.8248,0.8184,0.8045,0.818,0.8194,0.7975,0.7749,0.7753,0.7999,0.8336,0.8374,0.8245,0.8106,0.8045,0.8045,0.8045,0.8045,0.8045,0.8045,0.8045,0.8045,0.8041,0.8133,0.8252,0.8252,0.8333,0.8442,0.8442,0.8442,0.8442,0.8442,0.8442,0.8472,0.8628,0.8575,0.8625,0.8556,0.8615,0.8177,0.6576,0.7598,0.886,0.8944,0.894,0.894,0.894,0.894,0.894,0.894,0.894,0.894,0.894,0.894,0.894,0.894,0.894,0.894,0.894,0.894,0.894,0.894,0.8927,0.8801,0.852,0.8479,0.8343,0.8072,0.8045,0.8038,0.8038,0.8038,0.8038,0.8038,0.8038,0.8038,0.8038,0.8038,0.8038,0.0,0.4802,0.0,0.0,0.0,0.7048,0.7417,0.7573,0.7662,0.7729,0.7875,0.8011,0.8075,0.8035,0.8001,0.8035,0.8069,0.8089,0.8089,0.8089,0.8089,0.8089,0.8089,0.8089,0.8089,0.8116,0.8184,0.8306,0.8174,0.8153,0.8306,0.814,0.8055,0.8089,0.8089,0.8082,0.7965,0.7999,0.8006,0.7985,0.5834,0.5937,0.7992,0.8039,0.8049,0.8026,0.7995,0.7979,0.7979,0.7979,0.7979,0.7979,0.7979,0.7979,0.7979,0.7969,0.7989,0.8113,0.8096,0.8109,0.8136,0.8136,0.8136,0.8136,0.8136,0.8136,0.8167,0.8323,0.837,0.8086,0.6725,0.6435,0.6679,0.7765,0.8449,0.8876,0.8947,0.894,0.894,0.894,0.894,0.894,0.894,0.894,0.894,0.894,0.894,0.894,0.894,0.894,0.894,0.894,0.894,0.894,0.894,0.8828,0.873,0.8665,0.8445,0.8289,0.8225,0.8102,0.8038,0.8038,0.8038,0.8038,0.8038,0.8038,0.8038,0.8038,0.8038,0.8038,0.0,0.0,0.0,0.0,0.0,0.7007,0.7312,0.738,0.7421,0.757,0.7777,0.7929,0.7929,0.7929,0.7953,0.8028,0.7977,0.7929,0.7929,0.7929,0.7929,0.7929,0.7929,0.796,0.8031,0.8038,0.8072,0.8153,0.8085,0.8075,0.8153,0.8082,0.8045,0.7955,0.7955,0.7962,0.7982,0.6751,0.6728,0.7997,0.5266,0.5443,0.8004,0.6702,0.6039,0.6044,0.6044,0.6044,0.6044,0.6044,0.6044,0.6044,0.6044,0.6044,0.6044,0.6039,0.6851,0.7972,0.7959,0.8048,0.8038,0.8038,0.8038,0.8038,0.8038,0.8038,0.8072,0.8225,0.8279,0.8004,0.7183,0.6901,0.7155,0.8268,0.8702,0.8779,0.893,0.894,0.8916,0.8845,0.8889,0.8916,0.8842,0.8889,0.894,0.894,0.894,0.894,0.894,0.894,0.894,0.894,0.894,0.894,0.894,0.8798,0.8679,0.8604,0.8394,0.8272,0.8272,0.8123,0.8038,0.8038,0.8038,0.8038,0.8038,0.8038,0.8038,0.8038,0.8038,0.8038,0.0,0.0,0.0,0.0,0.0,0.0,0.7004,0.7065,0.7136,0.739,0.7621,0.7773,0.7773,0.7773,0.7818,0.7943,0.7855,0.7773,0.7773,0.7773,0.7773,0.7773,0.7773,0.7824,0.795,0.7984,0.8001,0.8001,0.8024,0.8041,0.8045,0.8045,0.8045,0.8041,0.7531,0.7524,0.8021,0.5787,0.5349,0.6569,0.4388,0.494,0.7896,0.4724,0.3289,0.33,0.331,0.3316,0.3316,0.3316,0.3316,0.3316,0.3316,0.3316,0.3316,0.3313,0.4722,0.6751,0.7669,0.7962,0.8048,0.8048,0.8048,0.8048,0.8048,0.8048,0.8075,0.8204,0.815,0.808,0.8196,0.8131,0.8075,0.8444,0.8588,0.8632,0.8903,0.894,0.8903,0.8774,0.8852,0.8899,0.8771,0.8855,0.894,0.894,0.894,0.894,0.894,0.894,0.894,0.894,0.8916,0.8899,0.8899,0.8737,0.8581,0.8455,0.8309,0.8241,0.8269,0.8123,0.8052,0.8079,0.8055,0.8038,0.8038,0.8038,0.8038,0.8038,0.8038,0.8038,0.0,0.0,0.0,0.0,0.6298,0.6549,0.0,0.0,0.677,0.681,0.7251,0.7628,0.7628,0.7628,0.7634,0.7655,0.7641,0.7628,0.7628,0.7628,0.7628,0.7628,0.7628,0.7638,0.7655,0.777,0.7841,0.7841,0.7963,0.8048,0.7969,0.7969,0.8021,0.8014,0.5706,0.5667,0.7941,0.7644,0.5293,0.1053,0.067,0.3157,0.7804,0.2781,0.0581,0.0493,0.0501,0.0504,0.0504,0.0504,0.0504,0.0504,0.0504,0.0504,0.0504,0.0503,0.0804,0.1708,0.6353,0.7985,0.7982,0.7982,0.7982,0.7982,0.7982,0.7982,0.7989,0.8009,0.8016,0.8019,0.8029,0.8032,0.8099,0.8455,0.8516,0.8594,0.8876,0.894,0.8933,0.8913,0.8923,0.893,0.8913,0.8923,0.894,0.894,0.894,0.894,0.894,0.894,0.894,0.894,0.8818,0.874,0.874,0.8489,0.8319,0.8299,0.8153,0.813,0.8265,0.8123,0.8102,0.8238,0.8106,0.8038,0.8038,0.8038,0.8038,0.8038,0.8038,0.8038,0.4461,0.0,0.0,0.0,0.5881,0.6037,0.6271,0.6325,0.6373,0.6539,0.6783,0.7021,0.7193,0.7288,0.737,0.7458,0.7333,0.7282,0.7448,0.7397,0.7373,0.7461,0.7472,0.7506,0.759,0.7655,0.7695,0.7702,0.7767,0.7911,0.8035,0.6546,0.6429,0.7973,0.6882,0.5396,0.3532,0.3532,0.2371,-0.0,-0.0,0.12,0.3422,0.112,-0.0,-0.0,-0.0,-0.0,-0.0,-0.0,-0.0,-0.0,-0.0,-0.0,-0.0,-0.0,-0.0,0.0302,0.2715,0.4526,0.5739,0.5739,0.5739,0.5739,0.5739,0.5739,0.5739,0.5739,0.5739,0.5837,0.6439,0.7253,0.8022,0.8316,0.8364,0.8421,0.8635,0.875,0.8811,0.8811,0.8743,0.871,0.8798,0.8882,0.8879,0.871,0.8828,0.8906,0.8821,0.8886,0.894,0.894,0.8879,0.8804,0.8716,0.8513,0.8357,0.8275,0.8126,0.8109,0.8265,0.8123,0.8113,0.8269,0.8116,0.8038,0.8038,0.8038,0.8038,0.8038,0.8038,0.8038,0.0,0.0,0.0,0.5328,0.5447,0.5542,0.0,0.5891,0.5979,0.6203,0.6308,0.6417,0.6607,0.6854,0.7068,0.7183,0.7017,0.6949,0.7173,0.7105,0.7075,0.719,0.7337,0.7316,0.7421,0.7413,0.7463,0.7567,0.7026,0.7149,0.7953,0.6105,0.5329,0.5989,0.5989,0.4067,-0.0,-0.0,-0.0,-0.0,-0.0,-0.0,-0.0,-0.0,-0.0,-0.0,-0.0,-0.0,-0.0,-0.0,-0.0,-0.0,-0.0,-0.0,-0.0,-0.0,-0.0,-0.0,-0.0,0.1308,0.3015,0.3015,0.3015,0.3015,0.3015,0.3015,0.3015,0.3015,0.3922,0.5031,0.5022,0.6539,0.8006,0.8238,0.8272,0.8309,0.8452,0.857,0.8652,0.8652,0.856,0.852,0.8632,0.8747,0.8747,0.8516,0.871,0.8838,0.8723,0.8811,0.8879,0.8879,0.8815,0.8723,0.8608,0.8459,0.8323,0.8218,0.8102,0.8109,0.8265,0.8123,0.8113,0.8269,0.8116,0.8038,0.8038,0.8038,0.8038,0.8038,0.8038,0.8038,0.0,0.0,0.0,0.4854,0.5053,0.0,0.0,0.5508,0.5616,0.5633,0.5857,0.6013,0.5884,0.6332,0.6725,0.6736,0.6722,0.6722,0.6833,0.6829,0.6829,0.6836,0.6987,0.7083,0.6893,0.6979,0.7148,0.7148,0.527,0.5334,0.7879,0.7882,0.5501,0.0556,0.0371,0.0276,-0.0,-0.0,-0.0,-0.0,-0.0,-0.0,-0.0,-0.0,-0.0,-0.0,-0.0,-0.0,-0.0,-0.0,-0.0,-0.0,-0.0,-0.0,-0.0,-0.0,-0.0,-0.0,-0.0,0.0101,0.0202,0.0202,0.0202,0.0202,0.0202,0.0202,0.0202,0.0202,0.3838,0.7193,0.4726,0.6037,0.8006,0.8238,0.8272,0.8309,0.8452,0.8489,0.8492,0.8492,0.8486,0.8482,0.8492,0.8503,0.8499,0.8482,0.8618,0.872,0.8713,0.8716,0.8723,0.8723,0.8472,0.8303,0.8292,0.815,0.8058,0.8052,0.8045,0.8109,0.8265,0.8123,0.8113,0.8269,0.8116,0.8038,0.8038,0.8038,0.8038,0.8038,0.8038,0.8038,0.0,0.0,0.0,0.4624,0.4753,0.4887,0.5043,0.5121,0.5213,0.5403,0.5528,0.564,0.5776,0.6139,0.642,0.642,0.6424,0.6498,0.6778,0.5465,0.4533,0.4687,0.6017,0.631,0.4922,0.4822,0.5521,0.6962,0.6389,0.5061,0.297,0.2883,0.1961,0.0087,-0.0,-0.0,-0.0,-0.0,-0.0,-0.0,-0.0,-0.0,-0.0,-0.0,-0.0,-0.0,-0.0,-0.0,-0.0,-0.0,-0.0,-0.0,-0.0,-0.0,-0.0,-0.0,-0.0,-0.0,-0.0,-0.0,-0.0,-0.0,-0.0,-0.0,-0.0,0.2424,0.5157,0.5157,0.5251,0.5641,0.6345,0.7256,0.7982,0.8113,0.8123,0.8136,0.8187,0.8197,0.8228,0.8326,0.8347,0.8347,0.8347,0.8421,0.8418,0.8228,0.8489,0.8676,0.8577,0.8733,0.8855,0.8855,0.8676,0.8513,0.8414,0.8272,0.8147,0.8045,0.8038,0.8065,0.8119,0.8069,0.8065,0.8123,0.8069,0.8038,0.8038,0.8038,0.8038,0.8038,0.8038,0.8038,0.1172,0.0,0.0,0.0,0.4572,0.4653,0.4755,0.4756,0.4847,0.5041,0.5288,0.5484,0.5617,0.5861,0.5989,0.6091,0.6112,0.5973,0.5645,0.4154,0.2951,0.245,0.3637,0.4493,0.449,0.326,0.3042,0.4563,0.4678,0.3306,0.0172,-0.0,-0.0,-0.0,-0.0,-0.0,-0.0,-0.0,-0.0,-0.0,-0.0,-0.0,-0.0,-0.0,-0.0,-0.0,-0.0,-0.0,-0.0,-0.0,-0.0,-0.0,-0.0,-0.0,-0.0,-0.0,-0.0,-0.0,-0.0,-0.0,-0.0,-0.0,0.1212,0.2726,0.2726,0.4545,0.6879,0.7704,0.6765,0.5732,0.7563,0.7969,0.7959,0.8041,0.8038,0.8038,0.8038,0.8038,0.8069,0.8174,0.8194,0.8194,0.8194,0.8272,0.8265,0.8069,0.8336,0.8543,0.8489,0.8659,0.8784,0.8784,0.8652,0.8499,0.8347,0.8248,0.815,0.8045,0.8038,0.8038,0.8038,0.8038,0.8038,0.8038,0.8038,0.8038,0.8038,0.8038,0.8038,0.8038,0.8038,0.8237,0.0,0.0,0.0,0.3644,0.4383,0.4438,0.4438,0.4435,0.4419,0.4422,0.4945,0.5332,0.5403,0.539,0.5443,0.5728,0.5786,0.5189,0.3454,0.3092,0.2281,0.0234,-0.0,0.1622,0.5708,0.2402,-0.0,-0.0,-0.0,-0.0,-0.0,-0.0,-0.0,-0.0,-0.0,-0.0,-0.0,-0.0,-0.0,-0.0,-0.0,-0.0,-0.0,-0.0,-0.0,-0.0,-0.0,-0.0,-0.0,-0.0,-0.0,-0.0,-0.0,-0.0,-0.0,-0.0,-0.0,-0.0,0.0202,0.0202,0.0202,0.0101,0.3636,0.7918,0.8022,0.6158,0.4622,0.7269,0.7982,0.7972,0.7972,0.7955,0.8038,0.8038,0.8038,0.8038,0.8038,0.8038,0.8038,0.8038,0.8038,0.8038,0.8038,0.8038,0.8038,0.8038,0.817,0.8319,0.8459,0.8479,0.8482,0.8482,0.8357,0.8211,0.8058,0.8041,0.8038,0.8038,0.8038,0.8038,0.8038,0.8038,0.8038,0.8038,0.8038,0.8038,0.8038,0.8038,0.8038,0.8038,0.8038,0.8726,-0.0,0.0,0.0,0.0,0.0,0.0,0.285,0.2813,0.2965,0.3326,0.3564,0.3999,0.4975,0.5158,0.515,0.5172,0.5531,0.5657,0.5146,0.2648,0.0664,0.0074,-0.0,0.0451,0.1655,0.0681,-0.0,-0.0,-0.0,-0.0,-0.0,-0.0,-0.0,-0.0,-0.0,-0.0,-0.0,-0.0,-0.0,-0.0,-0.0,-0.0,-0.0,-0.0,-0.0,-0.0,-0.0,-0.0,-0.0,-0.0,-0.0,-0.0,-0.0,-0.0,-0.0,-0.0,-0.0,0.0505,0.4448,0.577,0.5461,0.3522,0.3922,0.5441,0.7384,0.7475,0.7054,0.7772,0.7962,0.8048,0.8048,0.8045,0.8038,0.8038,0.8038,0.8038,0.8038,0.8038,0.8038,0.8038,0.8038,0.8038,0.8038,0.8038,0.8038,0.8038,0.817,0.8286,0.8323,0.8418,0.8482,0.8482,0.8357,0.8252,0.8211,0.8102,0.8038,0.8038,0.8038,0.8038,0.8038,0.8038,0.8038,0.8038,0.8038,0.8038,0.8038,0.8038,0.8038,0.8038,0.8038,0.8237,-0.0,-0.0,-0.0,-0.0,0.0,0.0,0.1284,0.1284,0.1348,0.166,0.2733,0.3907,0.4717,0.442,0.4068,0.4003,0.4668,0.5352,0.563,0.367,0.1706,0.0145,-0.0,-0.0,-0.0,-0.0,-0.0,-0.0,-0.0,-0.0,-0.0,-0.0,-0.0,-0.0,-0.0,-0.0,-0.0,-0.0,-0.0,-0.0,-0.0,-0.0,-0.0,-0.0,-0.0,-0.0,-0.0,-0.0,0.0171,0.2106,0.1794,0.0183,0.2214,0.1793,0.0097,0.127,0.2369,0.3598,0.5641,0.7083,0.7698,0.615,0.5634,0.5937,0.7569,0.7972,0.7959,0.7959,0.8048,0.8038,0.8038,0.8038,0.8038,0.8038,0.8038,0.8038,0.8038,0.8038,0.8038,0.8038,0.8038,0.8038,0.8038,0.8038,0.8038,0.8038,0.8116,0.8197,0.8262,0.8343,0.8394,0.8394,0.8319,0.8245,0.818,0.8092,0.8038,0.8038,0.8038,0.8038,0.8038,0.8038,0.8038,0.8038,0.8038,0.8038,0.8038,0.8038,0.8038,0.8038,0.8038,0.8038,-0.0,-0.0,-0.0,-0.0,-0.0,0.0,-0.0,-0.0,-0.0,-0.0,0.2125,0.4118,0.4419,0.3635,0.283,0.273,0.3706,0.4686,0.5304,0.5036,0.3621,0.0358,-0.0,-0.0,-0.0,-0.0,-0.0,-0.0,-0.0,-0.0,-0.0,-0.0,-0.0,-0.0,-0.0,-0.0,-0.0,-0.0,-0.0,-0.0,-0.0,-0.0,-0.0,-0.0,-0.0,-0.0,-0.0,-0.0,0.0346,0.5137,0.459,0.117,0.5141,0.4299,0.1047,0.3195,0.5681,0.7615,0.53,0.6042,0.7989,0.7985,0.7979,0.7969,0.7969,0.7955,0.8038,0.8038,0.8038,0.8038,0.8038,0.8038,0.8038,0.8038,0.8038,0.8038,0.8038,0.8038,0.8038,0.8038,0.8038,0.8038,0.8038,0.8038,0.8038,0.8038,0.8038,0.8089,0.8228,0.8245,0.8245,0.8245,0.8245,0.8187,0.8052,0.8038,0.8038,0.8038,0.8038,0.8038,0.8038,0.8038,0.8038,0.8038,0.8038,0.8038,0.8038,0.8038,0.8038,0.8038,0.8038,0.8038,-0.0,-0.0,-0.0,-0.0,-0.0,0.0,-0.0,-0.0,-0.0,-0.0,0.0449,0.1637,0.4038,0.4323,0.3815,0.2862,0.3718,0.4687,0.5333,0.2889,0.0784,0.0066,-0.0,-0.0,-0.0,-0.0,-0.0,-0.0,-0.0,-0.0,-0.0,-0.0,-0.0,-0.0,-0.0,-0.0,-0.0,-0.0,-0.0,-0.0,-0.0,-0.0,-0.0,-0.0,-0.0,-0.0,-0.0,-0.0,0.0331,0.5157,0.6552,0.5586,0.4681,0.4836,0.5596,0.446,0.5709,0.7902,0.7419,0.7566,0.7972,0.7955,0.8048,0.8045,0.8045,0.8041,0.8038,0.8038,0.8038,0.8038,0.8038,0.8038,0.8038,0.8038,0.8038,0.8038,0.8038,0.8038,0.8038,0.8038,0.8038,0.8038,0.8038,0.8038,0.8038,0.8038,0.8038,0.8052,0.8079,0.8085,0.8085,0.8085,0.8085,0.8072,0.8041,0.8038,0.8038,0.8038,0.8038,0.8038,0.8038,0.8038,0.8038,0.8038,0.8038,0.8038,0.8038,0.8038,0.8038,0.8038,0.8038,0.8038,-0.0231,-0.0,-0.041,-0.2252,-0.2447,0.0,0.0,-0.1089,-0.1146,-0.1317,-0.1242,-0.0616,0.0855,0.1753,0.2071,0.1456,0.1852,0.2388,0.2642,0.115,-0.0,-0.0,-0.0,-0.0,-0.0,-0.0,-0.0,-0.0,-0.0,-0.0,-0.0,-0.0,-0.0,-0.0,-0.0,-0.0,-0.0,-0.0,-0.0,-0.0,-0.0,-0.0,-0.0,-0.0,-0.0,-0.0,-0.0,-0.0,0.0408,0.5162,0.7018,0.6827,0.5775,0.6042,0.6953,0.6043,0.6511,0.7665,0.7794,0.7885,0.794,0.7929,0.7977,0.8038,0.8038,0.8038,0.8038,0.8038,0.8038,0.8038,0.8038,0.8038,0.8038,0.8038,0.8038,0.8038,0.8038,0.8038,0.8038,0.8038,0.8038,0.8038,0.8038,0.8038,0.8038,0.8038,0.8038,0.8038,0.8038,0.8038,0.8038,0.8038,0.8038,0.8038,0.8038,0.8038,0.8038,0.8038,0.8038,0.8038,0.8038,0.8038,0.8038,0.8038,0.8038,0.8038,0.8038,0.8038,0.8038,0.8038,0.8038,0.8038,-0.1446,-0.0758,-0.1191,-0.4089,-0.4691,-0.4234,0.0,0.0,0.0,-0.3014,-0.2908,-0.2763,-0.2665,-0.1651,-0.0671,-0.0112,-0.0,-0.0,-0.0,-0.0,-0.0,-0.0,-0.0,-0.0,-0.0,-0.0,-0.0,-0.0,-0.0,-0.0,-0.0,-0.0,0.0348,0.1045,0.1045,0.0696,-0.0,-0.0,-0.0,-0.0,0.0737,0.0666,-0.0,-0.0,-0.0,0.0076,0.0838,0.1251,0.1548,0.5432,0.693,0.6692,0.6977,0.7071,0.7071,0.7316,0.7383,0.7417,0.7553,0.7675,0.777,0.777,0.7872,0.8001,0.8031,0.8038,0.8038,0.8038,0.8038,0.8038,0.8038,0.8038,0.8038,0.8038,0.8038,0.8038,0.8038,0.8038,0.8038,0.8038,0.8038,0.8038,0.8038,0.8038,0.8038,0.8038,0.8038,0.8038,0.8038,0.8038,0.8038,0.8038,0.8038,0.8038,0.8038,0.8038,0.8038,0.8038,0.8038,0.8038,0.8038,0.8038,0.8038,0.8038,0.8038,0.8038,0.8038,0.8038,0.8038,0.8038,0.8038,0.8038,-0.4819,-0.3613,-0.2445,-0.2558,-0.3734,-0.4752,-0.4321,0.0,-0.4265,-0.4273,0.0,-0.4882,-0.432,0.0,0.0,-0.0449,-0.0,-0.0,-0.0,-0.0,-0.0,-0.0,-0.0,-0.0,-0.0,-0.0,-0.0,-0.0,-0.0,-0.0,-0.0,-0.0,0.1488,0.4684,0.4818,0.3244,-0.0,-0.0,-0.0,0.0068,0.3287,0.3075,-0.0,-0.0,-0.0,0.0235,0.3921,0.5589,0.5653,0.6509,0.6729,0.6679,0.697,0.6997,0.6993,0.7268,0.7373,0.7397,0.7546,0.7611,0.7624,0.7624,0.7723,0.7862,0.7997,0.8038,0.8038,0.8038,0.8038,0.8038,0.8038,0.8038,0.8038,0.8038,0.8038,0.8038,0.8038,0.8038,0.8038,0.8038,0.8038,0.8038,0.8038,0.8038,0.8038,0.8038,0.8038,0.8038,0.8038,0.8038,0.8038,0.8038,0.8038,0.8038,0.8038,0.8038,0.8038,0.8038,0.8038,0.8038,0.8038,0.8038,0.8038,0.8038,0.8038,0.8038,0.8038,0.8038,0.8038,0.8038,0.8038,0.8038,-0.5207,-0.4726,-0.4198,-0.3967,-0.4381,-0.4793,-0.4653,-0.4535,-0.4529,-0.4676,0.0,0.0,0.0,0.0,0.0,0.0,-0.2639,-0.2639,-0.2639,-0.1847,-0.0955,-0.0114,-0.0,-0.0,-0.0,-0.0,-0.0,-0.0,-0.0,-0.0,-0.0,-0.0,0.1683,0.5276,0.5413,0.4654,0.3153,0.2075,0.154,0.1611,0.3107,0.3563,0.3132,0.2068,0.1025,0.015,0.3158,0.5172,0.6275,0.6471,0.6468,0.6418,0.6716,0.6837,0.6946,0.7068,0.7166,0.7248,0.7309,0.739,0.7495,0.7668,0.7763,0.7838,0.7994,0.8038,0.8038,0.8038,0.8038,0.8038,0.8038,0.8038,0.8038,0.8038,0.8038,0.8038,0.8038,0.8038,0.8038,0.8038,0.8038,0.8038,0.8038,0.8038,0.8038,0.8038,0.8038,0.8038,0.8038,0.8038,0.8038,0.8038,0.8038,0.8038,0.8038,0.8038,0.8038,0.8038,0.8038,0.8038,0.8038,0.8038,0.8038,0.8038,0.8038,0.8038,0.8038,0.8038,0.8038,0.8038,0.8038,0.8038,-0.5172,-0.5268,-0.5368,-0.5154,-0.4941,-0.4824,-0.4755,-0.464,-0.4565,-0.4687,-0.3952,0.0,0.0,0.0,-0.3283,-0.3253,0.0,-0.4505,-0.4524,-0.3538,-0.2124,-0.0224,-0.0,-0.0,-0.0,-0.0,-0.0,-0.0,-0.0,-0.0,-0.0,0.0929,0.2473,0.4584,0.5129,0.5399,0.5389,0.4092,0.3418,0.3422,0.3423,0.4127,0.5329,0.4023,0.2693,0.1599,0.3218,0.4814,0.6187,0.6358,0.6334,0.6298,0.6478,0.6662,0.6871,0.6912,0.7017,0.7139,0.7139,0.7241,0.7414,0.7672,0.778,0.7838,0.7994,0.8038,0.8038,0.8038,0.8038,0.8038,0.8038,0.8038,0.8038,0.8038,0.8038,0.8038,0.8038,0.8038,0.8038,0.8038,0.8038,0.8038,0.8038,0.8038,0.8038,0.8038,0.8038,0.8038,0.8038,0.8038,0.8038,0.8038,0.8038,0.8038,0.8038,0.8038,0.8038,0.8038,0.8038,0.8038,0.8038,0.8038,0.8038,0.8038,0.8038,0.8038,0.8038,0.8038,0.8038,0.8038,0.8038,0.8038,-0.5162,-0.5233,-0.5384,-0.5162,-0.5016,-0.4911,-0.4911,-0.4687,-0.4478,-0.4484,-0.2168,-0.0122,-0.0118,-0.0121,-0.0122,-0.0118,-0.2591,0.0,0.0,-0.4462,-0.3314,-0.0335,-0.0,-0.0,-0.0,-0.0,-0.0,-0.0,-0.0,-0.0,-0.0,0.3319,0.4463,0.2809,0.4495,0.5379,0.5379,0.5309,0.5322,0.5343,0.5336,0.5345,0.5418,0.5341,0.5274,0.5264,0.5683,0.5969,0.6002,0.6359,0.639,0.6278,0.6424,0.6573,0.6725,0.6875,0.7017,0.7139,0.7139,0.7241,0.7397,0.7556,0.7699,0.7838,0.7994,0.8038,0.8038,0.8038,0.8038,0.8038,0.8038,0.8038,0.8038,0.8038,0.8038,0.8038,0.8038,0.8038,0.8038,0.8038,0.8038,0.8038,0.8038,0.8038,0.8038,0.8038,0.8038,0.8038,0.8038,0.8038,0.8038,0.8038,0.8038,0.8038,0.8038,0.8038,0.8038,0.8038,0.8038,0.8038,0.8038,0.8038,0.8038,0.8038,0.8038,0.8038,0.8038,0.8038,0.8038,0.8038,0.8038,0.8038,-0.5145,-0.5243,-0.5325,-0.5169,-0.5094,-0.4974,-0.4887,-0.4784,-0.4674,-0.4533,-0.3683,-0.2397,-0.0367,-0.0,-0.0,-0.0,-0.2534,-0.451,0.0,-0.4514,-0.4113,-0.3086,-0.1232,-0.0,-0.0,-0.0,-0.0,-0.0,-0.0,-0.0,-0.0,0.1156,0.2616,0.4442,0.5059,0.5396,0.5389,0.5389,0.5393,0.5399,0.4167,0.3641,0.3678,0.4848,0.5471,0.5706,0.5735,0.5935,0.6207,0.6295,0.6305,0.6274,0.6417,0.6566,0.6709,0.6759,0.6932,0.7139,0.7139,0.7241,0.738,0.7431,0.7482,0.755,0.7702,0.7814,0.7889,0.7889,0.7963,0.8038,0.8038,0.8038,0.8038,0.8038,0.8038,0.8038,0.8038,0.8038,0.8038,0.8038,0.8038,0.8038,0.8038,0.8038,0.8038,0.8038,0.8038,0.8038,0.8038,0.8038,0.8038,0.8038,0.8038,0.8038,0.8038,0.8038,0.8038,0.8038,0.8038,0.8038,0.8038,0.8038,0.8038,0.8038,0.8821,0.9312,0.9312,1.0194,1.0583,1.0583,0.9706,0.8825,-0.5199,-0.5284,-0.5338,-0.5237,-0.5172,-0.5058,-0.5028,-0.4414,-0.3855,-0.3829,-0.3367,-0.2283,-0.0384,-0.0,-0.0,-0.0,-0.1661,-0.3266,0.0,-0.4518,-0.4521,-0.4521,-0.1852,-0.0,-0.0,-0.0,-0.0,-0.0,-0.0,-0.0,-0.0,-0.0,0.1081,0.3379,0.4114,0.4463,0.4436,0.4436,0.4779,0.5403,0.4239,0.2965,0.1766,0.2925,0.4052,0.518,0.5586,0.5935,0.6193,0.624,0.6338,0.6274,0.6417,0.6566,0.6709,0.6763,0.6936,0.7139,0.7139,0.7241,0.737,0.737,0.7407,0.7472,0.757,0.7699,0.7811,0.7811,0.7923,0.8038,0.8038,0.8038,0.8024,0.797,0.7997,0.8024,0.797,0.8001,0.8038,0.8038,0.8038,0.8038,0.8038,0.8038,0.8038,0.8038,0.8038,0.8038,0.8038,0.8038,0.8038,0.8038,0.8038,0.8038,0.8038,0.8038,0.8038,0.8038,0.8038,0.8038,0.8038,0.8038,0.8285,0.8996,0.9673,1.0358,1.0988,1.1629,1.1945,1.1853,1.1072,1.0194]},{"header":{"parameterUnit":"m.s-1","parameterCategory":1,"la1":30.6,"la2":29.2853,"lo1":-89.7004,"lo2":-87.6739,"dy":0.0162,"dx":0.0183,"nx":112,"ny":82,"refTime":"2023-08-12T12:00:00:Z","depth":0,"parameterNumber":3,"parameterNumberName":"V-component_of_WINDS"},"data":[0.0,0.0,0.0,0.0,0.0,0.0,0.0,0.0,0.0,0.0,0.0,0.0,0.0,0.0,0.0,0.0,0.0,0.0,0.0,0.0,0.0,0.0,0.0,0.0,0.0,0.0,0.0,0.0,0.0,0.0,0.0,0.0,0.0,0.0,0.0,0.0,0.0,0.0,0.0,0.0,0.0,0.0,0.0,0.0,0.0,0.0,0.0,0.0,0.0,0.0,0.0,0.0,0.0,0.0,0.0,0.0,0.0,0.0,0.0,0.0,0.0,0.0,0.0,0.0,0.0,0.0,0.0,0.0,0.0,0.0,0.0,0.0,0.0,0.0,0.0,0.0,0.0,0.0,0.0,0.0,0.0,0.0,0.0,0.0,0.0,0.0,0.0,0.0,0.0,0.0,-3.2301,-3.3218,-3.7757,-4.0485,-3.9831,-4.0777,-3.9469,-3.4872,0.0,0.0,0.0,0.0,0.0,0.0,0.0,0.0,0.0,0.0,0.0,0.0,0.0,0.0,0.0,0.0,0.0,0.0,0.0,0.0,0.0,0.0,0.0,0.0,0.0,0.0,0.0,0.0,0.0,0.0,0.0,0.0,0.0,0.0,0.0,0.0,0.0,0.0,0.0,0.0,0.0,0.0,0.0,0.0,0.0,0.0,0.0,0.0,0.0,0.0,0.0,0.0,0.0,0.0,0.0,0.0,0.0,0.0,0.0,0.0,0.0,0.0,0.0,0.0,0.0,0.0,0.0,0.0,0.0,0.0,0.0,0.0,0.0,0.0,0.0,0.0,0.0,0.0,0.0,0.0,0.0,0.0,0.0,0.0,0.0,0.0,0.0,0.0,0.0,0.0,0.0,0.0,0.0,0.0,0.0,0.0,0.0,0.0,0.0,0.0,0.0,0.0,0.0,0.0,-3.3353,-3.4949,-3.9104,-4.1681,-4.145,-4.0354,-3.8719,-3.6469,0.0,0.0,0.0,0.0,0.0,0.0,0.0,0.0,0.0,0.0,0.0,0.0,0.0,0.0,0.0,0.0,0.0,0.0,0.0,0.0,0.0,0.0,0.0,0.0,0.0,0.0,0.0,0.0,0.0,0.0,0.0,0.0,0.0,0.0,0.0,0.0,0.0,0.0,0.0,0.0,0.0,0.0,0.0,0.0,0.0,0.0,0.0,0.0,0.0,0.0,0.0,0.0,0.0,0.0,0.0,0.0,0.0,0.0,0.0,0.0,0.0,0.0,0.0,0.0,0.0,0.0,0.0,0.0,0.0,0.0,0.0,0.0,0.0,0.0,0.0,0.0,0.0,0.0,0.0,0.0,0.0,0.0,0.0,0.0,0.0,0.0,0.0,0.0,0.0,0.0,0.0,0.0,0.0,0.0,0.0,0.0,0.0,0.0,0.0,0.0,0.0,0.0,0.0,-3.3833,-3.4968,-3.668,-3.9873,-4.1681,-4.1143,-3.9988,-3.8565,-3.6815,-3.5507,0.0,0.0,0.0,0.0,0.0,0.0,0.0,0.0,0.0,0.0,0.0,0.0,0.0,0.0,0.0,0.0,0.0,0.0,0.0,0.0,0.0,0.0,0.0,0.0,0.0,0.0,0.0,0.0,0.0,0.0,0.0,0.0,0.0,0.0,0.0,0.0,0.0,0.0,0.0,0.0,0.0,0.0,0.0,0.0,0.0,0.0,0.0,0.0,0.0,0.0,0.0,0.0,0.0,0.0,0.0,0.0,0.0,0.0,0.0,0.0,0.0,0.0,0.0,0.0,0.0,0.0,0.0,0.0,0.0,0.0,0.0,0.0,0.0,0.0,0.0,0.0,0.0,0.0,0.0,0.0,0.0,0.0,0.0,0.0,0.0,0.0,0.0,0.0,0.0,0.0,0.0,0.0,0.0,0.0,0.0,0.0,0.0,0.0,0.0,0.0,0.0,0.0,-3.5141,-3.5699,-3.7777,-4.0104,-4.1219,-4.0546,-3.92,-3.7911,-3.6776,-3.4757,0.0,0.0,0.0,0.0,0.0,0.0,0.0,0.0,0.0,0.0,0.0,0.0,0.0,0.0,0.0,0.0,0.0,0.0,0.0,0.0,0.0,0.0,0.0,0.0,0.0,0.0,0.0,0.0,0.0,0.0,0.0,0.0,0.0,0.0,0.0,0.0,0.0,0.0,0.0,0.0,0.0,0.0,0.0,0.0,0.0,0.0,0.0,0.0,0.0,0.0,0.0,0.0,0.0,0.0,0.0,0.0,0.0,0.0,0.0,0.0,0.0,0.0,0.0,0.0,0.0,0.0,0.0,0.0,0.0,0.0,0.0,0.0,0.0,0.0,0.0,0.0,0.0,0.0,0.0,0.0,0.0,0.0,0.0,0.0,0.0,0.0,0.0,0.0,0.0,0.0,0.0,0.0,0.0,0.0,0.0,0.0,0.0,0.0,0.0,0.0,0.0,0.0,-3.4083,-3.4353,-3.7642,-3.9546,-4.0566,-4.0508,-3.7584,-3.6026,-3.6661,-3.366,0.0,0.0,0.0,0.0,0.0,0.0,0.0,0.0,0.0,0.0,0.0,0.0,0.0,0.0,0.0,0.0,0.0,0.0,0.0,0.0,0.0,0.0,0.0,0.0,0.0,0.0,0.0,0.0,0.0,0.0,0.0,0.0,0.0,0.0,0.0,0.0,0.0,0.0,0.0,0.0,0.0,0.0,0.0,0.0,0.0,0.0,0.0,0.0,0.0,0.0,0.0,0.0,0.0,0.0,0.0,0.0,0.0,0.0,0.0,0.0,0.0,0.0,0.0,0.0,0.0,0.0,0.0,0.0,0.0,0.0,0.0,0.0,0.0,0.0,0.0,0.0,0.0,0.0,0.0,0.0,0.0,0.0,0.0,0.0,0.0,0.0,0.0,0.0,0.0,0.0,0.0,0.0,0.0,0.0,0.0,0.0,0.0,0.0,0.0,0.0,0.0,0.0,-3.4449,-3.4814,-3.768,-3.9046,-3.9738,-3.9738,-3.7603,-3.6315,-3.6441,0.0,0.0,0.0,0.0,0.0,0.0,0.0,0.0,0.0,0.0,0.0,0.0,0.0,0.0,0.0,0.0,0.0,0.0,0.0,0.0,0.0,0.0,0.0,0.0,0.0,0.0,0.0,0.0,0.0,0.0,0.0,0.0,0.0,0.0,0.0,0.0,0.0,0.0,0.0,0.0,0.0,0.0,0.0,0.0,0.0,0.0,0.0,0.0,0.0,0.0,0.0,0.0,0.0,0.0,0.0,0.0,0.0,0.0,0.0,0.0,0.0,0.0,0.0,0.0,0.0,0.0,0.0,0.0,0.0,0.0,0.0,0.0,0.0,0.0,0.0,0.0,0.0,0.0,0.0,0.0,0.0,0.0,0.0,0.0,0.0,0.0,0.0,0.0,0.0,0.0,0.0,0.0,0.0,0.0,0.0,0.0,0.0,0.0,0.0,0.0,0.0,0.0,-3.5141,-3.4276,-3.4487,-3.7296,-3.8373,-3.8892,-3.8892,-3.6796,-3.5758,-3.6386,0.0,0.0,0.0,0.0,0.0,0.0,0.0,0.0,0.0,0.0,0.0,0.0,0.0,0.0,0.0,0.0,0.0,0.0,0.0,0.0,0.0,0.0,0.0,0.0,0.0,0.0,0.0,0.0,0.0,0.0,0.0,0.0,0.0,0.0,0.0,0.0,0.0,0.0,0.0,0.0,0.0,0.0,0.0,0.0,0.0,0.0,0.0,0.0,0.0,0.0,0.0,0.0,0.0,0.0,0.0,0.0,0.0,0.0,0.0,0.0,0.0,0.0,0.0,0.0,0.0,0.0,0.0,0.0,0.0,0.0,0.0,0.0,0.0,0.0,0.0,0.0,0.0,0.0,0.0,0.0,0.0,0.0,0.0,0.0,0.0,0.0,0.0,0.0,0.0,0.0,0.0,0.0,0.0,0.0,0.0,0.0,0.0,0.0,0.0,0.0,0.0,0.0,-3.5051,-3.3276,-3.2968,-3.6353,-3.7469,-3.7988,-3.7988,-3.4853,-3.3987,0.0,0.0,0.0,0.0,0.0,0.0,0.0,0.0,0.0,0.0,0.0,0.0,0.0,0.0,0.0,0.0,0.0,0.0,0.0,0.0,0.0,0.0,0.0,0.0,0.0,0.0,0.0,0.0,0.0,0.0,0.0,0.0,0.0,0.0,0.0,0.0,0.0,0.0,0.0,0.0,0.0,0.0,0.0,0.0,0.0,0.0,0.0,0.0,0.0,0.0,0.0,0.0,0.0,0.0,0.0,0.0,0.0,0.0,0.0,0.0,0.0,0.0,0.0,0.0,0.0,0.0,0.0,0.0,0.0,0.0,0.0,0.0,0.0,0.0,0.0,0.0,0.0,0.0,0.0,0.0,0.0,0.0,0.0,0.0,0.0,0.0,0.0,0.0,0.0,0.0,0.0,0.0,0.0,0.0,0.0,0.0,0.0,0.0,0.0,0.0,0.0,0.0,0.0,-3.5051,-3.2737,-3.2314,-3.6276,-3.693,-3.7084,-3.7084,-3.4507,-3.3665,-3.5452,0.0,0.0,0.0,0.0,0.0,0.0,0.0,0.0,0.0,0.0,0.0,0.0,0.0,0.0,0.0,0.0,0.0,0.0,0.0,0.0,0.0,0.0,0.0,0.0,0.0,0.0,0.0,0.0,0.0,0.0,0.0,0.0,0.0,0.0,0.0,0.0,0.0,0.0,0.0,0.0,0.0,0.0,0.0,0.0,0.0,0.0,0.0,0.0,0.0,0.0,0.0,0.0,0.0,0.0,0.0,0.0,0.0,0.0,0.0,0.0,0.0,0.0,0.0,0.0,0.0,0.0,0.0,0.0,0.0,0.0,0.0,0.0,0.0,0.0,0.0,0.0,0.0,0.0,0.0,0.0,0.0,0.0,0.0,0.0,0.0,0.0,0.0,0.0,0.0,0.0,0.0,0.0,0.0,0.0,0.0,0.0,0.0,0.0,0.0,0.0,0.0,0.0,-3.5089,-3.2833,-3.2275,-3.5853,-3.6219,-3.6219,-3.6219,-3.418,-3.3281,-3.4163,0.0,0.0,0.0,0.0,0.0,0.0,0.0,0.0,0.0,0.0,0.0,0.0,0.0,0.0,0.0,0.0,0.0,0.0,0.0,0.0,0.0,0.0,0.0,0.0,0.0,0.0,0.0,0.0,0.0,0.0,0.0,0.0,0.0,0.0,0.0,0.0,0.0,0.0,0.0,0.0,0.0,0.0,0.0,0.0,0.0,0.0,0.0,0.0,0.0,0.0,0.0,0.0,0.0,0.0,0.0,0.0,0.0,0.0,0.0,0.0,0.0,0.0,0.0,0.0,0.0,0.0,0.0,0.0,0.0,0.0,0.0,0.0,0.0,0.0,0.0,0.0,0.0,0.0,0.0,0.0,0.0,0.0,0.0,0.0,0.0,0.0,0.0,0.0,0.0,0.0,0.0,0.0,0.0,0.0,0.0,0.0,0.0,0.0,0.0,0.0,0.0,0.0,-3.518,-3.3276,-3.2679,-3.5238,-3.5493,-3.5493,-3.5493,-3.382,-3.2808,-3.2961,0.0,0.0,0.0,0.0,0.0,0.0,0.0,0.0,0.0,0.0,0.0,0.0,0.0,0.0,0.0,0.0,0.0,0.0,0.0,0.0,0.0,0.0,0.0,0.0,0.0,0.0,0.0,0.0,0.0,0.0,0.0,0.0,0.0,0.0,0.0,0.0,0.0,0.0,0.0,0.0,0.0,0.0,0.0,0.0,0.0,0.0,0.0,0.0,0.0,0.0,0.0,0.0,0.0,0.0,0.0,0.0,0.0,0.0,0.0,0.0,-3.3006,-3.3699,0.0,0.0,0.0,0.0,0.0,0.0,0.0,0.0,0.0,0.0,0.0,0.0,0.0,0.0,0.0,0.0,0.0,0.0,0.0,0.0,0.0,0.0,0.0,0.0,0.0,0.0,0.0,0.0,0.0,0.0,0.0,0.0,0.0,0.0,0.0,0.0,0.0,0.0,0.0,0.0,-3.518,-3.3276,-3.2679,-3.5238,-3.5493,-3.5493,-3.5493,-3.3135,-3.2206,-3.3521,-3.1334,0.0,0.0,0.0,0.0,0.0,0.0,0.0,0.0,0.0,0.0,0.0,0.0,0.0,0.0,0.0,0.0,0.0,0.0,0.0,0.0,0.0,0.0,0.0,0.0,0.0,0.0,0.0,0.0,0.0,0.0,0.0,0.0,0.0,0.0,0.0,0.0,0.0,0.0,0.0,0.0,0.0,0.0,0.0,0.0,0.0,0.0,0.0,0.0,0.0,0.0,0.0,0.0,0.0,0.0,0.0,0.0,0.0,0.0,0.0,-3.5007,-3.4449,0.0,0.0,0.0,0.0,0.0,0.0,0.0,0.0,0.0,0.0,0.0,0.0,0.0,0.0,0.0,0.0,0.0,0.0,0.0,0.0,0.0,0.0,0.0,0.0,0.0,0.0,0.0,0.0,0.0,0.0,0.0,0.0,0.0,0.0,0.0,0.0,0.0,0.0,0.0,0.0,-3.5218,-3.3622,-3.3103,-3.5276,-3.5493,-3.5334,-3.4911,-3.3417,-3.234,-3.1993,-3.1184,0.0,0.0,0.0,0.0,0.0,0.0,0.0,0.0,0.0,0.0,0.0,0.0,0.0,0.0,0.0,0.0,0.0,0.0,0.0,0.0,0.0,0.0,0.0,0.0,0.0,0.0,0.0,0.0,0.0,0.0,0.0,0.0,0.0,0.0,0.0,0.0,0.0,0.0,0.0,0.0,0.0,0.0,0.0,0.0,0.0,0.0,0.0,0.0,0.0,0.0,0.0,0.0,0.0,-3.7488,-3.8604,-3.9315,-3.9988,-3.9604,-3.8392,-3.7834,-3.6065,-3.3737,-3.5834,0.0,0.0,0.0,0.0,0.0,0.0,0.0,0.0,0.0,0.0,0.0,0.0,0.0,0.0,0.0,0.0,0.0,0.0,0.0,0.0,0.0,0.0,-3.6901,-3.7845,-3.8305,-3.8077,-3.6542,0.0,0.0,0.0,0.0,0.0,0.0,0.0,0.0,0.0,0.0,0.0,-3.507,-3.4026,-3.3737,-3.5334,-3.5372,-3.5012,-3.4408,-3.3834,-3.2602,-3.0443,-3.1279,-3.1143,0.0,0.0,0.0,0.0,0.0,0.0,0.0,0.0,0.0,0.0,0.0,0.0,0.0,0.0,0.0,0.0,0.0,0.0,0.0,0.0,0.0,0.0,0.0,0.0,0.0,0.0,0.0,0.0,0.0,0.0,0.0,0.0,-2.8063,-2.8063,0.0,0.0,0.0,0.0,0.0,0.0,0.0,0.0,0.0,0.0,0.0,0.0,0.0,-3.5218,-3.6026,-3.7642,-3.818,-3.768,-3.8661,-3.9181,-3.9296,-3.9411,-3.9719,-4.02,-4.0854,0.0,-3.6238,-3.6565,0.0,0.0,0.0,0.0,0.0,0.0,0.0,0.0,0.0,0.0,0.0,0.0,0.0,0.0,0.0,0.0,0.0,0.0,0.0,0.0,0.0,0.0,-3.7901,-3.7303,-3.8277,-3.9284,-3.9033,-3.8058,-3.7046,-3.6479,-3.5883,-3.546,0.0,0.0,0.0,0.0,0.0,0.0,-3.432,-3.416,-3.441,-3.5391,-3.4814,-3.4534,-3.4945,-3.3408,-3.2166,-3.1591,-3.0861,-3.0341,-3.0092,-3.1206,0.0,0.0,0.0,0.0,0.0,0.0,0.0,0.0,0.0,0.0,0.0,0.0,0.0,0.0,0.0,0.0,0.0,0.0,0.0,0.0,0.0,0.0,0.0,0.0,0.0,0.0,0.0,0.0,0.0,-2.9217,-2.9313,-2.9313,-3.0044,-3.0737,0.0,0.0,0.0,0.0,0.0,0.0,0.0,0.0,0.0,-3.5007,-3.6257,-3.7315,-3.8142,-3.8911,-3.9835,-4.0873,-4.1258,-4.1931,-4.2854,-4.3355,-4.3489,-4.3412,-4.4297,-4.3258,-4.0893,-3.995,-3.9277,-3.8796,0.0,0.0,0.0,0.0,-3.8527,-3.8911,-3.9411,-3.9565,-3.9623,-3.9892,0.0,0.0,0.0,0.0,0.0,0.0,0.0,-3.7249,-3.6441,-3.7821,-3.941,-3.9324,-4.0195,-4.1078,-4.1078,-4.0168,-3.9107,-3.8266,-3.7843,-3.7466,-3.6972,-3.5761,0.0,0.0,0.0,-3.4012,-3.4623,-3.44,-3.4526,-3.5411,-3.5023,-3.4611,-3.438,-3.3317,-3.2411,-3.1856,-3.0803,-3.0393,-3.0852,-3.1328,-3.19,0.0,0.0,0.0,0.0,0.0,0.0,0.0,0.0,0.0,0.0,0.0,0.0,0.0,0.0,0.0,0.0,0.0,0.0,0.0,0.0,0.0,0.0,0.0,0.0,0.0,0.0,0.0,0.0,-2.966,-3.0083,-3.0083,-3.1218,-3.216,0.0,0.0,0.0,0.0,0.0,0.0,-3.5084,-3.6007,-3.6834,-3.7661,-3.8931,-4.0027,-4.0893,-4.1335,-4.2489,-4.4374,-4.4374,-4.4913,-4.5951,-4.6605,-4.6413,-4.5643,-4.6528,-4.6163,-4.4816,-4.2931,-4.1758,-4.1143,-4.0912,-4.0969,-4.1162,-4.1162,-4.1296,-4.1527,-4.1989,-4.2143,-4.205,-4.1519,-4.1144,-4.065,-3.9388,0.0,0.0,0.0,0.0,-3.8446,-3.8284,-3.9364,-4.0651,-4.1268,-4.2029,-4.2598,-4.2598,-4.2139,-4.1322,-3.9982,-3.9564,-3.9194,-3.8324,-3.6712,0.0,-3.575,-3.4885,-3.4395,-3.4924,-3.4601,-3.4576,-3.5232,-3.474,-3.4163,-3.3636,-3.2856,-3.2087,-3.1422,-3.0641,-3.0375,-3.076,-3.1182,-3.1678,-3.2284,0.0,0.0,0.0,0.0,0.0,0.0,0.0,0.0,0.0,0.0,0.0,0.0,0.0,0.0,0.0,0.0,0.0,0.0,0.0,0.0,0.0,0.0,0.0,0.0,0.0,0.0,0.0,0.0,0.0,-2.9159,-3.1333,0.0,0.0,0.0,0.0,-3.5372,-3.6045,-3.6853,-3.7757,-3.8642,-3.9469,-4.0277,-4.2701,-4.4393,-4.5259,-4.6855,-4.7721,-4.7855,-4.7855,-4.749,-4.6836,-4.6894,-4.6413,-4.5643,-4.6528,-4.6855,-4.6586,-4.4066,-4.3008,-4.2893,-4.2066,-4.2239,-4.297,-4.297,-4.3451,-4.4008,-4.3278,-4.3028,-4.3109,-4.3501,-4.286,-4.1895,-4.1801,-4.0683,0.0,0.0,-3.9207,-3.923,-3.9955,-4.0609,-4.124,-4.2047,-4.2837,-4.3424,-4.3424,-4.3406,-4.2769,-4.068,-3.964,-3.8858,-3.8048,0.0,-3.721,-3.5653,-3.5429,-3.5236,-3.4689,-3.4637,-3.4696,-3.4734,-3.3299,-3.2522,-3.3,-3.1592,-3.0587,-3.0312,-3.0228,-2.9879,-2.914,-3.0595,-3.1403,-3.1458,-3.2963,0.0,0.0,0.0,0.0,0.0,0.0,0.0,0.0,0.0,0.0,0.0,0.0,0.0,0.0,0.0,0.0,0.0,0.0,0.0,0.0,0.0,0.0,0.0,0.0,0.0,0.0,0.0,0.0,-3.3026,-3.4968,0.0,-3.7296,-3.7719,-3.8392,-3.9469,-3.9296,-3.9988,-4.195,-4.2874,-4.3739,-4.4586,-4.6009,-4.6894,-4.7201,-4.7798,-4.8375,-4.8913,-4.7836,-4.7451,-4.7663,-4.7144,-4.674,-4.649,-4.7317,-4.7682,-4.7605,-4.6701,-4.6317,-4.6297,-4.599,-4.6047,-4.6317,-4.6317,-4.6509,-4.6701,-4.6413,-4.6317,-4.6127,-4.4991,-4.3445,-4.1996,-4.1996,-4.1582,-4.1061,-4.0892,-4.1157,-4.1497,-4.1569,-4.211,-4.2708,-4.3002,-4.3277,-4.3497,-4.3497,-4.3497,-4.3256,-4.2507,-4.1304,-4.0142,-3.9312,-3.8346,-3.746,-3.6842,-3.6478,-3.6174,-3.5973,-3.5656,-3.5466,-3.5466,-3.4282,-3.3568,-3.3753,-3.2617,-3.2053,-3.2485,-3.1054,-3.054,-3.1292,-3.087,-3.1109,-3.2155,-3.2742,-3.3146,0.0,0.0,0.0,0.0,0.0,0.0,0.0,0.0,0.0,0.0,0.0,0.0,0.0,0.0,0.0,0.0,0.0,0.0,0.0,0.0,0.0,0.0,0.0,0.0,0.0,-3.2487,-3.4237,-3.6507,-3.8257,-3.9719,-4.0835,-4.0969,-4.1566,-4.2989,-4.2816,-4.3508,-4.547,-4.6124,-4.6701,-4.7298,-4.8105,-4.8548,-4.8548,-4.8836,-4.926,-4.9817,-4.8702,-4.8317,-4.8529,-4.799,-4.7586,-4.7355,-4.8182,-4.8548,-4.8567,-4.8856,-4.8971,-4.8952,-4.8644,-4.8721,-4.8952,-4.8835,-4.8776,-4.8698,-4.8288,-4.7872,-4.7319,-4.5981,-4.453,-4.3314,-4.3314,-4.3127,-4.2864,-4.2681,-4.2823,-4.2982,-4.2757,-4.3094,-4.3497,-4.3497,-4.3497,-4.3497,-4.3497,-4.3497,-4.3497,-4.3497,-4.2635,-4.1662,-4.0855,-3.9827,-3.9019,-3.8762,-3.7958,-3.7377,-3.7377,-3.6603,-3.604,-3.604,-3.484,-3.4068,-3.4068,-3.3165,-3.2724,-3.2963,-3.1494,-3.1072,-3.2155,-3.1164,-3.1237,-3.2577,-3.2871,-3.3128,-3.3385,0.0,0.0,0.0,0.0,0.0,0.0,0.0,0.0,0.0,0.0,0.0,0.0,0.0,0.0,0.0,0.0,0.0,0.0,0.0,0.0,0.0,0.0,0.0,-3.2987,-3.518,-3.743,-3.9161,-4.0854,-4.1912,-4.195,-4.3431,-4.4739,-4.5643,-4.6509,-4.7336,-4.8144,-4.8182,-4.8182,-4.8182,-4.899,-4.9433,-4.9433,-5.0279,-5.0702,-5.0702,-5.0702,-5.024,-4.9394,-4.9394,-4.8933,-4.8202,-4.9067,-4.9452,-4.9548,-5.0414,-5.0779,-5.0683,-4.9779,-4.9952,-5.0663,-5.0272,-5.0092,-4.991,-4.8699,-4.747,-4.6429,-4.6429,-4.62,-4.5902,-4.5902,-4.5369,-4.4745,-4.4745,-4.4176,-4.3552,-4.3552,-4.3552,-4.3534,-4.3534,-4.3516,-4.3479,-4.3513,-4.3532,-4.3532,-4.3513,-4.3513,-4.3275,-4.2433,-4.2304,-4.2029,-4.124,-3.9772,0.0,-3.8781,-3.7386,-3.6413,-3.6413,-3.4945,-3.3935,-3.388,-3.3164,-3.2357,-3.1513,-3.1439,-3.1439,-3.1439,-3.1403,-3.177,-3.2596,-3.3385,-3.344,-3.2687,0.0,0.0,0.0,0.0,0.0,0.0,0.0,0.0,0.0,0.0,0.0,0.0,0.0,0.0,0.0,0.0,0.0,0.0,0.0,0.0,0.0,-3.4314,-3.5449,-3.4872,-3.6988,-3.92,-4.0912,-4.2585,-4.4105,-4.5393,-4.5913,-4.6797,-4.824,-4.8586,-4.9086,-4.9933,-4.999,-4.999,-4.999,-5.0221,-5.0337,-5.0337,-5.0567,-5.0702,-5.0702,-5.0702,-5.024,-4.9394,-4.9394,-4.926,-4.9086,-4.9952,-5.0664,-5.1279,-5.2145,-5.251,-5.2375,-5.0914,-5.0491,-5.0683,-5.0584,-5.0358,-5.0054,-4.9708,-4.8588,-4.735,-4.735,-4.6697,-4.5902,-4.5902,-4.5755,-4.5571,-4.5571,-4.5406,-4.5241,-4.5241,-4.4819,-4.4378,-4.4378,-4.392,-4.3582,-4.3804,-4.3679,-4.3664,-4.4194,-4.4046,-4.3513,-4.25,-4.2304,-4.2029,-4.124,-4.0726,-4.0451,-4.0451,-3.9551,-3.8909,-3.8909,-3.7973,-3.689,-3.5716,-3.5404,-3.4669,-3.322,-3.2596,-3.2284,-3.2284,-3.1715,-3.177,-3.2596,-3.3385,-3.399,0.0,0.0,0.0,0.0,0.0,0.0,0.0,0.0,0.0,0.0,0.0,0.0,0.0,0.0,0.0,0.0,0.0,0.0,0.0,0.0,0.0,0.0,-3.795,-3.9469,-3.97,-4.0681,-4.2143,-4.4201,-4.5297,-4.6432,-4.7817,-4.7952,-4.8509,-4.9837,-5.026,-5.0664,-5.1183,-5.1548,-5.1741,-5.1741,-5.1395,-5.1375,-5.1741,-5.1395,-5.1395,-5.1741,-5.1741,-5.1471,-5.0991,-5.0991,-5.0991,-5.1029,-5.1529,-5.201,-5.2491,-5.2991,-5.3203,-5.3106,0.0,0.0,0.0,0.0,-5.0183,-4.9853,-4.9853,-4.9259,-4.8447,-4.8255,-4.7723,-4.7163,-4.7163,-4.6923,-4.6699,-4.6865,-4.6671,-4.6411,-4.6411,-4.5765,-4.517,-4.517,-4.4556,-4.4004,-4.4223,-4.4106,-4.4095,-4.4501,-4.4419,0.0,-4.339,-4.3119,-4.2797,-4.2209,-4.1827,-4.1607,-4.1607,-4.091,-4.0396,-4.0396,-3.9386,-3.8322,-3.7386,-3.6688,0.0,0.0,0.0,-3.2963,-3.2614,-3.2467,0.0,0.0,0.0,-3.4211,-3.499,-3.4541,0.0,0.0,-3.3846,-3.3579,0.0,0.0,0.0,0.0,0.0,0.0,0.0,0.0,0.0,0.0,0.0,0.0,0.0,0.0,0.0,0.0,-4.2335,-4.4143,-4.5932,-4.5586,-4.5893,-4.7875,-4.8202,-4.8548,-4.9317,-4.9567,-4.999,-5.0779,-5.1587,-5.2049,-5.2049,-5.2779,0.0,0.0,0.0,-5.2433,-5.3203,-5.2433,-5.2433,-5.3203,-5.3299,-5.3299,-5.3203,-5.3299,-5.3299,-5.3222,-5.3299,-5.3356,-5.3356,-5.3433,-5.3491,-5.3472,-5.328,-5.2683,-5.1777,-5.0811,-5.0095,-4.958,-4.9674,0.0,0.0,-4.9075,-4.8963,-4.8963,-4.8963,-4.846,-4.7978,-4.8333,-4.7909,-4.737,-4.737,-4.672,-4.6059,-4.5965,-4.5342,-4.4719,-4.4669,-4.465,-4.4606,-4.4682,-4.4682,-4.4676,-4.4676,-4.4318,-4.3974,-4.3679,-4.3023,-4.258,-4.258,-4.1954,-4.148,-4.148,-4.0222,0.0,-3.8969,-3.7614,-3.6305,-3.5257,-3.4403,-3.366,-3.3054,-3.3623,-3.3935,-3.3935,-3.4027,-3.4431,-3.5137,-3.5229,-3.6101,-3.7581,-3.5458,-3.4693,0.0,0.0,0.0,0.0,0.0,0.0,0.0,0.0,0.0,0.0,0.0,0.0,0.0,0.0,0.0,-4.2239,-4.4605,-4.7009,-4.9375,-5.0125,-4.9856,-4.8298,-4.8721,-4.9202,-4.9375,-5.0625,-5.1491,-5.1664,-5.2472,-5.2953,-5.2953,-5.3106,-5.3203,-5.3203,-5.3049,-5.3029,-5.3203,-5.3029,-5.3029,-5.3222,-5.3914,0.0,-5.3222,-5.3933,-5.3857,-5.3241,-5.3933,-5.4241,-5.4299,-5.4953,-5.5222,-5.5088,-5.3741,-5.2683,-5.1951,-5.2429,-5.1484,-5.007,-5.0742,-5.0304,-4.9475,-4.9416,-4.9386,-4.9386,-4.9386,-4.9273,0.0,-4.9248,-4.9164,-4.9032,-4.9032,-4.8438,-4.7645,-4.6938,-4.6145,-4.5451,-4.5095,-4.4781,-4.4757,-4.5303,-4.5201,-4.4988,-4.4988,-4.4707,-4.4474,-4.4392,-4.4261,-4.4167,-4.4167,-4.4016,-4.3922,-4.3922,-4.3641,-4.2645,-4.0641,-3.9952,-3.8664,-3.6508,-3.5366,-3.5018,-3.555,-3.5073,-3.4752,-3.4752,-3.5459,-3.5881,-3.6046,-3.6688,-3.7514,-3.8414,-3.6922,-3.6603,0.0,0.0,0.0,0.0,0.0,0.0,0.0,0.0,0.0,0.0,0.0,-3.9855,-4.1161,0.0,-4.4636,-4.7199,-4.8606,-5.001,-5.1702,-5.2299,-5.2087,-5.0798,-5.1048,-5.1298,-5.1298,-5.2068,-5.2549,-5.2549,-5.3356,-5.3857,-5.3857,-5.4222,-5.4453,-5.4453,-5.4068,-5.4049,-5.4453,-5.4049,-5.4049,-5.4453,-5.4895,-5.4876,-5.4472,-5.4895,-5.4857,-5.4472,-5.4914,-5.5107,-5.5126,-5.553,-5.5703,-5.5607,-5.478,-5.3933,-5.3203,-5.3203,-5.2543,-5.1644,-5.1606,-5.1209,-5.0602,-5.0005,-4.98,-4.98,-4.98,-4.98,-4.9827,-5.0043,-5.0092,-5.0092,-5.0092,-4.9463,-4.8743,-4.8281,-4.7556,-4.6876,-4.6663,-4.6139,-4.5965,-4.6723,-4.6052,-4.5495,-4.5936,-4.5509,-4.4988,-4.4657,-4.458,-4.458,-4.458,-4.4401,-4.429,-4.429,-4.3781,-4.2936,-4.1706,-4.0354,-3.8849,-3.722,-3.6196,-3.5862,-3.6266,-3.5881,-3.5661,-3.5661,-3.6083,-3.6486,-3.689,-3.7323,-3.79,-3.8689,-3.8003,-3.7766,0.0,0.0,0.0,0.0,0.0,0.0,0.0,-3.8717,-3.9773,-4.2137,-4.3034,-4.4342,-4.7463,-4.8343,-4.9451,-5.1973,-5.2589,-5.2895,-5.3414,-5.3626,-5.3703,-5.3683,-5.3549,-5.3395,-5.3222,-5.3491,-5.3626,-5.3472,-5.4241,-5.4722,-5.4722,-5.5338,-5.5703,-5.5703,-5.5068,-5.503,-5.5684,-5.5049,-5.5049,-5.5703,-5.5703,-5.5703,-5.5703,-5.5703,-5.5703,-5.5703,-5.5703,-5.5703,-5.5703,-5.5703,-5.5703,-5.5703,-5.5703,-5.5299,-5.4645,-5.3933,-5.3491,-5.3126,-5.2587,-5.2183,-5.1739,-5.0753,-5.034,-5.0245,-5.0397,-5.0455,-5.052,-5.0835,-5.0933,-5.0894,-5.0741,-5.0183,-4.9606,-4.9433,-4.8856,-4.8317,-4.8144,-4.7586,-4.7317,-4.7971,-4.7009,-4.6317,-4.7009,-4.6413,-4.5611,-4.4915,-4.4781,-4.4781,-4.4781,-4.4455,-4.4214,-4.4214,-4.3336,-4.2645,-4.2419,-4.0467,-3.8964,-3.826,-3.7294,-3.6835,-3.6982,-3.6688,-3.6523,-3.6523,-3.6688,-3.7,-3.7507,-3.7643,-3.8065,-3.8707,-3.8707,-3.8472,-3.873,-3.7871,-3.8066,-4.0097,-3.953,-4.0018,0.0,-4.6698,-4.6656,-4.8437,-5.0646,-5.1929,-5.0872,-5.2503,-5.3888,-5.3512,-5.4727,-5.5439,-5.4628,-5.5166,-5.5549,-5.5434,-5.478,-5.4049,-5.328,-5.4549,-5.5126,-5.4414,-5.5107,-5.5568,-5.5568,-5.5645,-5.5703,-5.5703,-5.5607,-5.5607,-5.5703,-5.5607,-5.5607,-5.5703,-5.5703,-5.5703,-5.5703,-5.5703,-5.5703,-5.5703,-5.5703,-5.5703,-5.5703,-5.5703,-5.5703,-5.5703,-5.5703,-5.5645,-5.5549,-5.5453,-5.4472,-5.3299,-5.3972,-5.3203,-5.1875,-5.1739,-5.122,-5.0778,-5.1489,-5.1699,-5.172,-5.174,-5.1779,-5.1606,-5.0894,-5.0625,-5.0356,-4.9586,-4.9336,-4.9048,-4.8279,-4.8029,-4.799,-4.8086,-4.7952,-4.7855,-4.7952,-4.7298,-4.6472,-4.561,-4.5495,-4.5495,-4.5495,-4.5182,-4.4966,-4.4966,-4.4607,-4.3905,-4.2861,-4.1853,-4.11,-4.0708,-3.9276,-3.8744,-3.946,-3.812,-3.7349,-3.7349,-3.8065,-3.812,-3.7507,-3.8212,-3.8615,-3.8707,-3.8707,-3.8683,-4.1777,-4.0937,-4.0762,-4.2891,-4.4375,-4.6055,-4.8926,-5.0016,-5.1079,-5.3295,-5.4623,-5.5485,-5.5765,-5.6582,-5.7109,-5.6749,-5.7228,-5.7509,-5.7101,-5.6888,-5.6361,-5.5245,-5.5224,-5.5126,-5.4703,-5.528,-5.5549,-5.5222,-5.5511,-5.5915,-5.6415,-5.6453,-5.6453,-5.6453,-5.6953,-5.6973,-5.6453,-5.6953,-5.6953,-5.6453,-5.6453,-5.6184,-5.5703,-5.5703,-5.5703,-5.5703,-5.5703,-5.5703,-5.5703,-5.5703,-5.5703,-5.5703,-5.5703,-5.5703,-5.5703,-5.5703,-5.5261,-5.4645,-5.453,-5.403,-5.3337,-5.2818,-5.2433,-5.2222,-5.2549,-5.2664,-5.2664,-5.2664,-5.2664,-5.2472,-5.1625,-5.1395,-5.1183,-5.0356,-5.0164,-5.0048,-4.9683,-4.9202,-4.9009,-4.951,-4.8798,-4.8259,-4.8779,-4.8163,-4.7471,-4.7105,-4.622,-4.5531,-4.5342,-4.503,-4.4657,-4.4204,-4.4035,-4.3769,-4.3245,-4.2456,-4.1968,-4.1809,-4.0744,-4.0249,-4.0579,-3.9955,-3.9606,-3.9606,-3.9937,-3.9937,-3.9588,-3.946,-3.9643,-4.0084,-3.9148,-3.8946,-4.2656,-4.2695,-4.3281,-4.5527,-4.8496,-5.1074,-5.1797,-5.3281,-5.5098,-5.7207,-5.7832,-5.8398,-5.9668,-5.9765,-5.959,-5.9355,-5.9226,-5.8991,-5.8484,-5.7657,-5.6519,-5.4882,-5.4786,-5.4878,-5.4991,-5.5434,-5.5703,-5.5703,-5.5915,-5.6319,-5.6953,-5.7223,-5.7357,-5.7357,-5.7973,-5.7992,-5.7357,-5.7973,-5.7857,-5.6992,-5.6992,-5.653,-5.5703,-5.5703,-5.5703,-5.5703,-5.5703,-5.5703,-5.5703,-5.5703,-5.5703,-5.5703,-5.5703,-5.5703,-5.5703,-5.5703,-5.5703,-5.5607,-5.503,-5.4684,-5.4395,-5.376,-5.3395,-5.3241,-5.3491,-5.3568,-5.3568,-5.3568,-5.3568,-5.3356,-5.2491,-5.226,-5.2106,-5.1529,-5.1395,-5.1318,-5.1087,-5.0548,-5.0202,-5.0606,-4.9683,-4.9029,-4.9644,-4.9048,-4.8471,-4.8471,-4.7221,-4.6128,-4.5665,-4.5005,-4.4337,-4.3712,-4.3548,-4.3497,-4.3497,-4.2965,-4.2635,-4.2635,-4.1882,-4.1442,-4.1442,-4.13,-4.1204,-4.1111,-4.1172,-4.1204,-4.1111,-4.0524,-4.0524,-4.1075,-4.0007,-3.9681,-4.0019,-4.1797,-4.4473,-4.793,-5.0723,-5.3281,-5.582,-5.7754,-5.9258,-6.0117,-6.0957,-6.1562,-6.1601,-6.1621,-6.1348,-6.0488,-6.0351,-5.9746,-5.7988,-5.6977,-5.6001,-5.4837,-5.3232,-5.2493,-5.3203,-5.4741,-5.5703,-5.5703,-5.6472,-5.6953,-5.6992,-5.78,-5.8261,-5.8261,-5.83,-5.83,-5.8261,-5.83,-5.7857,-5.6992,-5.6992,-5.653,-5.5703,-5.5703,-5.5703,-5.5703,-5.5703,-5.5703,-5.5703,-5.5703,-5.5703,-5.5703,-5.5703,-5.5703,-5.5703,-5.5703,-5.5703,-5.5703,-5.5665,-5.5145,-5.4491,-5.4472,-5.3895,-5.3356,-5.4203,-5.4453,-5.4453,-5.4453,-5.4453,-5.426,-5.3395,-5.3164,-5.3145,-5.3126,-5.3126,-5.2895,-5.2049,-5.1856,-5.1606,-5.0837,-5.0644,-5.0625,-5.0644,-4.9933,-4.9356,-4.9356,-4.8606,-4.774,-4.6952,-4.5544,-4.4447,-4.4046,-4.3693,-4.3497,-4.3497,-4.3461,-4.3442,-4.3442,-4.2708,-4.2268,-4.2268,-4.1834,-4.1438,-4.1111,-4.1408,-4.1438,-4.1111,-4.1093,-4.1093,-4.1111,-4.1382,-4.1073,-4.2676,-4.5176,-4.7988,-5.1426,-5.4238,-5.668,-5.8672,-6.0019,-6.0762,-6.0469,-5.9746,-5.9004,-5.8418,-5.7832,-5.7558,-5.7832,-5.8848,-5.9394,-5.8789,-5.8445,-5.7223,-5.4427,-5.4005,-5.336,-5.1818,-5.3107,-5.428,-5.4857,-5.6203,-5.7242,-5.7838,-5.8646,-5.9108,-5.9108,-5.9665,-5.9685,-5.9108,-5.9108,-5.8954,-5.8646,-5.753,-5.653,-5.5703,-5.5703,-5.5703,-5.5703,-5.5703,-5.5703,-5.5703,-5.5703,-5.5703,-5.5703,-5.5703,-5.5703,-5.5703,-5.5703,-5.5703,-5.5703,-5.5703,-5.5511,-5.5299,-5.5299,-5.5107,-5.4914,-5.5203,-5.5299,-5.5299,-5.5299,-5.5299,-5.5107,-5.428,-5.4068,-5.3914,-5.3337,-5.3203,-5.3126,-5.2837,-5.276,-5.251,-5.1664,-5.151,-5.1337,-5.0779,-5.0452,-5.026,-5.026,-4.8833,-4.7676,-4.7386,-4.6032,-4.4998,-4.4897,-4.4059,-4.3497,-4.3497,-4.3693,-4.3818,-4.3818,-4.3834,-4.383,-4.383,-4.3688,-4.3538,-4.3418,-4.3538,-4.3538,-4.3418,-4.2838,-4.2857,-4.3381,-4.2393,-4.2077,-4.5469,-4.8281,-5.1152,-5.4922,-5.7344,-5.916,-6.0547,-6.1308,-6.1367,-6.0215,-5.8867,-5.7539,-5.6348,-5.5176,-5.4668,-5.5527,-5.6348,-5.7207,-5.8144,-5.7734,-5.669,-5.4933,-5.4272,-5.3426,-5.1991,-5.2666,-5.3568,-5.4434,-5.6049,-5.7376,-5.8261,-5.9069,-5.9646,-5.9954,-6.0512,-6.0531,-5.9973,-5.9954,-5.9665,-5.905,-5.7646,-5.653,-5.5703,-5.5703,-5.5857,-5.6145,-5.6145,-5.6145,-5.6145,-5.6145,-5.5972,-5.5703,-5.5703,-5.5703,-5.5703,-5.5703,-5.5703,-5.5703,-5.5703,-5.5703,-5.5703,-5.5703,-5.5703,-5.5703,-5.5703,-5.5703,-5.5703,-5.5703,-5.5703,-5.5568,-5.5049,-5.4934,-5.478,-5.4222,-5.4087,-5.401,-5.3722,-5.3664,-5.3414,-5.2529,-5.2125,-5.1741,-5.1221,-5.0894,-5.0702,-5.0702,-4.9564,-4.8594,-4.8269,-4.6721,-4.5623,-4.5498,-4.4395,-4.3679,-4.3679,-4.3881,-4.4058,-4.4223,-4.4474,-4.458,-4.458,-4.4726,-4.4707,-4.4606,-4.4726,-4.4726,-4.458,-4.4039,-4.4058,-4.4587,-4.3615,-4.3284,-4.8223,-5.1055,-5.4043,-5.8223,-5.9863,-6.0664,-6.1465,-6.1562,-6.1015,-5.9297,-5.8144,-5.6914,-5.5156,-5.3496,-5.2695,-5.3652,-5.3262,-5.3711,-5.623,-5.5293,-5.4844,-5.623,-5.4138,-5.288,-5.3649,-5.3512,-5.3742,-5.4568,-5.6126,-5.7453,-5.8319,-5.9127,-5.9954,-6.0762,-6.08,-6.08,-6.08,-6.08,-5.9954,-5.83,-5.7453,-5.6626,-5.5818,-5.578,-5.6242,-5.7069,-5.7069,-5.7069,-5.7049,-5.7011,-5.6511,-5.5761,-5.5722,-5.5703,-5.5703,-5.5703,-5.5703,-5.5703,-5.5703,-5.5703,-5.5703,-5.5703,-5.5703,-5.5703,-5.5703,-5.5703,-5.5703,-5.5703,-5.5703,-5.5703,-5.5703,-5.5703,-5.5703,-5.5703,-5.5703,-5.5491,-5.4722,-5.4549,-5.4299,-5.3433,-5.2529,-5.1895,-5.1856,-5.1202,-5.0702,-5.0702,-5.0702,-5.0394,-4.9567,-4.7658,-4.6244,-4.5923,-4.4767,-4.4028,-4.4028,-4.4046,-4.4204,-4.4606,-4.4631,-4.4657,-4.4657,-4.4943,-4.4985,-4.4657,-4.4966,-4.4966,-4.4657,-4.4657,-4.4657,-4.4657,-4.4966,-4.4679,-5.1933,-5.5078,-5.7949,-5.9668,-6.0742,-6.1269,-6.082,-5.9765,-5.8183,-5.582,-5.3125,-5.0664,-4.8926,-4.8223,-4.8633,-5.082,-5.3125,-5.5098,-5.6406,-5.7851,-5.8223,-5.6738,-5.6426,-5.6116,-5.557,-5.5922,-5.6227,-5.634,-5.7357,-5.8338,-5.9146,-5.9992,-6.0569,-6.0781,-6.08,-6.08,-6.08,-6.08,-5.9954,-5.83,-5.8069,-5.7857,-5.7627,-5.6953,-5.7126,-5.7973,-5.7973,-5.7973,-5.7915,-5.7261,-5.6857,-5.6588,-5.5953,-5.5703,-5.5703,-5.5703,-5.5703,-5.5703,-5.5703,-5.5703,-5.5703,-5.5703,-5.5703,-5.5703,-5.5703,-5.5703,-5.5703,-5.5703,-5.5703,-5.5703,-5.5703,-5.5703,-5.5703,-5.5703,-5.5703,-5.5645,-5.5434,-5.5395,-5.5145,-5.4337,-5.2953,-5.1722,-5.1106,-5.0837,-5.0702,-5.0702,-5.0702,-5.0606,-5.0394,-4.8539,-4.7232,-4.7162,-4.5533,-4.4447,-4.4447,-4.4682,-4.4853,-4.4985,-4.5222,-4.5342,-4.5342,-4.5419,-4.5438,-4.5342,-4.5438,-4.5438,-4.5342,-4.5342,-4.5342,-4.5342,-4.5438,-4.5342,-5.5019,-5.7676,-5.9922,-6.0762,-6.1348,-6.1172,-5.9199,-5.8008,-5.6152,-5.2031,-4.9668,-4.7558,-4.5058,-4.4902,-4.5762,-4.7617,-5.0176,-5.2754,-5.5137,-5.6699,-5.7637,-5.7734,-5.7711,-5.7614,-5.7398,-5.7621,-5.7892,-5.8146,-5.8261,-5.8646,-5.9454,-5.9954,-6.0396,-6.0781,-6.08,-6.08,-6.08,-6.08,-6.0146,-5.8838,-5.8838,-5.8646,-5.828,-5.778,-5.803,-5.8838,-5.8838,-5.8838,-5.8761,-5.7915,-5.7338,-5.6896,-5.603,-5.5703,-5.5703,-5.5703,-5.5703,-5.5703,-5.5703,-5.5703,-5.5703,-5.5703,-5.5703,-5.5703,-5.5703,-5.5703,-5.5703,-5.5703,-5.5703,-5.5703,-5.5703,-5.5703,-5.5703,-5.5703,-5.5703,-5.5703,-5.5703,-5.5703,-5.5338,-5.4164,-5.3145,-5.2087,-5.0894,-5.0702,-5.0702,-5.0702,-5.0702,-5.0702,-5.0702,-4.9007,-4.775,-4.7621,-4.5931,-4.4825,-4.4825,-4.4988,-4.5161,-4.5322,-4.5495,-4.5586,-4.5586,-4.5586,-4.5586,-4.5586,-4.5586,-4.5586,-4.5586,-4.5586,-4.5624,-4.5699,-4.5699,-4.5699,-5.7598,-5.9375,-6.0742,-6.1504,-6.1523,-6.0508,-5.7187,-5.5996,-5.3965,-4.8262,-4.6816,-4.5625,-4.2461,-4.2617,-4.3633,-4.4961,0.0,-4.9277,-5.3574,-5.4375,-5.5644,-5.8672,-5.8457,-5.8318,-5.8972,-5.8938,-5.9123,-5.9796,-5.9108,-5.8934,-5.9646,-5.9665,-6.0012,-6.0781,-6.08,-6.08,-6.08,-6.08,-6.0416,-5.9665,-5.9569,-5.9204,-5.8627,-5.8396,-5.88,-5.9665,-5.955,-5.9569,-5.9608,-5.8684,-5.7857,-5.7069,-5.6088,-5.5703,-5.5703,-5.5703,-5.5703,-5.5703,-5.5703,-5.5703,-5.5703,-5.5703,-5.5703,-5.5703,-5.5703,-5.5703,-5.5703,-5.5703,-5.5703,-5.5703,-5.5703,-5.5703,-5.5703,-5.5703,-5.5703,-5.5703,-5.5703,-5.5703,-5.5203,-5.353,-5.3203,-5.2664,-5.0991,-5.0702,-5.0702,-5.0702,-5.0702,-5.0702,-5.0702,-4.9279,-4.8126,-4.7707,-4.6268,-4.5295,-4.518,-4.518,-4.5302,-4.5586,-4.5586,-4.5586,-4.5586,-4.5586,-4.5586,-4.5586,-4.5586,-4.5586,-4.5586,-4.5586,-4.568,-4.5796,-4.5796,-4.5849,-5.9668,-6.0703,-6.1504,-6.166,-6.0664,-5.8906,-5.6152,-5.2773,0.0,-4.5195,-4.2695,-4.082,-3.9492,-3.9961,-4.1777,-4.5469,-4.7539,-5.0176,-5.4473,-5.6308,-5.7441,0.0,-5.9199,-5.9898,-5.9828,-6.0423,-6.0742,-6.0627,-6.0454,-6.0435,-6.0569,-6.0569,-6.0646,-6.08,-6.08,-6.08,-6.08,-6.08,-6.0723,-6.0569,-5.9838,-5.98,-6.0319,-5.8934,-5.9127,-6.0531,-5.9819,-5.9915,-6.0454,-5.8934,-5.8204,-5.7915,-5.6319,-5.5703,-5.5703,-5.5703,-5.5703,-5.5703,-5.5703,-5.5703,-5.5703,-5.5703,-5.5703,-5.5703,-5.5703,-5.5703,-5.5703,-5.5703,-5.5703,-5.5703,-5.5703,-5.5703,-5.5703,-5.5703,-5.5703,-5.5703,-5.5703,-5.5703,-5.5203,-5.353,-5.3203,-5.2664,-5.0991,-5.0702,-5.0702,-5.0702,-5.0702,-5.0702,-5.0702,-4.9798,-4.8875,-4.8107,-4.7146,-4.6301,-4.5571,-4.5513,-4.555,-4.5605,-4.5586,-4.5586,-4.5586,-4.5586,-4.5586,-4.5586,-4.5586,-4.5586,-4.5586,-4.5586,-4.568,-4.5796,-4.5796,-4.5838,-6.0723,-6.1387,-6.1699,-6.1699,-6.0098,-5.748,-5.3535,0.0,0.0,-4.1367,-3.9766,-3.8828,-3.748,-3.8691,0.0,-4.2637,-4.4394,-4.7187,-5.1973,-5.3379,-5.5058,-5.8203,-5.8832,-5.9441,-6.0558,-6.017,-6.0111,-6.0742,-6.0377,-6.0319,-6.0781,-6.08,-6.08,-6.08,-6.08,-6.08,-6.08,-6.08,-6.08,-6.0781,-6.0377,-6.0396,-6.0762,-5.9973,-6.0031,-6.0781,-6.0358,-6.0416,-6.0666,-5.8992,-5.83,-5.8127,-5.6376,-5.5703,-5.5703,-5.5703,-5.5703,-5.5703,-5.5703,-5.5703,-5.5703,-5.5703,-5.5703,-5.5703,-5.5703,-5.5703,-5.5703,-5.5703,-5.5703,-5.5703,-5.5703,-5.5703,-5.5703,-5.5703,-5.5703,-5.5703,-5.5703,-5.5703,-5.5338,-5.4107,-5.3876,-5.3337,-5.1625,-5.1318,-5.1183,-5.076,-5.0702,-5.0702,-5.0702,-4.9933,-4.9067,-4.8202,-4.7394,-4.6547,-4.5663,-4.5586,-4.5586,-4.5586,-4.5586,-4.5586,-4.5586,-4.5586,-4.5586,-4.5586,-4.5586,-4.5586,-4.5586,-4.5586,-4.5699,-4.5853,-4.5844,-4.593,-6.0762,-6.1426,-6.1699,-6.1699,-5.9492,-5.6094,-5.1289,-4.7734,0.0,-3.8437,-3.7695,-3.7617,-3.625,-3.7676,-3.9258,0.0,-4.1152,-4.3965,-4.9199,-5.0234,-5.2419,-5.7684,-5.7965,-5.8491,-6.0498,-5.9379,-5.9053,-6.0416,-5.9896,-5.9877,-6.0742,-6.08,-6.08,-6.08,-6.08,-6.08,-6.08,-6.08,-6.08,-6.08,-6.0608,-6.0608,-6.0781,-6.0223,-6.0281,-6.0762,-6.0223,-6.0185,-6.0396,-5.8704,-5.803,-5.7877,-5.6299,-5.5703,-5.5703,-5.5703,-5.5703,-5.5703,-5.5703,-5.5703,-5.5703,-5.5703,-5.5703,-5.5703,-5.5703,-5.5703,-5.5703,-5.5703,-5.5703,-5.5703,-5.5703,-5.5703,-5.5703,-5.5703,-5.5703,-5.5703,-5.5703,-5.5703,-5.5415,-5.4414,-5.4222,-5.3664,-5.1952,-5.1645,-5.1433,-5.0798,-5.0702,-5.0702,-5.0702,-5.0087,-4.926,-4.8221,-4.7394,-4.6547,-4.5663,-4.5586,-4.5586,-4.5586,-4.5586,-4.5586,-4.5586,-4.5586,-4.5586,-4.5586,-4.5586,-4.5586,-4.5586,-4.5586,-4.5699,-4.5873,-4.5891,-4.5995,-5.918,-6.0547,-6.1699,-6.1699,-5.8594,-5.4609,-5.1016,0.0,-4.1719,-3.8047,-3.6738,-3.6191,-3.6035,-3.6191,-3.7148,-3.9512,0.0,-4.3125,-4.8281,-5.0332,-5.2338,-5.513,0.0,-5.7981,-5.8693,-5.8594,-5.8803,-5.955,-5.955,-5.9877,-6.0742,-6.08,-6.08,-6.08,-6.08,-6.08,-6.08,-6.08,-6.08,-6.0781,-5.9992,-6.0031,-6.0723,-5.8396,-5.8607,-6.0666,-5.8357,-5.8223,-5.9492,-5.78,-5.7107,-5.7011,-5.6069,-5.5703,-5.5703,-5.5703,-5.5703,-5.5703,-5.5703,-5.5703,-5.5703,-5.5703,-5.5703,-5.5703,-5.5703,-5.5703,-5.5703,-5.5703,-5.5703,-5.5703,-5.5703,-5.5703,-5.5703,-5.5703,-5.5703,-5.5703,-5.5703,-5.5703,-5.5222,-5.3626,-5.3318,-5.2799,-5.1087,-5.0798,-5.0779,-5.0702,-5.0702,-5.0702,-5.0702,-5.0625,-4.9933,-4.8279,-4.7394,-4.6547,-4.5663,-4.5586,-4.5586,-4.5586,-4.5586,-4.5586,-4.5586,-4.5586,-4.5586,-4.5586,-4.5586,-4.5586,-4.5586,-4.5586,-4.568,-4.5815,-4.5802,-4.5852,-5.7617,-5.9648,-6.0918,-6.0918,-5.7305,-5.2832,-4.9414,0.0,-4.0059,-3.7129,-3.623,-3.5996,-3.5996,-3.5996,-3.6504,0.0,0.0,0.0,-4.4961,-4.5488,-4.7513,-5.361,-5.4391,-5.5528,-5.8245,-5.7495,-5.7148,-5.7934,-5.8934,-5.9646,-5.9992,-6.0512,-6.055,-6.0031,-6.0012,-6.0012,-6.0012,-5.9531,-5.9531,-6.0012,-5.9665,-5.9435,-5.9281,-5.8742,-5.8781,-5.9242,-5.8223,-5.8165,-5.8684,-5.7492,-5.6992,-5.6896,-5.603,-5.5703,-5.5703,-5.5703,-5.5703,-5.5703,-5.5703,-5.5703,-5.5703,-5.5703,-5.5703,-5.5703,-5.5703,-5.5703,-5.5703,-5.5703,-5.5703,-5.5703,-5.5703,-5.5703,-5.5703,-5.5703,-5.5703,-5.5703,-5.5703,-5.5703,-5.5357,-5.4203,-5.3972,-5.3433,-5.1722,-5.1414,-5.126,-5.076,-5.0702,-5.0702,-5.0702,-4.9779,-4.9067,-4.8894,-4.8125,-4.7067,-4.572,-4.5586,-4.5586,-4.5586,-4.5586,-4.5586,-4.5586,-4.5586,-4.5586,-4.5586,-4.5586,-4.5586,-4.5586,-4.5586,-4.568,-4.5796,-4.5796,-4.5834,-5.4336,-5.7402,-5.9609,-5.9336,-5.5762,-5.1426,0.0,0.0,-3.916,-3.6543,-3.5996,-3.5996,-3.5996,-3.5996,-3.6191,0.0,0.0,-3.7519,-4.2285,-4.2598,-4.4704,-5.1145,-5.1698,-5.2986,-5.6646,-5.6434,-5.6222,-5.6588,-5.7953,-5.8877,-5.9127,-5.9954,-6.0127,-5.9511,-5.9281,-5.9146,-5.9146,-5.8588,-5.8704,-5.9492,-5.9261,-5.8973,-5.8665,-5.8723,-5.8588,-5.828,-5.7761,-5.7684,-5.7857,-5.6973,-5.6607,-5.6549,-5.5934,-5.5703,-5.5703,-5.5703,-5.5703,-5.5703,-5.5703,-5.5703,-5.5703,-5.5703,-5.5703,-5.5703,-5.5703,-5.5703,-5.5703,-5.5703,-5.5703,-5.5703,-5.5703,-5.5703,-5.5703,-5.5703,-5.5703,-5.5703,-5.5703,-5.5511,-5.5107,-5.428,-5.3914,-5.328,-5.1798,-5.1548,-5.1356,-5.0779,-5.0702,-5.0702,-5.0702,-4.9394,-4.8625,-4.8971,-4.8259,-4.7278,-4.6086,-4.574,-4.5586,-4.5586,-4.5586,-4.5586,-4.5586,-4.5586,-4.5586,-4.5586,-4.5586,-4.5586,-4.5586,-4.5586,-4.5643,-4.5738,-4.5738,-4.5776,-4.875,-5.3379,-5.7715,-5.6855,-5.4004,-5.0527,0.0,0.0,-3.916,-3.6543,-3.5996,-3.5996,-3.5996,-3.5996,-3.5996,-3.6016,0.0,0.0,-4.0976,-4.3379,-4.5572,-4.7258,-4.8856,-5.0778,-5.3217,-5.5605,-5.6626,-5.578,-5.653,-5.7396,-5.828,-5.9088,-5.9511,-5.9492,-5.8723,-5.8319,-5.8319,-5.83,-5.8704,-5.9492,-5.8684,-5.8723,-5.9435,-5.778,-5.7492,-5.8204,-5.6472,-5.6222,-5.6934,-5.6069,-5.5703,-5.5703,-5.5703,-5.5703,-5.5703,-5.5703,-5.5703,-5.5703,-5.5703,-5.5703,-5.5703,-5.5703,-5.5703,-5.5703,-5.5703,-5.5703,-5.5703,-5.5703,-5.5703,-5.5703,-5.5703,-5.5703,-5.5703,-5.5703,-5.5703,-5.5703,-5.5703,-5.5068,-5.4241,-5.3376,-5.2529,-5.1683,-5.0837,-5.0702,-5.0702,-5.0702,-5.0702,-5.0702,-5.0702,-4.9933,-4.9067,-4.8202,-4.7394,-4.6913,-4.6894,-4.6105,-4.5586,-4.5586,-4.5586,-4.5586,-4.5586,-4.5586,-4.5586,-4.5586,-4.5586,-4.5586,-4.5586,-4.5586,-4.5586,-4.5586,-4.5586,-4.5586,-4.3594,-4.6719,-4.9023,-4.873,-4.6953,-4.4668,-4.2422,0.0,-3.7715,-3.6289,-3.5996,-3.5996,-3.5996,-3.5996,-3.6387,-3.7578,-3.7734,0.0,0.0,0.0,0.0,-4.7856,-5.1644,-5.4225,-5.4893,-5.5665,-5.5992,-5.5722,-5.6511,-5.7107,-5.7396,-5.8223,-5.8934,-5.9473,-5.8723,-5.83,-5.83,-5.7126,-5.6953,-5.778,-5.753,-5.7223,-5.6915,-5.6973,-5.6819,-5.6492,-5.5934,-5.5857,-5.6088,-5.5799,-5.5703,-5.5703,-5.5703,-5.5703,-5.5703,-5.5703,-5.5703,-5.5703,-5.5703,-5.5703,-5.5703,-5.5703,-5.5703,-5.5703,-5.5703,-5.5703,-5.564,-5.5375,-5.5282,-5.5282,-5.5282,-5.5282,-5.5356,-5.5621,-5.5703,-5.5703,-5.5703,-5.5068,-5.4241,-5.3376,-5.251,-5.1645,-5.0837,-5.0702,-5.0702,-5.0702,-5.0702,-5.0702,-5.0702,-4.9933,-4.9298,-4.9029,-4.774,-4.6663,-4.6067,-4.5759,-4.5586,-4.5586,-4.5586,-4.5586,-4.5586,-4.5586,-4.5586,-4.5586,-4.5586,-4.5586,-4.5586,-4.5586,-4.5586,-4.5586,-4.5586,-4.5586,0.0,-4.1719,-4.3945,-4.3633,-4.25,0.0,0.0,-3.7578,-3.6074,-3.5195,-3.5019,-3.5117,-3.5449,-3.5483,-3.5947,-3.7382,-3.7676,-3.8419,-4.0438,-4.1858,-4.4154,-4.8085,-5.2046,-5.4531,-5.4741,-5.5318,-5.5703,-5.5703,-5.6203,-5.6646,-5.6973,-5.7511,-5.8184,-5.9031,-5.8242,-5.7646,-5.7319,-5.6242,-5.6126,-5.6992,-5.6992,-5.6703,-5.6203,-5.6742,-5.6511,-5.5703,-5.5703,-5.5703,0.0,-5.5703,-5.5703,-5.5703,-5.5703,-5.5703,-5.5703,-5.5703,-5.5703,-5.5703,-5.5703,-5.5703,-5.5703,-5.5703,-5.5703,-5.5703,-5.5703,-5.5703,-5.564,-5.5399,-5.5331,-5.5331,-5.5331,-5.5331,-5.5399,-5.564,-5.5703,-5.5703,-5.5703,-5.4799,-5.3857,-5.3318,-5.226,-5.1298,-5.0779,-5.0702,-5.0702,-5.0702,-5.0702,-5.0702,-5.0702,-4.9644,-4.9048,-4.9356,-4.7605,-4.6317,-4.6105,-4.5778,-4.5586,-4.5586,-4.5586,-4.5586,-4.5586,-4.5586,-4.5586,-4.5586,-4.5586,-4.5586,-4.5586,-4.5586,-4.5586,-4.5586,-4.5586,-4.5586,0.0,-3.7793,-4.1308,-4.0566,-3.9805,0.0,0.0,0.0,0.0,-3.3476,-3.3359,-3.3691,-3.4629,-3.4695,-3.4958,-3.6018,-3.7438,-3.8764,-3.9846,-4.2278,-4.5055,-4.8106,-5.0776,-5.2581,-5.3164,-5.4722,-5.5703,-5.5703,-5.5703,-5.6049,-5.6857,-5.6953,-5.7338,-5.8088,-5.7376,-5.6607,-5.5799,-5.5722,-5.6107,-5.6896,-5.6896,-5.6896,-5.6896,-5.6896,-5.6472,-5.5703,-5.5703,-5.5703,-5.5703,-5.5703,-5.5703,-5.5703,-5.5703,-5.5703,-5.5703,-5.5703,-5.5703,-5.5684,-5.5626,-5.5645,-5.5703,-5.5703,-5.5703,-5.5703,-5.5703,-5.5703,-5.5684,-5.5662,-5.5662,-5.5662,-5.5662,-5.5624,-5.5585,-5.5684,-5.5665,-5.5607,-5.5607,-5.4337,-5.3203,-5.3203,-5.1856,-5.0721,-5.0779,-5.0741,-5.0702,-5.0702,-5.0702,-5.0702,-5.0702,-4.9298,-4.8586,-4.9317,-4.724,-4.6086,-4.6836,-4.6105,-4.5586,-4.5586,-4.5586,-4.5586,-4.5586,-4.5586,-4.5586,-4.5586,-4.5586,-4.5586,-4.5586,-4.5586,-4.5586,-4.5586,-4.5586,-4.5586,-2.9668,0.0,-3.2559,-3.2363,-3.2676,-3.2734,0.0,0.0,0.0,0.0,0.0,0.0,-3.541,-3.5084,-3.5335,-3.7624,-3.8214,-3.8955,-4.0515,-4.5112,-4.8778,-4.999,-5.3009,-5.4528,-5.3318,-5.4722,-5.5703,-5.5703,-5.5703,-5.578,-5.5992,-5.6626,-5.678,-5.6319,-5.6761,-5.6896,-5.6684,-5.603,-5.5799,-5.6011,-5.6011,-5.6011,-5.6011,-5.6011,-5.5876,-5.5703,-5.5703,-5.5703,-5.5703,-5.5703,-5.5703,-5.5703,-5.5703,-5.5703,-5.5703,-5.5703,-5.5703,-5.5607,-5.4991,-5.5184,-5.5703,-5.5703,-5.5703,-5.5703,-5.5703,-5.5703,-5.564,-5.5331,-5.5237,-5.5237,-5.5237,-5.4759,-5.4484,-5.5467,-5.5222,-5.478,-5.478,-5.3953,-5.3203,-5.3203,-5.1856,-5.0894,-5.151,-5.1106,-5.0702,-5.0702,-5.0702,-5.0702,-5.0702,-5.0414,-5.0029,-4.9452,-4.8355,-4.7471,-4.6951,-4.6105,-4.5586,-4.5586,-4.5586,-4.5586,-4.5586,-4.5586,-4.5586,-4.5586,-4.5586,-4.5586,-4.5586,-4.5586,-4.5586,-4.5586,-4.5586,-4.5586,-2.832,-2.9238,-3.0098,-2.9707,-2.9941,-3.0273,0.0,0.0,0.0,0.0,0.0,0.0,0.0,0.0,0.0,-3.7448,-3.8416,-3.9869,-4.2789,-4.6608,-4.9624,-5.1087,-5.326,-5.4568,-5.4376,-5.5164,-5.5703,-5.5703,-5.5703,-5.5703,-5.5703,-5.6145,-5.6184,-5.5703,-5.6145,-5.6395,-5.6395,-5.5934,-5.5703,-5.5703,-5.5703,-5.5703,-5.5703,-5.5703,-5.5703,-5.5703,-5.5703,-5.5703,-5.5703,-5.5703,-5.5703,-5.5703,-5.5703,-5.5703,-5.5703,-5.5703,-5.5472,-5.5088,-5.4645,-5.478,-5.5145,-5.5145,-5.5395,-5.5703,-5.5703,-5.5434,-5.5182,-5.5327,-5.5375,-5.5375,-5.5375,-5.4743,-5.4388,-5.5448,-5.5088,-5.4491,-5.4491,-5.4126,-5.3683,-5.328,-5.2145,-5.1395,-5.1837,-5.1221,-5.0702,-5.0702,-5.0702,-5.0721,-5.0779,-5.051,-5.0122,-4.9644,-4.848,-4.7528,-4.699,-4.6124,-4.5586,-4.5586,-4.5586,-4.5586,-4.5586,-4.5586,-4.5586,-4.5586,-4.5586,-4.5586,-4.5586,-4.5586,-4.5586,-4.5586,-4.5586,-4.5586,-2.8144,-2.9668,-3.0781,-2.9506,-2.9288,-2.9544,0.0,0.0,0.0,0.0,0.0,0.0,0.0,-3.3528,0.0,0.0,-3.8955,-4.1635,-4.5799,-4.7818,-4.9548,-5.1491,-5.2818,-5.3991,-5.5011,-5.5472,-5.5703,-5.5703,-5.5703,-5.5703,-5.5703,-5.5703,-5.5703,-5.5703,-5.5703,-5.5703,-5.5703,-5.5703,-5.5703,-5.5703,-5.5703,-5.5703,-5.5703,-5.5703,-5.5703,-5.5703,-5.5703,-5.5703,-5.5684,-5.5568,-5.5511,-5.5511,-5.5511,-5.5511,-5.553,-5.5645,-5.5184,-5.4472,-5.4357,-5.4299,-5.4318,-5.4453,-5.503,-5.5703,-5.5703,-5.5222,-5.4818,-5.5511,-5.5607,-5.5491,-5.5338,-5.4799,-5.4511,-5.5318,-5.478,-5.4184,-5.4434,-5.4395,-5.4087,-5.3337,-5.251,-5.1914,-5.1914,-5.1221,-5.0702,-5.0702,-5.0702,-5.0741,-5.0856,-5.0124,-4.9682,-4.9909,-4.8245,-4.7163,-4.7355,-4.6278,-4.5663,-4.5778,-4.5663,-4.5586,-4.5586,-4.5586,-4.5586,-4.5586,-4.5586,-4.5586,-4.5586,-4.5586,-4.5586,-4.5586,-4.5586,-4.5586,-2.8457,-3.0117,-3.1244,-2.8099,-2.7868,-2.8237,0.0,0.0,0.0,0.0,0.0,0.0,0.0,-3.4823,-3.6098,0.0,-4.1742,-4.4972,-4.851,-5.0355,-5.1241,-5.0914,-5.351,-5.4568,-5.2683,-5.4434,-5.5703,-5.5703,-5.5703,-5.5703,-5.5703,-5.5703,-5.5703,-5.5703,-5.5703,-5.5703,-5.5703,-5.5703,-5.5703,-5.5703,-5.5703,-5.5703,-5.5703,-5.5703,-5.5703,-5.5703,-5.5703,-5.5703,-5.5645,-5.4972,-5.4684,-5.4684,-5.4684,-5.4684,-5.4761,-5.5453,-5.5184,-5.4395,-5.3664,-5.3395,-5.353,-5.426,-5.503,-5.5703,-5.5703,-5.5607,-5.553,-5.5665,-5.5203,-5.4511,-5.378,-5.3491,-5.3626,-5.4472,-5.3472,-5.2702,-5.4184,-5.3914,-5.3356,-5.3241,-5.251,-5.1914,-5.1914,-5.1221,-5.0702,-5.0702,-5.0702,-5.0702,-5.0721,-5.0082,-4.9848,-5.0486,-4.8486,-4.7622,-4.8913,-4.6913,-4.5913,-4.6644,-4.6009,-4.5586,-4.5586,-4.5586,-4.5586,-4.5586,-4.5586,-4.5586,-4.5586,-4.5586,-4.5586,-4.5586,-4.5586,-4.5586,-2.7662,-2.8449,-2.9092,-2.7815,-2.9236,-3.0714,-2.9757,0.0,0.0,0.0,0.0,0.0,0.0,0.0,-3.754,-4.1492,-4.4203,-4.6511,-4.851,-4.9817,-5.0587,-5.0683,-5.2856,-5.3895,-5.2722,-5.4472,-5.5318,-5.4414,-5.478,-5.5049,-5.5049,-5.5049,-5.5241,-5.5684,-5.5703,-5.5703,-5.5703,-5.5703,-5.5703,-5.5703,-5.5703,-5.5703,-5.5703,-5.5703,-5.5453,-5.5068,-5.5511,-5.5184,-5.4357,-5.4453,-5.4222,-5.3799,-5.3799,-5.3799,-5.3799,-5.3683,-5.3414,-5.2991,-5.2145,-5.2125,-5.2568,-5.2972,-5.3664,-5.4357,-5.4357,-5.4357,-5.4241,-5.378,-5.4068,-5.4511,-5.453,-5.3876,-5.353,-5.4838,-5.4203,-5.353,-5.4337,-5.4184,-5.376,-5.3299,-5.251,-5.1914,-5.1914,-5.1221,-5.0702,-5.0702,-5.0702,-5.0721,-5.0818,-5.0522,-5.0287,-5.0221,-4.9162,-4.8547,-4.8798,-4.7663,-4.674,-4.622,-4.5817,-4.5586,-4.5586,-4.5586,-4.5586,-4.5586,-4.5586,-4.5586,-4.5586,-4.5586,-4.5586,-4.5586,-4.5586,-4.5586,-2.6893,-2.7204,-2.7585,-2.7663,0.0,-3.1879,-3.2346,0.0,0.0,0.0,0.0,0.0,0.0,-3.7156,-3.9438,-4.3874,-4.6047,-4.7605,-4.8817,-4.9567,-5.0221,-5.0894,-5.2299,-5.3203,-5.3203,-5.4357,-5.4664,-5.3587,-5.3933,-5.4203,-5.4203,-5.4203,-5.4472,-5.5107,-5.5107,-5.5107,-5.5107,-5.5107,-5.5299,-5.5703,-5.5511,-5.5415,-5.5415,-5.5203,-5.478,-5.4222,-5.4857,-5.4395,-5.3241,-5.3703,-5.351,-5.2895,-5.2895,-5.3029,-5.3087,-5.2222,-5.1914,-5.1779,-5.0971,-5.1221,-5.1914,-5.1914,-5.2491,-5.3203,-5.3203,-5.3203,-5.3068,-5.2395,-5.3029,-5.3991,-5.4414,-5.3722,-5.3222,-5.4491,-5.4203,-5.3722,-5.4107,-5.4049,-5.3683,-5.3029,-5.2375,-5.1856,-5.1664,-5.1106,-5.0702,-5.0702,-5.0702,-5.0741,-5.0856,-5.0683,-5.0414,-5.0048,-4.9548,-4.899,-4.8298,-4.8355,-4.7682,-4.6009,-4.5893,-4.5797,-4.5605,-4.5586,-4.5586,-4.5586,-4.5586,-4.5586,-4.5586,-4.5586,-4.5586,-4.5586,-4.5586,-4.5586,-2.6837,-2.7995,-2.884,-2.7189,0.0,0.0,-3.3006,-3.2833,0.0,-3.6834,0.0,0.0,0.0,-3.9815,-4.2335,-4.5047,-4.6913,-4.8856,-5.1298,-5.1683,-5.1741,-5.1818,-5.2626,-5.3203,-5.3203,-5.3318,-5.3664,-5.4357,-5.3722,-5.3299,-5.3299,-5.3299,-5.3318,-5.3376,-5.3376,-5.3376,-5.3376,-5.3376,-5.4164,-5.5684,-5.4934,-5.4587,-5.4549,-5.376,-5.3356,-5.3299,-5.3356,-5.3318,-5.3145,-5.2395,-5.2049,-5.1991,-5.1991,-5.2491,-5.3087,-5.2222,-5.1914,-5.1779,-5.0971,-5.1221,-5.1914,-5.1914,-5.2491,-5.3203,-5.3203,-5.3203,-5.3203,-5.3126,-5.2606,-5.1933,-5.1241,-5.1529,-5.2029,-5.2145,-5.1568,-5.1395,-5.2953,-5.2664,-5.2087,-5.201,-5.1952,-5.1664,-5.0914,-5.0741,-5.0702,-5.0702,-5.0702,-5.0702,-5.0702,-5.001,-4.9798,-5.0548,-4.9183,-4.8182,-4.8125,-4.8856,-4.8586,-4.6913,-4.6817,-4.6432,-4.5624,-4.5586,-4.5586,-4.5586,-4.5586,-4.5586,-4.5586,-4.5586,-4.5586,-4.5586,-4.5586,-4.5586,-2.5959,-2.7239,-2.8409,-2.764,0.0,0.0,0.0,0.0,-3.4968,-3.8142,-3.9469,0.0,0.0,-4.245,-4.447,-4.5432,-4.7451,-4.924,-5.0221,-5.1241,-5.1722,-5.1202,-5.2356,-5.2799,-5.1741,-5.2587,-5.2895,-5.2183,-5.1818,-5.1856,-5.2375,-5.1914,-5.2125,-5.3164,-5.3203,-5.3203,-5.3203,-5.3203,-5.326,-5.3337,-5.3587,-5.3683,-5.3683,-5.3356,-5.2914,-5.2433,-5.2972,-5.2606,-5.1664,-5.1837,-5.1606,-5.1144,-5.1144,-5.1356,-5.1606,-5.1279,-5.1144,-5.1106,-5.0798,-5.0894,-5.1144,-5.1144,-5.1375,-5.1645,-5.1645,-5.1991,-5.2299,-5.1779,-5.1779,-5.1952,-5.2183,-5.2087,-5.2049,-5.2587,-5.2491,-5.2433,-5.3068,-5.2529,-5.1914,-5.1914,-5.151,-5.1048,-5.0741,-5.0702,-5.0702,-5.0702,-5.0702,-5.0702,-5.0702,-5.0414,-5.0317,-5.0644,-5.0106,-4.9721,-4.9721,-5.001,-4.9471,-4.7759,-4.7182,-4.6509,-4.5624,-4.5586,-4.5586,-4.5586,-4.5586,-4.5586,-4.5586,-4.5586,-4.5586,-4.5586,-4.5586,-4.5586,-2.539,-2.6263,-2.727,0.0,0.0,0.0,0.0,0.0,-3.6834,-4.0181,-4.1104,-4.1662,-4.2797,-4.3989,-4.497,-4.5509,-4.7509,-4.9086,-4.9356,-5.0394,-5.0914,-5.0356,-5.1298,-5.1664,-5.0779,-5.1741,-5.2049,-5.1144,-5.0587,-5.0644,-5.1491,-5.0471,-5.0529,-5.1952,-5.201,-5.1875,-5.1587,-5.1856,-5.1568,-5.0721,-5.1298,-5.1875,-5.2414,-5.2414,-5.1933,-5.1144,-5.1741,-5.1183,-4.9913,-5.0471,-5.0375,-4.9875,-4.9875,-4.9875,-4.9875,-4.9875,-5.0048,-5.0279,-5.0279,-5.0471,-5.0702,-5.0702,-5.0702,-5.0702,-5.0702,-5.1087,-5.1414,-5.0837,-5.1106,-5.1664,-5.226,-5.1972,-5.1664,-5.2279,-5.2414,-5.2414,-5.2414,-5.1933,-5.1529,-5.1529,-5.1087,-5.0702,-5.0702,-5.0702,-5.0702,-5.0702,-5.0702,-5.0702,-5.0702,-5.0702,-5.0702,-5.0702,-5.0702,-5.0702,-5.0702,-5.0702,-4.9952,-4.8221,-4.7586,-4.6778,-4.5643,-4.5586,-4.5586,-4.5586,-4.5586,-4.5586,-4.5586,-4.5586,-4.5586,-4.5586,-4.5586,-4.5586,-2.5322,-2.5303,-2.5534,0.0,0.0,0.0,0.0,0.0,-3.8142,-4.3239,-4.3662,-4.3624,-4.5278,-4.4239,-4.3662,-4.5316,-4.699,-4.8394,-4.924,-4.9375,-4.9394,-4.9394,-4.9394,-4.9721,-5.0587,-5.0664,-5.101,-5.1818,-5.0317,-4.976,-5.0625,-4.9048,-4.849,-4.9356,-4.9394,-4.8971,-4.8105,-4.8952,-4.8952,-4.8086,-4.8105,-4.899,-5.0664,-5.0664,-5.0202,-4.9394,-4.9394,-4.8894,-4.8105,-4.8105,-4.8105,-4.8105,-4.8105,-4.8105,-4.8105,-4.8105,-4.8644,-4.9394,-4.9394,-4.9952,-5.0664,-5.0664,-5.0664,-5.0664,-5.0664,-5.0664,-5.0664,-5.0683,-5.0683,-5.0683,-5.0702,-5.0702,-5.0702,-5.0702,-5.0702,-5.0702,-5.0702,-5.0702,-5.0702,-5.0702,-5.0702,-5.0702,-5.0702,-5.0702,-5.0702,-5.0702,-5.0702,-5.0702,-5.0702,-5.0702,-5.0702,-5.0702,-5.0702,-5.0702,-5.0702,-5.0702,-4.9952,-4.8221,-4.8105,-4.7355,-4.5663,-4.5586,-4.5586,-4.5586,-4.5586,-4.5586,-4.5586,-4.5586,-4.5586,-4.5586,-4.5586,-4.5586,-2.5303,-2.6197,0.0,0.0,0.0,0.0,0.0,0.0,0.0,0.0,-4.372,-4.4105,-4.4586,-4.4778,-4.4816,-4.4701,-4.6124,-4.7355,-4.7605,-4.8125,-4.849,-4.849,-4.849,-4.8586,-4.8856,-4.8875,-4.9221,-5.0087,-4.8586,-4.8279,-4.9702,-4.8182,-4.7625,-4.8471,-4.849,-4.8355,-4.8105,-4.8355,-4.8067,-4.7259,-4.7836,-4.8375,-4.8875,-4.8875,-4.874,-4.849,-4.849,-4.8336,-4.8105,-4.8105,-4.8105,-4.8105,-4.8105,-4.8105,-4.8105,-4.8105,-4.8259,-4.849,-4.849,-4.8644,-4.8875,-4.8875,-4.8875,-4.8875,-4.8875,-4.8875,-4.899,-4.9606,-4.9779,-4.9952,-5.0644,-5.0856,-5.0837,-5.0721,-5.076,-5.0818,-5.0721,-5.0702,-5.0702,-5.0702,-5.0702,-5.0702,-5.0702,-5.0702,-5.0702,-5.0702,-5.0702,-5.0702,-5.0702,-5.0702,-5.0702,-5.0702,-5.0702,-5.0702,-5.0702,-5.0702,-5.0221,-4.9086,-4.8432,-4.7355,-4.5663,-4.5586,-4.5586,-4.5586,-4.5586,-4.5586,-4.5586,-4.5586,-4.5586,-4.5586,-4.5586,-4.5586,-2.5707,0.0,0.0,0.0,0.0,-3.5334,-3.768,0.0,0.0,0.0,-4.4432,-4.4509,-4.5201,-4.5201,-4.5009,-4.4855,-4.599,-4.6913,-4.6913,-4.7317,-4.7625,-4.7625,-4.7625,-4.7625,-4.7625,-4.7913,-4.8317,-4.8836,-4.7644,-4.749,-4.8817,-4.7298,-4.6759,-4.7605,-4.7625,-4.7471,-4.7105,-4.7451,-4.724,-4.6471,-4.6894,-4.7144,-4.724,-4.7836,-4.7932,-4.7605,-4.7259,-4.7105,-4.7105,-4.7105,-4.7105,-4.7105,-4.7105,-4.7105,-4.7105,-4.7105,-4.7336,-4.7625,-4.7625,-4.7836,-4.8105,-4.8105,-4.8105,-4.8105,-4.8105,-4.8105,-4.8279,-4.9144,-4.9433,-4.9702,-5.0664,-5.0972,-5.0972,-5.081,-5.0835,-5.0875,-5.0721,-5.0702,-5.0702,-5.0702,-5.0702,-5.0702,-5.0702,-5.0702,-5.0702,-5.0702,-5.0702,-5.0702,-5.0702,-5.0702,-5.0702,-5.0702,-5.0702,-5.0702,-5.0702,-5.0702,-5.0183,-4.8952,-4.8394,-4.7355,-4.5663,-4.5586,-4.5586,-4.5586,-4.5586,-4.5586,-4.5586,-4.5586,-4.5586,-4.5586,-4.5586,-4.5586,-2.637,0.0,0.0,0.0,0.0,0.0,-4.0008,-4.2527,-4.4643,-4.624,-4.5413,-4.4893,-4.649,-4.549,-4.4682,-4.547,-4.6259,-4.6778,-4.6778,-4.6778,-4.6778,-4.6778,-4.6778,-4.6778,-4.6778,-4.7451,-4.7913,-4.799,-4.724,-4.7144,-4.7952,-4.6471,-4.5951,-4.6759,-4.6778,-4.6413,-4.5624,-4.6394,-4.6471,-4.5815,-4.5695,-4.5714,-4.595,-4.7278,-4.749,-4.6759,-4.597,-4.5624,-4.5624,-4.5624,-4.5624,-4.5624,-4.5624,-4.5624,-4.5624,-4.5605,-4.6124,-4.6797,-4.6797,-4.7259,-4.7875,-4.7875,-4.7875,-4.7875,-4.7875,-4.7875,-4.8048,-4.8933,-4.9259,-4.9548,-5.0451,-5.0798,-5.091,-5.0807,-5.0841,-5.0895,-5.0721,-5.0702,-5.0702,-5.0702,-5.0702,-5.0702,-5.0702,-5.0702,-5.0702,-5.0702,-5.0702,-5.0702,-5.0702,-5.0702,-5.0702,-5.0702,-5.0702,-5.0702,-5.0702,-5.0625,-4.9913,-4.8317,-4.8086,-4.7317,-4.5778,-4.5624,-4.5586,-4.5586,-4.5586,-4.5586,-4.5586,-4.5586,-4.5586,-4.5586,-4.5586,-4.5586,0.0,-2.7236,0.0,0.0,0.0,-3.9969,-4.2066,-4.2951,-4.3451,-4.3835,-4.4662,-4.5432,-4.5797,-4.5566,-4.5374,-4.5566,-4.5759,-4.5874,-4.5874,-4.5874,-4.5874,-4.5874,-4.5874,-4.5874,-4.5874,-4.6028,-4.6413,-4.7105,-4.6355,-4.624,-4.7105,-4.6163,-4.5682,-4.5874,-4.5874,-4.5836,-4.5757,-4.595,-4.5988,-4.5873,-4.5861,-4.5867,-4.5911,-4.618,-4.6238,-4.6103,-4.593,-4.5834,-4.5834,-4.5834,-4.5834,-4.5834,-4.5834,-4.5834,-4.5834,-4.5776,-4.5892,-4.6009,-4.5913,-4.599,-4.6144,-4.6144,-4.6144,-4.6144,-4.6144,-4.6144,-4.6317,-4.7201,-4.7471,-4.7679,-4.8619,-4.8875,-4.9079,-4.9729,-5.0489,-5.0991,-5.0741,-5.0702,-5.0702,-5.0702,-5.0702,-5.0702,-5.0702,-5.0702,-5.0702,-5.0702,-5.0702,-5.0702,-5.0702,-5.0702,-5.0702,-5.0702,-5.0702,-5.0702,-5.0702,-5.0067,-4.951,-4.9144,-4.7894,-4.7009,-4.6644,-4.5951,-4.5586,-4.5586,-4.5586,-4.5586,-4.5586,-4.5586,-4.5586,-4.5586,-4.5586,-4.5586,0.0,0.0,0.0,0.0,0.0,-3.9738,-4.147,-4.1854,-4.2085,-4.2931,-4.4105,-4.497,-4.497,-4.497,-4.5105,-4.5528,-4.524,-4.497,-4.497,-4.497,-4.497,-4.497,-4.497,-4.5143,-4.5547,-4.5586,-4.5778,-4.624,-4.5855,-4.5797,-4.624,-4.5836,-4.5624,-4.5699,-4.5699,-4.5738,-4.5853,-4.5853,-4.5699,-4.5355,-4.534,-4.5142,-4.4818,-4.5525,-4.5874,-4.5912,-4.5912,-4.5912,-4.5912,-4.5912,-4.5912,-4.5912,-4.5912,-4.5912,-4.5912,-4.5874,-4.5838,-4.5796,-4.5719,-4.5643,-4.5586,-4.5586,-4.5586,-4.5586,-4.5586,-4.5586,-4.5778,-4.6644,-4.6951,-4.7197,-4.806,-4.8338,-4.8597,-4.941,-4.999,-5.0433,-5.0644,-5.0702,-5.0567,-5.0164,-5.0414,-5.0567,-5.0144,-5.0414,-5.0702,-5.0702,-5.0702,-5.0702,-5.0702,-5.0702,-5.0702,-5.0702,-5.0702,-5.0702,-5.0702,-4.9894,-4.9221,-4.8798,-4.7605,-4.6913,-4.6913,-4.6067,-4.5586,-4.5586,-4.5586,-4.5586,-4.5586,-4.5586,-4.5586,-4.5586,-4.5586,-4.5586,0.0,0.0,0.0,0.0,0.0,0.0,-3.9719,-4.0065,-4.0469,-4.1912,-4.322,-4.4085,-4.4085,-4.4085,-4.4335,-4.5047,-4.4547,-4.4085,-4.4085,-4.4085,-4.4085,-4.4085,-4.4085,-4.4374,-4.5086,-4.5278,-4.5374,-4.5374,-4.5509,-4.5605,-4.5624,-4.5624,-4.5624,-4.5605,-4.5613,-4.5574,-4.549,-4.5493,-4.5192,-4.4617,-4.455,-4.4217,-4.3667,-4.4948,-4.5604,-4.576,-4.5896,-4.5974,-4.5974,-4.5974,-4.5974,-4.5974,-4.5974,-4.5974,-4.5974,-4.5935,-4.589,-4.5853,-4.5828,-4.5738,-4.5643,-4.5643,-4.5643,-4.5643,-4.5643,-4.5643,-4.5797,-4.6528,-4.6815,-4.7026,-4.7699,-4.7948,-4.8255,-4.9143,-4.9336,-4.9586,-5.0491,-5.0702,-5.0491,-4.976,-5.0202,-5.0471,-4.974,-5.0221,-5.0702,-5.0702,-5.0702,-5.0702,-5.0702,-5.0702,-5.0702,-5.0702,-5.0567,-5.0471,-5.0471,-4.9548,-4.8663,-4.7952,-4.7124,-4.674,-4.6894,-4.6067,-4.5663,-4.5817,-4.5682,-4.5586,-4.5586,-4.5586,-4.5586,-4.5586,-4.5586,-4.5586,0.0,0.0,0.0,0.0,-3.5718,-3.7142,0.0,0.0,-3.8392,-3.8623,-4.1123,-4.3258,-4.3258,-4.3258,-4.3297,-4.3412,-4.3335,-4.3258,-4.3258,-4.3258,-4.3258,-4.3258,-4.3258,-4.3316,-4.3412,-4.4066,-4.447,-4.447,-4.5163,-4.5643,-4.5776,-4.5776,-4.549,-4.4876,-4.4853,-4.4543,-4.3917,-4.391,-4.3901,-4.3854,-4.3842,-4.3773,-4.3703,-4.3896,-4.441,-4.5153,-4.5915,-4.6247,-4.6247,-4.6247,-4.6247,-4.6247,-4.6247,-4.6247,-4.6228,-4.613,-4.6067,-4.6042,-4.593,-4.5873,-4.5853,-4.5853,-4.5853,-4.5853,-4.5853,-4.5853,-4.5892,-4.6007,-4.6046,-4.6065,-4.6123,-4.6142,-4.6527,-4.7952,-4.8298,-4.874,-5.0337,-5.0702,-5.0664,-5.0548,-5.0606,-5.0644,-5.0548,-5.0606,-5.0702,-5.0702,-5.0702,-5.0702,-5.0702,-5.0702,-5.0702,-5.0702,-5.001,-4.9567,-4.9567,-4.8144,-4.7182,-4.7067,-4.624,-4.6105,-4.6874,-4.6067,-4.5951,-4.6721,-4.597,-4.5586,-4.5586,-4.5586,-4.5586,-4.5586,-4.5586,-4.5586,-2.7017,0.0,0.0,0.0,-3.3353,-3.4237,-3.5565,-3.5872,-3.6142,-3.7084,-3.8469,-3.9815,-4.0796,-4.1335,-4.1797,-4.2297,-4.1585,-4.1296,-4.2239,-4.195,-4.1816,-4.2316,-4.2374,-4.2566,-4.3047,-4.3412,-4.3643,-4.3682,-4.4047,-4.4299,-4.4435,-4.4462,-4.4341,-4.409,-4.4075,-4.3947,-4.3666,-4.3666,-4.3431,-4.2969,-4.2519,-4.2307,-4.2303,-4.2778,-4.3457,-4.4297,-4.4687,-4.4844,-4.4883,-4.5371,-4.5566,-4.5625,-4.6113,-4.6308,-4.6289,-4.623,-4.6152,-4.6093,-4.6033,-4.5949,-4.5912,-4.5912,-4.5912,-4.5912,-4.5912,-4.5912,-4.5912,-4.5912,-4.5912,-4.588,-4.5819,-4.5796,-4.6084,-4.7163,-4.7432,-4.7759,-4.8971,-4.9625,-4.9971,-4.9971,-4.9586,-4.9394,-4.9894,-5.0375,-5.0356,-4.9394,-5.0067,-5.051,-5.0029,-5.0394,-5.0702,-5.0702,-5.0356,-4.9933,-4.9433,-4.8279,-4.7394,-4.6932,-4.6086,-4.599,-4.6874,-4.6067,-4.6009,-4.6894,-4.6028,-4.5586,-4.5586,-4.5586,-4.5586,-4.5586,-4.5586,-4.5586,0.0,0.0,0.0,-3.0217,-3.0891,-3.1429,0.0,-3.341,-3.391,-3.518,-3.5776,-3.6392,-3.7469,-3.8873,-4.0085,-4.0739,-3.9796,-3.9411,-4.0681,-4.0296,-4.0123,-4.0777,-4.1088,-4.1489,-4.2085,-4.2582,-4.2871,-4.2912,-4.3142,-4.33,-4.3438,-4.344,-4.3404,-4.3299,-4.3299,-4.3227,-4.3066,-4.3066,-4.2734,-4.209,-4.1484,-4.1074,-4.0898,-4.1719,-4.2324,-4.2773,-4.3652,-4.4023,-4.4101,-4.4961,-4.5332,-4.5391,-4.6055,-4.6308,-4.6308,-4.6308,-4.623,-4.6152,-4.6152,-4.6095,-4.5995,-4.5995,-4.5995,-4.5995,-4.5995,-4.5995,-4.5995,-4.5995,-4.5985,-4.5936,-4.5859,-4.5805,-4.5988,-4.6721,-4.6913,-4.7124,-4.7932,-4.8606,-4.9067,-4.9067,-4.8548,-4.8317,-4.8952,-4.9606,-4.9606,-4.8298,-4.9394,-5.0125,-4.9471,-4.9971,-5.0356,-5.0356,-4.999,-4.9471,-4.8817,-4.7971,-4.7201,-4.6605,-4.5951,-4.599,-4.6874,-4.6067,-4.6009,-4.6894,-4.6028,-4.5586,-4.5586,-4.5586,-4.5586,-4.5586,-4.5586,-4.5586,0.0,0.0,0.0,-2.7881,-2.8659,0.0,0.0,-3.1237,-3.1852,-3.1948,-3.3218,-3.4103,-3.3372,-3.5911,-3.8142,-3.82,-3.8123,-3.8123,-3.8262,-3.8243,-3.8243,-3.8281,-3.9127,-3.9665,-3.96,-4.1151,-4.2152,-4.2152,-4.292,-4.3443,-4.3571,-4.359,-4.3245,-4.2496,-4.2459,-4.2108,-4.1348,-4.1328,-4.1308,-4.1269,-4.1211,-4.0762,-4.0,-4.0879,-4.084,-4.0273,-4.3516,-4.4922,-4.5,-4.5879,-4.623,-4.623,-4.6289,-4.6308,-4.6308,-4.6308,-4.6308,-4.6289,-4.6289,-4.6289,-4.6289,-4.6289,-4.6289,-4.6289,-4.6289,-4.6289,-4.6289,-4.6289,-4.6188,-4.6063,-4.5929,-4.5854,-4.5988,-4.6721,-4.6913,-4.7124,-4.7932,-4.8144,-4.8163,-4.8163,-4.8125,-4.8105,-4.8163,-4.8221,-4.8202,-4.8105,-4.8875,-4.9452,-4.9413,-4.9433,-4.9471,-4.9471,-4.8048,-4.7086,-4.7028,-4.622,-4.5701,-4.5663,-4.5624,-4.599,-4.6874,-4.6067,-4.6009,-4.6894,-4.6028,-4.5586,-4.5586,-4.5586,-4.5586,-4.5586,-4.5586,-4.5586,0.0,0.0,0.0,-2.691,-2.7304,-2.7717,-2.8602,-2.9044,-2.9563,-3.0641,-3.1352,-3.1987,-3.2756,-3.4814,-3.6411,-3.6411,-3.643,-3.6853,-3.7954,-3.7692,-3.7599,-3.817,-3.8537,-3.8747,-3.8692,-3.9275,-3.9913,-4.0519,-4.0337,-4.0486,-4.1182,-4.1227,-4.0832,-3.998,-4.0508,-4.0391,-3.9531,-4.0098,-4.0078,-3.9531,-4.0098,-4.0195,-3.9922,-4.0801,-4.1035,-4.082,-4.2578,-4.3047,-4.2637,-4.3457,-4.4121,-4.4687,-4.5254,-4.5801,-4.6308,-4.6308,-4.6308,-4.6308,-4.6308,-4.6308,-4.6308,-4.6308,-4.6308,-4.6308,-4.6308,-4.6245,-4.6158,-4.6158,-4.6088,-4.5944,-4.5872,-4.5816,-4.5853,-4.6009,-4.6067,-4.6144,-4.6432,-4.649,-4.6663,-4.7221,-4.7336,-4.7336,-4.7336,-4.7759,-4.774,-4.6663,-4.8144,-4.9202,-4.8644,-4.9529,-5.0221,-5.0221,-4.9202,-4.8279,-4.7721,-4.6913,-4.6201,-4.5624,-4.5586,-4.574,-4.6047,-4.5759,-4.574,-4.6067,-4.5759,-4.5586,-4.5586,-4.5586,-4.5586,-4.5586,-4.5586,-4.5586,-2.5559,0.0,0.0,0.0,-2.6265,-2.639,-2.6967,-2.7323,-2.7843,-2.8959,-2.961,-3.0328,-3.1455,-3.2821,-3.3968,-3.4545,-3.4661,-3.522,-3.6677,-3.6463,-3.6482,-3.7381,-3.7774,-3.7958,-3.7938,-3.8221,-3.865,-3.9287,-3.8801,-3.8765,-3.9433,-3.9453,-3.9199,-3.8613,-3.916,-3.9199,-3.8613,-3.918,-3.918,-3.8613,-3.9199,-3.9453,-3.9492,-4.0371,-4.0762,-4.0801,-4.1641,-4.1855,-4.168,-4.25,-4.3359,-4.4199,-4.4766,-4.5527,-4.6308,-4.6308,-4.6308,-4.6308,-4.6308,-4.6308,-4.6308,-4.6308,-4.6273,-4.6228,-4.6228,-4.6144,-4.6032,-4.6039,-4.595,-4.5854,-4.5806,-4.5776,-4.5719,-4.5605,-4.5586,-4.5586,-4.5586,-4.5586,-4.5759,-4.6355,-4.6471,-4.6471,-4.6471,-4.6913,-4.6874,-4.5759,-4.7278,-4.8452,-4.8144,-4.9106,-4.9817,-4.9817,-4.9067,-4.8202,-4.7336,-4.6778,-4.622,-4.5624,-4.5586,-4.5586,-4.5586,-4.5586,-4.5586,-4.5586,-4.5586,-4.5586,-4.5586,-4.5586,-4.5586,-4.5586,-4.5586,-4.555,0.0,0.0,0.0,-2.5522,-2.5505,-2.5495,-2.5495,-2.615,-2.6766,-2.6786,-2.8044,-2.9125,-2.9152,-2.9809,-3.0871,-3.2487,-3.2814,-3.323,-3.4299,-3.4471,-3.4808,-3.5722,-3.6621,-3.7152,-3.7083,-3.7912,-3.8476,-3.8516,-3.8496,-3.8516,-3.8555,-3.8535,-3.8535,-3.8555,-3.8555,-3.8555,-3.8516,-3.8555,-3.8555,-3.8516,-3.8555,-3.8555,-3.8594,-3.9453,-3.9863,-3.9902,-4.0781,-4.1582,-4.2363,-4.3262,-4.4141,-4.4922,-4.4922,-4.5469,-4.6269,-4.6269,-4.6289,-4.6308,-4.6308,-4.6289,-4.6289,-4.6289,-4.6205,-4.6082,-4.6084,-4.5996,-4.5901,-4.5893,-4.5853,-4.5796,-4.5796,-4.5699,-4.5586,-4.5586,-4.5586,-4.5586,-4.5586,-4.5586,-4.5586,-4.5586,-4.5586,-4.5586,-4.5586,-4.5586,-4.5586,-4.5586,-4.6336,-4.7182,-4.7971,-4.8086,-4.8105,-4.8105,-4.7394,-4.6567,-4.5701,-4.5605,-4.5586,-4.5586,-4.5586,-4.5586,-4.5586,-4.5586,-4.5586,-4.5586,-4.5586,-4.5586,-4.5586,-4.5586,-4.5586,-4.5586,-4.5586,-4.5419,-2.5684,0.0,0.0,0.0,0.0,0.0,-2.5505,-2.5686,-2.6023,-2.6609,-2.7071,-2.7583,-2.8217,-2.8522,-2.8841,-2.9333,-3.0975,-3.2499,-3.3434,-3.3646,-3.3802,-3.4062,-3.4316,-3.447,-3.4452,-3.4681,-3.5351,-3.6621,-3.6133,-3.6328,-3.7598,-3.7051,-3.7012,-3.7637,-3.7656,-3.7363,-3.6738,-3.7344,-3.7344,-3.6738,-3.7363,-3.7656,-3.7695,-3.8555,-3.8965,-3.9004,-3.9883,-4.0039,-3.9766,-4.1269,-4.2383,-4.3125,-4.3125,-4.4043,-4.5351,-4.5351,-4.5762,-4.6286,-4.6192,-4.6164,-4.6143,-4.6037,-4.5985,-4.5968,-4.5973,-4.5899,-4.5827,-4.583,-4.5738,-4.5643,-4.5643,-4.5624,-4.5586,-4.5586,-4.5586,-4.5586,-4.5586,-4.5586,-4.5586,-4.5586,-4.5586,-4.5586,-4.5586,-4.5586,-4.5586,-4.5586,-4.6336,-4.699,-4.7201,-4.774,-4.8105,-4.8105,-4.7394,-4.6797,-4.6567,-4.5951,-4.5586,-4.5586,-4.5586,-4.5586,-4.5586,-4.5586,-4.5586,-4.5586,-4.5586,-4.5586,-4.5586,-4.5586,-4.5586,-4.5586,-4.5586,-4.555,-2.5703,-2.5664,-2.5644,-2.5644,0.0,0.0,-2.5573,-2.5573,-2.5726,-2.6197,-2.6559,-2.6945,-2.7449,-2.7518,-2.7632,-2.8036,-2.9061,-3.0352,-3.1929,-3.2213,-3.2553,-3.33,-3.3398,-3.3398,-3.3398,-3.3398,-3.3828,-3.4844,-3.4434,-3.4766,-3.6133,-3.5723,-3.5684,-3.6191,-3.6211,-3.5976,-3.5469,-3.5957,-3.6133,-3.6016,-3.6504,-3.6953,-3.7324,-3.7832,-3.8262,-3.8633,-3.9141,-3.9277,-3.9218,-4.0179,-4.1094,-4.1933,-4.2247,-4.3224,-4.4492,-4.4767,-4.5211,-4.5718,-4.5944,-4.602,-4.6001,-4.5938,-4.5886,-4.5867,-4.5844,-4.5796,-4.5719,-4.5719,-4.5643,-4.5586,-4.5586,-4.5586,-4.5586,-4.5586,-4.5586,-4.5586,-4.5586,-4.5586,-4.5586,-4.5586,-4.5586,-4.5586,-4.5586,-4.5586,-4.5586,-4.5586,-4.6028,-4.649,-4.6855,-4.7317,-4.7605,-4.7605,-4.7182,-4.6759,-4.6394,-4.5893,-4.5586,-4.5586,-4.5586,-4.5586,-4.5586,-4.5586,-4.5586,-4.5586,-4.5586,-4.5586,-4.5586,-4.5586,-4.5586,-4.5586,-4.5586,-4.5586,-2.584,-2.584,-2.582,-2.5723,-2.5859,0.0,-2.5742,-2.5762,-2.5801,-2.5703,-2.6262,-2.6755,-2.6766,-2.6707,-2.6922,-2.7717,-2.7229,-2.7633,-3.0083,-3.0505,-3.1177,-3.2791,-3.3066,-3.3086,-3.2988,-3.2988,-3.3027,-3.3125,-3.3281,-3.373,-3.4512,-3.4551,-3.4551,-3.4551,-3.4551,-3.4551,-3.4551,-3.4551,-3.4941,-3.5703,-3.5801,-3.6269,-3.7012,-3.7109,-3.7578,-3.832,-3.8418,-3.8906,-3.9627,-3.9688,-4.0286,-4.1233,-4.1873,-4.2694,-4.3601,-4.4299,-4.4659,-4.4906,-4.5631,-4.5893,-4.5892,-4.5873,-4.5834,-4.5776,-4.5776,-4.5699,-4.5586,-4.5586,-4.5586,-4.5586,-4.5586,-4.5586,-4.5586,-4.5586,-4.5586,-4.5586,-4.5586,-4.5586,-4.5586,-4.5586,-4.5586,-4.5586,-4.5586,-4.5586,-4.5586,-4.5586,-4.5586,-4.5874,-4.6663,-4.6759,-4.6759,-4.6759,-4.6759,-4.6432,-4.5663,-4.5586,-4.5586,-4.5586,-4.5586,-4.5586,-4.5586,-4.5586,-4.5586,-4.5586,-4.5586,-4.5586,-4.5586,-4.5586,-4.5586,-4.5586,-4.5586,-4.5586,-2.6738,-2.6758,-2.6582,-2.5879,-2.6758,0.0,-2.6016,-2.623,-2.6523,-2.5781,-2.5738,-2.5847,-2.5858,-2.5832,-2.5912,-2.6133,-2.6044,-2.6582,-2.843,-2.9331,-2.9951,-3.0293,-3.0957,-3.1113,-3.041,-3.0332,-3.0625,-3.1348,-3.2637,-3.3476,-3.3633,-3.3652,-3.3652,-3.3652,-3.3652,-3.3652,-3.3652,-3.3652,-3.373,-3.3926,-3.4629,-3.5039,-3.5234,-3.5937,-3.6348,-3.6543,-3.7246,-3.7656,-3.7909,-3.9174,-4.0232,-4.1047,-4.1082,-4.1634,-4.2504,-4.3345,-4.4105,-4.4816,-4.5552,-4.5825,-4.5796,-4.5699,-4.5643,-4.5624,-4.5624,-4.5605,-4.5586,-4.5586,-4.5586,-4.5586,-4.5586,-4.5586,-4.5586,-4.5586,-4.5586,-4.5586,-4.5586,-4.5586,-4.5586,-4.5586,-4.5586,-4.5586,-4.5586,-4.5586,-4.5586,-4.5586,-4.5586,-4.5663,-4.5817,-4.5855,-4.5855,-4.5855,-4.5855,-4.5778,-4.5605,-4.5586,-4.5586,-4.5586,-4.5586,-4.5586,-4.5586,-4.5586,-4.5586,-4.5586,-4.5586,-4.5586,-4.5586,-4.5586,-4.5586,-4.5586,-4.5586,-4.5586,-2.6522,-2.6621,-2.6852,-2.6408,-2.6626,0.0,0.0,-2.6247,-2.6244,-2.6217,-2.5849,-2.5676,-2.6119,-2.5878,-2.56,-2.5642,-2.5675,-2.5984,-2.6823,-2.773,-2.8457,-2.8906,-2.9336,-2.9434,-2.8984,-2.8945,-2.9316,-3.0195,-3.1035,-3.1875,-3.2754,-3.2793,-3.2793,-3.2793,-3.2793,-3.2793,-3.2793,-3.2793,-3.3008,-3.3418,-3.4277,-3.4473,-3.4082,-3.4941,-3.5351,-3.5371,-3.5801,-3.6504,-3.7381,-3.8562,-3.93,-3.973,-4.0449,-4.1042,-4.1551,-4.2325,-4.2927,-4.347,-4.4201,-4.472,-4.5028,-4.497,-4.524,-4.5586,-4.5586,-4.5586,-4.5586,-4.5586,-4.5586,-4.5586,-4.5586,-4.5586,-4.5586,-4.5586,-4.5586,-4.5586,-4.5586,-4.5586,-4.5586,-4.5586,-4.5586,-4.5586,-4.5586,-4.5586,-4.5586,-4.5586,-4.5586,-4.5586,-4.5586,-4.5586,-4.5586,-4.5586,-4.5586,-4.5586,-4.5586,-4.5586,-4.5586,-4.5586,-4.5586,-4.5586,-4.5586,-4.5586,-4.5586,-4.5586,-4.5586,-4.5586,-4.5586,-4.5586,-4.5586,-4.5586,-4.5586,-4.5586,-2.6484,-2.6708,-2.7279,-2.6957,-2.6601,-2.6361,0.0,0.0,0.0,-2.645,-2.6029,-2.5751,-2.6468,-2.6061,-2.5616,-2.5625,-2.5664,-2.5703,-2.5703,-2.6309,-2.707,-2.7949,-2.8203,-2.8223,-2.8066,-2.8047,-2.834,-2.9043,-2.9414,-3.0215,-3.1621,-3.1855,-3.1932,-3.1916,-3.1916,-3.1906,-3.1914,-3.1914,-3.2246,-3.293,-3.3781,-3.3919,-3.3437,-3.4297,-3.4785,-3.4941,-3.4931,-3.5818,-3.7331,-3.8052,-3.8324,-3.8445,-4.0081,-4.062,-4.062,-4.1489,-4.1873,-4.2066,-4.2835,-4.3528,-4.4066,-4.4066,-4.4643,-4.5374,-4.5547,-4.5586,-4.5586,-4.5586,-4.5586,-4.5586,-4.5586,-4.5586,-4.5586,-4.5586,-4.5586,-4.5586,-4.5586,-4.5586,-4.5586,-4.5586,-4.5586,-4.5586,-4.5586,-4.5586,-4.5586,-4.5586,-4.5586,-4.5586,-4.5586,-4.5586,-4.5586,-4.5586,-4.5586,-4.5586,-4.5586,-4.5586,-4.5586,-4.5586,-4.5586,-4.5586,-4.5586,-4.5586,-4.5586,-4.5586,-4.5586,-4.5586,-4.5586,-4.5586,-4.5586,-4.5586,-4.5586,-4.5586,-2.8046,-2.8404,-2.8665,-2.7185,-2.7896,-2.8394,-2.6169,0.0,-2.6554,-2.588,0.0,-2.5713,-2.5813,0.0,0.0,-2.5699,-2.5703,-2.5703,-2.5703,-2.5781,-2.6172,-2.7031,-2.7832,-2.8008,-2.7226,-2.7148,-2.7187,-2.7285,-2.873,-2.9687,-2.9883,-3.0625,-3.098,-3.0877,-3.0856,-3.0865,-3.0879,-3.0879,-3.0976,-3.1191,-3.1941,-3.2688,-3.3437,-3.4238,-3.5078,-3.5859,-3.5801,-3.6311,-3.7269,-3.7882,-3.8161,-3.8368,-4.0042,-4.0196,-3.9662,-4.1219,-4.1816,-4.195,-4.2797,-4.3162,-4.3239,-4.3239,-4.3797,-4.4586,-4.5355,-4.5586,-4.5586,-4.5586,-4.5586,-4.5586,-4.5586,-4.5586,-4.5586,-4.5586,-4.5586,-4.5586,-4.5586,-4.5586,-4.5586,-4.5586,-4.5586,-4.5586,-4.5586,-4.5586,-4.5586,-4.5586,-4.5586,-4.5586,-4.5586,-4.5586,-4.5586,-4.5586,-4.5586,-4.5586,-4.5586,-4.5586,-4.5586,-4.5586,-4.5586,-4.5586,-4.5586,-4.5586,-4.5586,-4.5586,-4.5586,-4.5586,-4.5586,-4.5586,-4.5586,-4.5586,-4.5586,-4.5586,-2.7758,-2.824,-2.8955,-2.7785,-2.7663,-2.7535,-2.639,-2.6053,-2.6015,-2.6187,0.0,0.0,0.0,0.0,0.0,0.0,-2.5646,-2.5646,-2.5646,-2.5617,-2.5744,-2.6191,-2.6562,-2.6641,-2.6289,-2.625,-2.668,-2.7676,-2.8437,-2.9297,-3.0293,-3.0703,-3.0833,-3.0702,-3.0698,-3.0684,-3.0639,-3.0633,-3.0664,-3.0739,-3.1547,-3.1891,-3.1799,-3.2649,-3.3558,-3.4433,-3.4367,-3.5129,-3.6516,-3.7175,-3.7156,-3.6867,-3.858,-3.9273,-3.9392,-4.0085,-4.0642,-4.1104,-4.145,-4.1912,-4.2508,-4.3489,-4.4028,-4.4451,-4.5336,-4.5586,-4.5586,-4.5586,-4.5586,-4.5586,-4.5586,-4.5586,-4.5586,-4.5586,-4.5586,-4.5586,-4.5586,-4.5586,-4.5586,-4.5586,-4.5586,-4.5586,-4.5586,-4.5586,-4.5586,-4.5586,-4.5586,-4.5586,-4.5586,-4.5586,-4.5586,-4.5586,-4.5586,-4.5586,-4.5586,-4.5586,-4.5586,-4.5586,-4.5586,-4.5586,-4.5586,-4.5586,-4.5586,-4.5586,-4.5586,-4.5586,-4.5586,-4.5586,-4.5586,-4.5586,-4.5586,-4.5586,-2.7904,-2.8422,-2.9317,-2.8503,-2.7668,-2.7014,-2.6967,-2.6313,-2.589,-2.6582,-2.6445,0.0,0.0,0.0,-2.626,-2.6028,0.0,-2.588,-2.5659,-2.5577,-2.5556,-2.5663,-2.5684,-2.5703,-2.5703,-2.5703,-2.6211,-2.748,-2.7812,-2.8594,-3.0117,-3.0396,-3.0564,-3.0675,-3.0648,-3.0621,-3.0564,-3.0567,-3.0591,-3.063,-3.1258,-3.135,-3.101,-3.162,-3.2408,-3.3282,-3.342,-3.4253,-3.554,-3.6521,-3.6386,-3.5718,-3.7214,-3.8272,-3.8969,-3.92,-3.9796,-4.0489,-4.0489,-4.1066,-4.2047,-4.3508,-4.4124,-4.4451,-4.5336,-4.5586,-4.5586,-4.5586,-4.5586,-4.5586,-4.5586,-4.5586,-4.5586,-4.5586,-4.5586,-4.5586,-4.5586,-4.5586,-4.5586,-4.5586,-4.5586,-4.5586,-4.5586,-4.5586,-4.5586,-4.5586,-4.5586,-4.5586,-4.5586,-4.5586,-4.5586,-4.5586,-4.5586,-4.5586,-4.5586,-4.5586,-4.5586,-4.5586,-4.5586,-4.5586,-4.5586,-4.5586,-4.5586,-4.5586,-4.5586,-4.5586,-4.5586,-4.5586,-4.5586,-4.5586,-4.5586,-4.5586,-2.9275,-2.9679,-3.0148,-2.9275,-2.8448,-2.7852,-2.7852,-2.7276,-2.6757,-2.6795,-2.7551,-2.7968,-2.7148,-2.7656,-2.7949,-2.709,-2.6907,0.0,0.0,-2.563,-2.5607,-2.5603,-2.5664,-2.5703,-2.5703,-2.5703,-2.5723,-2.5781,-2.6562,-2.7422,-2.834,-2.9128,-2.9864,-3.0574,-3.053,-3.0506,-3.0506,-3.0498,-3.0575,-3.0691,-3.0652,-3.1107,-3.1946,-3.1919,-3.2386,-3.3238,-3.3961,-3.4289,-3.4481,-3.6065,-3.6238,-3.5603,-3.643,-3.7276,-3.8142,-3.8988,-3.9796,-4.0489,-4.0489,-4.1066,-4.195,-4.2854,-4.3662,-4.4451,-4.5336,-4.5586,-4.5586,-4.5586,-4.5586,-4.5586,-4.5586,-4.5586,-4.5586,-4.5586,-4.5586,-4.5586,-4.5586,-4.5586,-4.5586,-4.5586,-4.5586,-4.5586,-4.5586,-4.5586,-4.5586,-4.5586,-4.5586,-4.5586,-4.5586,-4.5586,-4.5586,-4.5586,-4.5586,-4.5586,-4.5586,-4.5586,-4.5586,-4.5586,-4.5586,-4.5586,-4.5586,-4.5586,-4.5586,-4.5586,-4.5586,-4.5586,-4.5586,-4.5586,-4.5586,-4.5586,-4.5586,-4.5586,-2.9179,-2.9737,-3.0198,-2.9313,-2.889,-2.8574,-2.8074,-2.821,-2.8308,-2.7836,-2.8454,-2.8846,-2.8005,-2.8105,-2.8008,-2.7148,-2.6932,-2.6593,0.0,-2.5601,-2.5609,-2.5596,-2.5654,-2.5703,-2.5703,-2.5703,-2.5937,-2.6523,-2.6836,-2.7637,-2.9082,-2.9411,-2.9905,-3.0637,-3.064,-3.0602,-3.0564,-3.0564,-3.0583,-3.0621,-3.0616,-3.0762,-3.1072,-3.1049,-3.1838,-3.3205,-3.3378,-3.4097,-3.5199,-3.5699,-3.5757,-3.5584,-3.6392,-3.7238,-3.8046,-3.8334,-3.9315,-4.0489,-4.0489,-4.1066,-4.1854,-4.2143,-4.2431,-4.2816,-4.3682,-4.4316,-4.4739,-4.4739,-4.5163,-4.5586,-4.5586,-4.5586,-4.5586,-4.5586,-4.5586,-4.5586,-4.5586,-4.5586,-4.5586,-4.5586,-4.5586,-4.5586,-4.5586,-4.5586,-4.5586,-4.5586,-4.5586,-4.5586,-4.5586,-4.5586,-4.5586,-4.5586,-4.5586,-4.5586,-4.5586,-4.5586,-4.5586,-4.5586,-4.5586,-4.5586,-4.5586,-4.5586,-4.5586,-4.5586,-4.5381,-4.5263,-4.5263,-4.5052,-4.4943,-4.4943,-4.518,-4.54,-2.9486,-2.9967,-3.0275,-2.9698,-2.9333,-2.9055,-2.8882,-2.9101,-2.9279,-2.9085,-2.9555,-2.9835,-2.9314,-2.8965,-2.8476,-2.7598,-2.7156,-2.6597,0.0,-2.562,-2.564,-2.564,-2.5675,-2.5703,-2.5703,-2.5703,-2.5937,-2.6504,-2.6543,-2.7168,-2.8594,-2.8652,-2.914,-3.0241,-3.0229,-3.0318,-3.0598,-3.0598,-3.0606,-3.0641,-3.0646,-3.0795,-3.1102,-3.1093,-3.1853,-3.3172,-3.3383,-3.4097,-3.5122,-3.5391,-3.5493,-3.5584,-3.6392,-3.7238,-3.8046,-3.8354,-3.9335,-4.0489,-4.0489,-4.1066,-4.1797,-4.1797,-4.2008,-4.2374,-4.2931,-4.3662,-4.4297,-4.4297,-4.4932,-4.5586,-4.5586,-4.5586,-4.5509,-4.5201,-4.5355,-4.5509,-4.5201,-4.5374,-4.5586,-4.5586,-4.5586,-4.5586,-4.5586,-4.5586,-4.5586,-4.5586,-4.5586,-4.5586,-4.5586,-4.5586,-4.5586,-4.5586,-4.5586,-4.5586,-4.5586,-4.5586,-4.5586,-4.5586,-4.5586,-4.5586,-4.5586,-4.5586,-4.5819,-4.6282,-4.5507,-4.5316,-4.577,-4.4966,-4.458,-4.4624,-4.4825,-4.5052]}]]